<?xml version="1.0" encoding="utf-8"?>
<gpx xmlns:xsi="http://www.w3.org/2001/XMLSchema-instance" xmlns:xsd="http://www.w3.org/2001/XMLSchema" version="1.1" creator="Shapelink.com" xmlns="http://www.topografix.com/GPX/1/1" xmlns:gpxtpx="http://www.garmin.com/xmlschemas/TrackPointExtension/v1">
  <metadata>
    <name>Löpning 5.09 km, 2018-01-01</name>
    <desc></desc>
    <author><name>Bengt-Åke Forslund</name></author> 
    <time>2018-01-01T18:03:03Z</time>
  </metadata>
  <trk>
    <name>Löpning 5.09 km, 2018-01-01</name>
    <trkseg>
      <trkpt lat="62.637353224285" lon="17.966098227258">
        <ele>177.4</ele>
        <time>2018-01-01T18:03:03Z</time>
      </trkpt>
      <trkpt lat="62.637354816846" lon="17.966115074877">
        <ele>170</ele>
        <time>2018-01-01T18:03:09Z</time>
      </trkpt>
      <trkpt lat="62.637312152975" lon="17.966111805936">
        <ele>170.2</ele>
        <time>2018-01-01T18:03:10Z</time>
      </trkpt>
      <trkpt lat="62.637254150227" lon="17.965833443037">
        <ele>169.6</ele>
        <time>2018-01-01T18:04:50Z</time>
      </trkpt>
      <trkpt lat="62.637246522698" lon="17.965791114442">
        <ele>169.8</ele>
        <time>2018-01-01T18:04:51Z</time>
      </trkpt>
      <trkpt lat="62.637237051151" lon="17.965743756707">
        <ele>169.8</ele>
        <time>2018-01-01T18:04:52Z</time>
      </trkpt>
      <trkpt lat="62.637227998699" lon="17.965713162772">
        <ele>169.8</ele>
        <time>2018-01-01T18:04:53Z</time>
      </trkpt>
      <trkpt lat="62.63721534203" lon="17.965671756186">
        <ele>169.8</ele>
        <time>2018-01-01T18:04:54Z</time>
      </trkpt>
      <trkpt lat="62.637203104456" lon="17.96563202598">
        <ele>169.8</ele>
        <time>2018-01-01T18:04:55Z</time>
      </trkpt>
      <trkpt lat="62.637188687588" lon="17.965589110652">
        <ele>170</ele>
        <time>2018-01-01T18:04:56Z</time>
      </trkpt>
      <trkpt lat="62.637177539661" lon="17.965553655215">
        <ele>170</ele>
        <time>2018-01-01T18:04:57Z</time>
      </trkpt>
      <trkpt lat="62.637165134449" lon="17.965512080991">
        <ele>170</ele>
        <time>2018-01-01T18:04:58Z</time>
      </trkpt>
      <trkpt lat="62.637152226323" lon="17.965471261138">
        <ele>169.8</ele>
        <time>2018-01-01T18:04:59Z</time>
      </trkpt>
      <trkpt lat="62.637140491663" lon="17.965431279475">
        <ele>169.8</ele>
        <time>2018-01-01T18:05:00Z</time>
      </trkpt>
      <trkpt lat="62.637128086451" lon="17.965388196509">
        <ele>169.8</ele>
        <time>2018-01-01T18:05:01Z</time>
      </trkpt>
      <trkpt lat="62.637116184153" lon="17.965351399968">
        <ele>169.8</ele>
        <time>2018-01-01T18:05:02Z</time>
      </trkpt>
      <trkpt lat="62.637102605475" lon="17.965308400821">
        <ele>169.8</ele>
        <time>2018-01-01T18:05:03Z</time>
      </trkpt>
      <trkpt lat="62.63709128991" lon="17.965274705583">
        <ele>169.6</ele>
        <time>2018-01-01T18:05:04Z</time>
      </trkpt>
      <trkpt lat="62.637076453947" lon="17.965229862418">
        <ele>169.8</ele>
        <time>2018-01-01T18:05:05Z</time>
      </trkpt>
      <trkpt lat="62.637063378183" lon="17.96518778528">
        <ele>169.6</ele>
        <time>2018-01-01T18:05:06Z</time>
      </trkpt>
      <trkpt lat="62.637051727342" lon="17.965150569644">
        <ele>169.6</ele>
        <time>2018-01-01T18:05:07Z</time>
      </trkpt>
      <trkpt lat="62.637035466456" lon="17.965104636832">
        <ele>169.6</ele>
        <time>2018-01-01T18:05:08Z</time>
      </trkpt>
      <trkpt lat="62.637022223054" lon="17.965067756472">
        <ele>169.6</ele>
        <time>2018-01-01T18:05:09Z</time>
      </trkpt>
      <trkpt lat="62.63700998548" lon="17.965027858628">
        <ele>169.6</ele>
        <time>2018-01-01T18:05:10Z</time>
      </trkpt>
      <trkpt lat="62.636996406802" lon="17.964982847825">
        <ele>169.6</ele>
        <time>2018-01-01T18:05:11Z</time>
      </trkpt>
      <trkpt lat="62.636985007418" lon="17.964944207266">
        <ele>169.8</ele>
        <time>2018-01-01T18:05:12Z</time>
      </trkpt>
      <trkpt lat="62.63697226693" lon="17.964900705205">
        <ele>169.8</ele>
        <time>2018-01-01T18:05:13Z</time>
      </trkpt>
      <trkpt lat="62.636956257501" lon="17.964865752682">
        <ele>169.6</ele>
        <time>2018-01-01T18:05:14Z</time>
      </trkpt>
      <trkpt lat="62.63693957752" lon="17.96482736358">
        <ele>169.6</ele>
        <time>2018-01-01T18:05:15Z</time>
      </trkpt>
      <trkpt lat="62.636924238643" lon="17.964796182912">
        <ele>169.6</ele>
        <time>2018-01-01T18:05:16Z</time>
      </trkpt>
      <trkpt lat="62.636906385196" lon="17.964766343348">
        <ele>169.6</ele>
        <time>2018-01-01T18:05:17Z</time>
      </trkpt>
      <trkpt lat="62.636888531749" lon="17.964732229015">
        <ele>169.6</ele>
        <time>2018-01-01T18:05:18Z</time>
      </trkpt>
      <trkpt lat="62.636870510664" lon="17.964699791062">
        <ele>169.6</ele>
        <time>2018-01-01T18:05:19Z</time>
      </trkpt>
      <trkpt lat="62.636853411588" lon="17.964662491607">
        <ele>169.6</ele>
        <time>2018-01-01T18:05:20Z</time>
      </trkpt>
      <trkpt lat="62.636837150702" lon="17.9646245216">
        <ele>169.8</ele>
        <time>2018-01-01T18:05:21Z</time>
      </trkpt>
      <trkpt lat="62.636823236748" lon="17.964586216317">
        <ele>169.8</ele>
        <time>2018-01-01T18:05:22Z</time>
      </trkpt>
      <trkpt lat="62.636807394957" lon="17.964539696772">
        <ele>169.4</ele>
        <time>2018-01-01T18:05:23Z</time>
      </trkpt>
      <trkpt lat="62.636792726632" lon="17.964498122548">
        <ele>169.4</ele>
        <time>2018-01-01T18:05:24Z</time>
      </trkpt>
      <trkpt lat="62.63677864504" lon="17.964457386514">
        <ele>169.4</ele>
        <time>2018-01-01T18:05:25Z</time>
      </trkpt>
      <trkpt lat="62.636763138525" lon="17.964414722643">
        <ele>169.2</ele>
        <time>2018-01-01T18:05:26Z</time>
      </trkpt>
      <trkpt lat="62.636751906779" lon="17.964376333541">
        <ele>169.2</ele>
        <time>2018-01-01T18:05:27Z</time>
      </trkpt>
      <trkpt lat="62.636738579558" lon="17.964332244747">
        <ele>169.4</ele>
        <time>2018-01-01T18:05:28Z</time>
      </trkpt>
      <trkpt lat="62.636724833242" lon="17.964289329419">
        <ele>169.4</ele>
        <time>2018-01-01T18:05:29Z</time>
      </trkpt>
      <trkpt lat="62.636712092754" lon="17.964243731883">
        <ele>169.2</ele>
        <time>2018-01-01T18:05:30Z</time>
      </trkpt>
      <trkpt lat="62.636697843524" lon="17.964200229822">
        <ele>169.2</ele>
        <time>2018-01-01T18:05:31Z</time>
      </trkpt>
      <trkpt lat="62.636684935398" lon="17.964160834892">
        <ele>169.2</ele>
        <time>2018-01-01T18:05:32Z</time>
      </trkpt>
      <trkpt lat="62.636670350892" lon="17.964116662279">
        <ele>169.2</ele>
        <time>2018-01-01T18:05:33Z</time>
      </trkpt>
      <trkpt lat="62.636656688395" lon="17.964077351168">
        <ele>169.2</ele>
        <time>2018-01-01T18:05:34Z</time>
      </trkpt>
      <trkpt lat="62.636640846604" lon="17.964029658157">
        <ele>169.2</ele>
        <time>2018-01-01T18:05:35Z</time>
      </trkpt>
      <trkpt lat="62.63662525627" lon="17.963989089761">
        <ele>169.2</ele>
        <time>2018-01-01T18:05:36Z</time>
      </trkpt>
      <trkpt lat="62.636608660108" lon="17.963952544677">
        <ele>169.4</ele>
        <time>2018-01-01T18:05:37Z</time>
      </trkpt>
      <trkpt lat="62.636588627367" lon="17.963909461711">
        <ele>169.4</ele>
        <time>2018-01-01T18:05:38Z</time>
      </trkpt>
      <trkpt lat="62.636569684273" lon="17.963871994618">
        <ele>169.2</ele>
        <time>2018-01-01T18:05:39Z</time>
      </trkpt>
      <trkpt lat="62.636553926301" lon="17.963830001299">
        <ele>169.2</ele>
        <time>2018-01-01T18:05:40Z</time>
      </trkpt>
      <trkpt lat="62.636536994863" lon="17.963787840342">
        <ele>169.2</ele>
        <time>2018-01-01T18:05:41Z</time>
      </trkpt>
      <trkpt lat="62.636524002918" lon="17.963756827312">
        <ele>169.2</ele>
        <time>2018-01-01T18:05:42Z</time>
      </trkpt>
      <trkpt lat="62.636509669869" lon="17.963725479006">
        <ele>169.2</ele>
        <time>2018-01-01T18:05:43Z</time>
      </trkpt>
      <trkpt lat="62.636495504458" lon="17.963706871188">
        <ele>169.4</ele>
        <time>2018-01-01T18:05:44Z</time>
      </trkpt>
      <trkpt lat="62.636477902468" lon="17.963698070193">
        <ele>169.2</ele>
        <time>2018-01-01T18:05:45Z</time>
      </trkpt>
      <trkpt lat="62.636455355157" lon="17.96369161613">
        <ele>169.4</ele>
        <time>2018-01-01T18:05:46Z</time>
      </trkpt>
      <trkpt lat="62.636433813674" lon="17.963691029397">
        <ele>169.4</ele>
        <time>2018-01-01T18:05:47Z</time>
      </trkpt>
      <trkpt lat="62.636414200028" lon="17.963716342735">
        <ele>169.4</ele>
        <time>2018-01-01T18:05:48Z</time>
      </trkpt>
      <trkpt lat="62.636395089296" lon="17.963746517575">
        <ele>169.4</ele>
        <time>2018-01-01T18:05:49Z</time>
      </trkpt>
      <trkpt lat="62.636377738763" lon="17.963771160361">
        <ele>169.4</ele>
        <time>2018-01-01T18:05:50Z</time>
      </trkpt>
      <trkpt lat="62.636358963307" lon="17.963796306061">
        <ele>169.4</ele>
        <time>2018-01-01T18:05:51Z</time>
      </trkpt>
      <trkpt lat="62.636339936394" lon="17.963815416793">
        <ele>169.4</ele>
        <time>2018-01-01T18:05:52Z</time>
      </trkpt>
      <trkpt lat="62.63631764054" lon="17.963829163109">
        <ele>169.6</ele>
        <time>2018-01-01T18:05:53Z</time>
      </trkpt>
      <trkpt lat="62.636295260867" lon="17.963829498385">
        <ele>169.6</ele>
        <time>2018-01-01T18:05:54Z</time>
      </trkpt>
      <trkpt lat="62.636272629737" lon="17.963823295779">
        <ele>169.6</ele>
        <time>2018-01-01T18:05:55Z</time>
      </trkpt>
      <trkpt lat="62.636249579512" lon="17.963825223616">
        <ele>169.6</ele>
        <time>2018-01-01T18:05:56Z</time>
      </trkpt>
      <trkpt lat="62.636230720237" lon="17.963842574149">
        <ele>169.6</ele>
        <time>2018-01-01T18:05:57Z</time>
      </trkpt>
      <trkpt lat="62.636210855134" lon="17.963861433424">
        <ele>169.6</ele>
        <time>2018-01-01T18:05:58Z</time>
      </trkpt>
      <trkpt lat="62.636193839877" lon="17.963881549984">
        <ele>169.4</ele>
        <time>2018-01-01T18:05:59Z</time>
      </trkpt>
      <trkpt lat="62.636173304222" lon="17.963904264933">
        <ele>169.6</ele>
        <time>2018-01-01T18:06:00Z</time>
      </trkpt>
      <trkpt lat="62.636154025852" lon="17.963928237167">
        <ele>169.6</ele>
        <time>2018-01-01T18:06:01Z</time>
      </trkpt>
      <trkpt lat="62.636136088586" lon="17.963948186089">
        <ele>169.6</ele>
        <time>2018-01-01T18:06:02Z</time>
      </trkpt>
      <trkpt lat="62.63611647494" lon="17.963968637925">
        <ele>169.8</ele>
        <time>2018-01-01T18:06:03Z</time>
      </trkpt>
      <trkpt lat="62.636098370036" lon="17.963990766141">
        <ele>170</ele>
        <time>2018-01-01T18:06:04Z</time>
      </trkpt>
      <trkpt lat="62.63607624182" lon="17.964021108619">
        <ele>170</ele>
        <time>2018-01-01T18:06:05Z</time>
      </trkpt>
      <trkpt lat="62.636055454708" lon="17.964044326482">
        <ele>170</ele>
        <time>2018-01-01T18:06:06Z</time>
      </trkpt>
      <trkpt lat="62.636033577949" lon="17.964063940128">
        <ele>170</ele>
        <time>2018-01-01T18:06:07Z</time>
      </trkpt>
      <trkpt lat="62.63601253938" lon="17.964087493267">
        <ele>170.2</ele>
        <time>2018-01-01T18:06:08Z</time>
      </trkpt>
      <trkpt lat="62.635992171363" lon="17.964108531836">
        <ele>170</ele>
        <time>2018-01-01T18:06:09Z</time>
      </trkpt>
      <trkpt lat="62.635969456414" lon="17.964131749699">
        <ele>170</ele>
        <time>2018-01-01T18:06:10Z</time>
      </trkpt>
      <trkpt lat="62.635944226895" lon="17.964152704449">
        <ele>170.2</ele>
        <time>2018-01-01T18:06:11Z</time>
      </trkpt>
      <trkpt lat="62.635923104507" lon="17.964175922312">
        <ele>170.4</ele>
        <time>2018-01-01T18:06:12Z</time>
      </trkpt>
      <trkpt lat="62.63589770735" lon="17.964201068012">
        <ele>170.2</ele>
        <time>2018-01-01T18:06:13Z</time>
      </trkpt>
      <trkpt lat="62.635875830591" lon="17.96422470497">
        <ele>170.4</ele>
        <time>2018-01-01T18:06:14Z</time>
      </trkpt>
      <trkpt lat="62.635854875841" lon="17.964247168462">
        <ele>170.4</ele>
        <time>2018-01-01T18:06:15Z</time>
      </trkpt>
      <trkpt lat="62.635834926919" lon="17.964266446832">
        <ele>170.6</ele>
        <time>2018-01-01T18:06:16Z</time>
      </trkpt>
      <trkpt lat="62.635816319101" lon="17.964282623899">
        <ele>170.6</ele>
        <time>2018-01-01T18:06:17Z</time>
      </trkpt>
      <trkpt lat="62.635792514505" lon="17.964298549509">
        <ele>170.4</ele>
        <time>2018-01-01T18:06:18Z</time>
      </trkpt>
      <trkpt lat="62.635772733221" lon="17.964311373816">
        <ele>170.6</ele>
        <time>2018-01-01T18:06:19Z</time>
      </trkpt>
      <trkpt lat="62.635750102091" lon="17.96433366967">
        <ele>170.6</ele>
        <time>2018-01-01T18:06:20Z</time>
      </trkpt>
      <trkpt lat="62.635730488445" lon="17.964353953868">
        <ele>170.8</ele>
        <time>2018-01-01T18:06:21Z</time>
      </trkpt>
      <trkpt lat="62.635710204247" lon="17.96437641736">
        <ele>170.8</ele>
        <time>2018-01-01T18:06:22Z</time>
      </trkpt>
      <trkpt lat="62.63568564528" lon="17.964399635223">
        <ele>171</ele>
        <time>2018-01-01T18:06:23Z</time>
      </trkpt>
      <trkpt lat="62.635665277263" lon="17.964416901937">
        <ele>171</ele>
        <time>2018-01-01T18:06:24Z</time>
      </trkpt>
      <trkpt lat="62.63564289759" lon="17.964437018497">
        <ele>171</ele>
        <time>2018-01-01T18:06:25Z</time>
      </trkpt>
      <trkpt lat="62.635617584252" lon="17.964455458677">
        <ele>171</ele>
        <time>2018-01-01T18:06:26Z</time>
      </trkpt>
      <trkpt lat="62.635599479348" lon="17.964475491418">
        <ele>171</ele>
        <time>2018-01-01T18:06:27Z</time>
      </trkpt>
      <trkpt lat="62.635577434951" lon="17.964495524159">
        <ele>171</ele>
        <time>2018-01-01T18:06:28Z</time>
      </trkpt>
      <trkpt lat="62.635553714174" lon="17.964514970167">
        <ele>171.2</ele>
        <time>2018-01-01T18:06:29Z</time>
      </trkpt>
      <trkpt lat="62.635530244854" lon="17.964529135578">
        <ele>171.2</ele>
        <time>2018-01-01T18:06:30Z</time>
      </trkpt>
      <trkpt lat="62.635505099154" lon="17.964542630437">
        <ele>171.2</ele>
        <time>2018-01-01T18:06:31Z</time>
      </trkpt>
      <trkpt lat="62.635483390033" lon="17.964558136952">
        <ele>171.2</ele>
        <time>2018-01-01T18:06:32Z</time>
      </trkpt>
      <trkpt lat="62.635456735591" lon="17.964575990399">
        <ele>171.2</ele>
        <time>2018-01-01T18:06:33Z</time>
      </trkpt>
      <trkpt lat="62.635432595719" lon="17.96458847943">
        <ele>171.2</ele>
        <time>2018-01-01T18:06:34Z</time>
      </trkpt>
      <trkpt lat="62.635408707304" lon="17.964601555194">
        <ele>171.2</ele>
        <time>2018-01-01T18:06:35Z</time>
      </trkpt>
      <trkpt lat="62.635384567432" lon="17.964614044225">
        <ele>171.2</ele>
        <time>2018-01-01T18:06:36Z</time>
      </trkpt>
      <trkpt lat="62.635364367053" lon="17.964625192152">
        <ele>171.2</ele>
        <time>2018-01-01T18:06:37Z</time>
      </trkpt>
      <trkpt lat="62.635343328484" lon="17.964638519373">
        <ele>171.4</ele>
        <time>2018-01-01T18:06:38Z</time>
      </trkpt>
      <trkpt lat="62.635324888304" lon="17.964656708096">
        <ele>171.4</ele>
        <time>2018-01-01T18:06:39Z</time>
      </trkpt>
      <trkpt lat="62.635313656558" lon="17.964678920131">
        <ele>171.6</ele>
        <time>2018-01-01T18:06:40Z</time>
      </trkpt>
      <trkpt lat="62.635298485319" lon="17.964715716672">
        <ele>171.6</ele>
        <time>2018-01-01T18:06:41Z</time>
      </trkpt>
      <trkpt lat="62.635285577193" lon="17.96474522096">
        <ele>171.6</ele>
        <time>2018-01-01T18:06:42Z</time>
      </trkpt>
      <trkpt lat="62.635266969375" lon="17.964774054696">
        <ele>171.8</ele>
        <time>2018-01-01T18:06:43Z</time>
      </trkpt>
      <trkpt lat="62.635250792308" lon="17.964796099093">
        <ele>171.8</ele>
        <time>2018-01-01T18:06:44Z</time>
      </trkpt>
      <trkpt lat="62.635233357956" lon="17.964812024703">
        <ele>171.8</ele>
        <time>2018-01-01T18:06:45Z</time>
      </trkpt>
      <trkpt lat="62.635213157577" lon="17.964816383291">
        <ele>171.8</ele>
        <time>2018-01-01T18:06:46Z</time>
      </trkpt>
      <trkpt lat="62.63519111318" lon="17.964807414658">
        <ele>172</ele>
        <time>2018-01-01T18:06:47Z</time>
      </trkpt>
      <trkpt lat="62.635166386575" lon="17.964802888432">
        <ele>172</ele>
        <time>2018-01-01T18:06:48Z</time>
      </trkpt>
      <trkpt lat="62.635143084893" lon="17.964807498477">
        <ele>171.8</ele>
        <time>2018-01-01T18:06:49Z</time>
      </trkpt>
      <trkpt lat="62.635119447935" lon="17.964817053843">
        <ele>171.8</ele>
        <time>2018-01-01T18:06:50Z</time>
      </trkpt>
      <trkpt lat="62.635098744642" lon="17.964823088811">
        <ele>172</ele>
        <time>2018-01-01T18:06:51Z</time>
      </trkpt>
      <trkpt lat="62.635076616426" lon="17.964823675544">
        <ele>171.8</ele>
        <time>2018-01-01T18:06:52Z</time>
      </trkpt>
      <trkpt lat="62.635050129622" lon="17.964816550929">
        <ele>172</ele>
        <time>2018-01-01T18:06:53Z</time>
      </trkpt>
      <trkpt lat="62.635027414673" lon="17.964808755762">
        <ele>172</ele>
        <time>2018-01-01T18:06:54Z</time>
      </trkpt>
      <trkpt lat="62.635005537914" lon="17.964790902315">
        <ele>172</ele>
        <time>2018-01-01T18:06:55Z</time>
      </trkpt>
      <trkpt lat="62.634978296739" lon="17.964763493502">
        <ele>172</ele>
        <time>2018-01-01T18:06:56Z</time>
      </trkpt>
      <trkpt lat="62.634954659781" lon="17.964744550408">
        <ele>172.2</ele>
        <time>2018-01-01T18:06:57Z</time>
      </trkpt>
      <trkpt lat="62.634931106642" lon="17.964734911223">
        <ele>172.2</ele>
        <time>2018-01-01T18:06:58Z</time>
      </trkpt>
      <trkpt lat="62.634906715313" lon="17.96473600087">
        <ele>172.4</ele>
        <time>2018-01-01T18:06:59Z</time>
      </trkpt>
      <trkpt lat="62.634881737251" lon="17.964739688906">
        <ele>172.4</ele>
        <time>2018-01-01T18:07:00Z</time>
      </trkpt>
      <trkpt lat="62.634857262103" lon="17.964743125485">
        <ele>172.4</ele>
        <time>2018-01-01T18:07:01Z</time>
      </trkpt>
      <trkpt lat="62.634837648457" lon="17.964745388598">
        <ele>172.6</ele>
        <time>2018-01-01T18:07:02Z</time>
      </trkpt>
      <trkpt lat="62.634812418938" lon="17.964747567892">
        <ele>172.6</ele>
        <time>2018-01-01T18:07:03Z</time>
      </trkpt>
      <trkpt lat="62.634789201075" lon="17.964747819349">
        <ele>172.6</ele>
        <time>2018-01-01T18:07:04Z</time>
      </trkpt>
      <trkpt lat="62.634766402307" lon="17.964750920652">
        <ele>172.8</ele>
        <time>2018-01-01T18:07:05Z</time>
      </trkpt>
      <trkpt lat="62.634743352082" lon="17.96475108829">
        <ele>172.8</ele>
        <time>2018-01-01T18:07:06Z</time>
      </trkpt>
      <trkpt lat="62.634722229694" lon="17.964751172109">
        <ele>172.6</ele>
        <time>2018-01-01T18:07:07Z</time>
      </trkpt>
      <trkpt lat="62.634696748718" lon="17.964750585376">
        <ele>172.8</ele>
        <time>2018-01-01T18:07:08Z</time>
      </trkpt>
      <trkpt lat="62.634672525027" lon="17.964751004471">
        <ele>172.8</ele>
        <time>2018-01-01T18:07:09Z</time>
      </trkpt>
      <trkpt lat="62.634650229173" lon="17.964753267584">
        <ele>172.8</ele>
        <time>2018-01-01T18:07:10Z</time>
      </trkpt>
      <trkpt lat="62.634625083473" lon="17.964753099946">
        <ele>172.8</ele>
        <time>2018-01-01T18:07:11Z</time>
      </trkpt>
      <trkpt lat="62.634603793447" lon="17.964755027783">
        <ele>173</ele>
        <time>2018-01-01T18:07:12Z</time>
      </trkpt>
      <trkpt lat="62.634579821213" lon="17.964759302552">
        <ele>173</ele>
        <time>2018-01-01T18:07:13Z</time>
      </trkpt>
      <trkpt lat="62.634555010789" lon="17.96476114657">
        <ele>173</ele>
        <time>2018-01-01T18:07:14Z</time>
      </trkpt>
      <trkpt lat="62.634532379659" lon="17.96476282295">
        <ele>173</ele>
        <time>2018-01-01T18:07:15Z</time>
      </trkpt>
      <trkpt lat="62.63450882652" lon="17.964765086063">
        <ele>173.2</ele>
        <time>2018-01-01T18:07:16Z</time>
      </trkpt>
      <trkpt lat="62.634488207046" lon="17.964763912597">
        <ele>173.2</ele>
        <time>2018-01-01T18:07:17Z</time>
      </trkpt>
      <trkpt lat="62.634463899536" lon="17.964763493502">
        <ele>173.2</ele>
        <time>2018-01-01T18:07:18Z</time>
      </trkpt>
      <trkpt lat="62.634440178759" lon="17.964762068579">
        <ele>173.2</ele>
        <time>2018-01-01T18:07:19Z</time>
      </trkpt>
      <trkpt lat="62.634418469638" lon="17.964762403855">
        <ele>173.4</ele>
        <time>2018-01-01T18:07:20Z</time>
      </trkpt>
      <trkpt lat="62.634394748861" lon="17.964762152398">
        <ele>173.4</ele>
        <time>2018-01-01T18:07:21Z</time>
      </trkpt>
      <trkpt lat="62.63437136336" lon="17.964760476018">
        <ele>173.6</ele>
        <time>2018-01-01T18:07:22Z</time>
      </trkpt>
      <trkpt lat="62.634347474945" lon="17.964758548181">
        <ele>173.4</ele>
        <time>2018-01-01T18:07:23Z</time>
      </trkpt>
      <trkpt lat="62.634323335073" lon="17.964760895113">
        <ele>173.4</ele>
        <time>2018-01-01T18:07:24Z</time>
      </trkpt>
      <trkpt lat="62.634299027563" lon="17.96476198476">
        <ele>173.6</ele>
        <time>2018-01-01T18:07:25Z</time>
      </trkpt>
      <trkpt lat="62.634276480252" lon="17.964763325864">
        <ele>173.6</ele>
        <time>2018-01-01T18:07:26Z</time>
      </trkpt>
      <trkpt lat="62.634254519674" lon="17.964765421339">
        <ele>173.4</ele>
        <time>2018-01-01T18:07:27Z</time>
      </trkpt>
      <trkpt lat="62.634231972363" lon="17.964766091891">
        <ele>173.4</ele>
        <time>2018-01-01T18:07:28Z</time>
      </trkpt>
      <trkpt lat="62.634209676509" lon="17.964765002244">
        <ele>173.6</ele>
        <time>2018-01-01T18:07:29Z</time>
      </trkpt>
      <trkpt lat="62.634186458646" lon="17.964764415511">
        <ele>173.6</ele>
        <time>2018-01-01T18:07:30Z</time>
      </trkpt>
      <trkpt lat="62.634163743697" lon="17.964766343348">
        <ele>173.8</ele>
        <time>2018-01-01T18:07:31Z</time>
      </trkpt>
      <trkpt lat="62.634144046232" lon="17.964768857918">
        <ele>173.8</ele>
        <time>2018-01-01T18:07:32Z</time>
      </trkpt>
      <trkpt lat="62.634116385962" lon="17.964770869574">
        <ele>173.8</ele>
        <time>2018-01-01T18:07:33Z</time>
      </trkpt>
      <trkpt lat="62.634092581366" lon="17.964772378316">
        <ele>174</ele>
        <time>2018-01-01T18:07:34Z</time>
      </trkpt>
      <trkpt lat="62.634067770942" lon="17.96477120485">
        <ele>174</ele>
        <time>2018-01-01T18:07:35Z</time>
      </trkpt>
      <trkpt lat="62.634044217803" lon="17.96477036666">
        <ele>174</ele>
        <time>2018-01-01T18:07:36Z</time>
      </trkpt>
      <trkpt lat="62.634023346872" lon="17.964770534298">
        <ele>174.2</ele>
        <time>2018-01-01T18:07:37Z</time>
      </trkpt>
      <trkpt lat="62.63400004519" lon="17.964769025556">
        <ele>174.2</ele>
        <time>2018-01-01T18:07:38Z</time>
      </trkpt>
      <trkpt lat="62.633980180087" lon="17.964773467963">
        <ele>174.2</ele>
        <time>2018-01-01T18:07:39Z</time>
      </trkpt>
      <trkpt lat="62.633962075183" lon="17.964785956994">
        <ele>174.4</ele>
        <time>2018-01-01T18:07:40Z</time>
      </trkpt>
      <trkpt lat="62.633941790985" lon="17.964811270332">
        <ele>174.4</ele>
        <time>2018-01-01T18:07:41Z</time>
      </trkpt>
      <trkpt lat="62.633923099348" lon="17.964835577842">
        <ele>174.4</ele>
        <time>2018-01-01T18:07:42Z</time>
      </trkpt>
      <trkpt lat="62.633901641684" lon="17.964858963343">
        <ele>174.4</ele>
        <time>2018-01-01T18:07:43Z</time>
      </trkpt>
      <trkpt lat="62.633883955875" lon="17.964878996084">
        <ele>174.6</ele>
        <time>2018-01-01T18:07:44Z</time>
      </trkpt>
      <trkpt lat="62.633867108256" lon="17.964898777368">
        <ele>174.6</ele>
        <time>2018-01-01T18:07:45Z</time>
      </trkpt>
      <trkpt lat="62.633856882338" lon="17.964935909185">
        <ele>174.4</ele>
        <time>2018-01-01T18:07:46Z</time>
      </trkpt>
      <trkpt lat="62.633845566773" lon="17.964976729038">
        <ele>174.4</ele>
        <time>2018-01-01T18:07:47Z</time>
      </trkpt>
      <trkpt lat="62.633840034719" lon="17.965023835316">
        <ele>174.6</ele>
        <time>2018-01-01T18:07:48Z</time>
      </trkpt>
      <trkpt lat="62.633838106882" lon="17.965065158083">
        <ele>174.6</ele>
        <time>2018-01-01T18:07:49Z</time>
      </trkpt>
      <trkpt lat="62.633831066086" lon="17.965115114207">
        <ele>174.6</ele>
        <time>2018-01-01T18:07:50Z</time>
      </trkpt>
      <trkpt lat="62.633828551516" lon="17.965156856069">
        <ele>174.8</ele>
        <time>2018-01-01T18:07:51Z</time>
      </trkpt>
      <trkpt lat="62.633827880964" lon="17.965202202148">
        <ele>174.8</ele>
        <time>2018-01-01T18:07:52Z</time>
      </trkpt>
      <trkpt lat="62.633826204584" lon="17.965253750833">
        <ele>175</ele>
        <time>2018-01-01T18:07:53Z</time>
      </trkpt>
      <trkpt lat="62.633826204584" lon="17.965299599826">
        <ele>175.2</ele>
        <time>2018-01-01T18:07:54Z</time>
      </trkpt>
      <trkpt lat="62.633825031118" lon="17.965348298665">
        <ele>175.4</ele>
        <time>2018-01-01T18:07:55Z</time>
      </trkpt>
      <trkpt lat="62.633825450213" lon="17.965392219821">
        <ele>175.6</ele>
        <time>2018-01-01T18:07:56Z</time>
      </trkpt>
      <trkpt lat="62.633827210412" lon="17.965434296959">
        <ele>175.8</ele>
        <time>2018-01-01T18:07:57Z</time>
      </trkpt>
      <trkpt lat="62.633828551516" lon="17.965483331074">
        <ele>176</ele>
        <time>2018-01-01T18:07:58Z</time>
      </trkpt>
      <trkpt lat="62.633831485181" lon="17.965529012429">
        <ele>176.4</ele>
        <time>2018-01-01T18:07:59Z</time>
      </trkpt>
      <trkpt lat="62.633834670303" lon="17.96557251449">
        <ele>176.4</ele>
        <time>2018-01-01T18:08:00Z</time>
      </trkpt>
      <trkpt lat="62.633836849597" lon="17.965616770922">
        <ele>176.6</ele>
        <time>2018-01-01T18:08:01Z</time>
      </trkpt>
      <trkpt lat="62.633838525977" lon="17.965650382341">
        <ele>176.8</ele>
        <time>2018-01-01T18:08:02Z</time>
      </trkpt>
      <trkpt lat="62.633840118538" lon="17.965701679569">
        <ele>177</ele>
        <time>2018-01-01T18:08:03Z</time>
      </trkpt>
      <trkpt lat="62.633840705271" lon="17.965749037304">
        <ele>177</ele>
        <time>2018-01-01T18:08:04Z</time>
      </trkpt>
      <trkpt lat="62.633840286176" lon="17.965788348415">
        <ele>177.4</ele>
        <time>2018-01-01T18:08:05Z</time>
      </trkpt>
      <trkpt lat="62.633840286176" lon="17.965837550168">
        <ele>177.4</ele>
        <time>2018-01-01T18:08:06Z</time>
      </trkpt>
      <trkpt lat="62.633841124366" lon="17.965882812428">
        <ele>177.6</ele>
        <time>2018-01-01T18:08:07Z</time>
      </trkpt>
      <trkpt lat="62.633842884565" lon="17.965932433276">
        <ele>177.8</ele>
        <time>2018-01-01T18:08:08Z</time>
      </trkpt>
      <trkpt lat="62.633841040547" lon="17.965982724676">
        <ele>177.8</ele>
        <time>2018-01-01T18:08:09Z</time>
      </trkpt>
      <trkpt lat="62.63383827452" lon="17.966031591153">
        <ele>177.8</ele>
        <time>2018-01-01T18:08:10Z</time>
      </trkpt>
      <trkpt lat="62.633833580656" lon="17.96608716315">
        <ele>178</ele>
        <time>2018-01-01T18:08:11Z</time>
      </trkpt>
      <trkpt lat="62.633825953127" lon="17.966131503401">
        <ele>178</ele>
        <time>2018-01-01T18:08:12Z</time>
      </trkpt>
      <trkpt lat="62.633815727209" lon="17.966176514204">
        <ele>178.2</ele>
        <time>2018-01-01T18:08:13Z</time>
      </trkpt>
      <trkpt lat="62.633801310341" lon="17.966213813659">
        <ele>178.4</ele>
        <time>2018-01-01T18:08:14Z</time>
      </trkpt>
      <trkpt lat="62.633784295084" lon="17.966242815033">
        <ele>178.8</ele>
        <time>2018-01-01T18:08:15Z</time>
      </trkpt>
      <trkpt lat="62.633764262343" lon="17.966267374">
        <ele>179</ele>
        <time>2018-01-01T18:08:16Z</time>
      </trkpt>
      <trkpt lat="62.633743307593" lon="17.9662841378">
        <ele>179.4</ele>
        <time>2018-01-01T18:08:17Z</time>
      </trkpt>
      <trkpt lat="62.633717658979" lon="17.966297381202">
        <ele>179.4</ele>
        <time>2018-01-01T18:08:18Z</time>
      </trkpt>
      <trkpt lat="62.633692848555" lon="17.966308612948">
        <ele>179.6</ele>
        <time>2018-01-01T18:08:19Z</time>
      </trkpt>
      <trkpt lat="62.633667619036" lon="17.966314228821">
        <ele>179.6</ele>
        <time>2018-01-01T18:08:20Z</time>
      </trkpt>
      <trkpt lat="62.633644820268" lon="17.9663176654">
        <ele>179.6</ele>
        <time>2018-01-01T18:08:21Z</time>
      </trkpt>
      <trkpt lat="62.633621770043" lon="17.966323029816">
        <ele>179.6</ele>
        <time>2018-01-01T18:08:22Z</time>
      </trkpt>
      <trkpt lat="62.633592098117" lon="17.966327639861">
        <ele>179.6</ele>
        <time>2018-01-01T18:08:23Z</time>
      </trkpt>
      <trkpt lat="62.633566868598" lon="17.966327556042">
        <ele>179.6</ele>
        <time>2018-01-01T18:08:24Z</time>
      </trkpt>
      <trkpt lat="62.633539795061" lon="17.966325376748">
        <ele>179.4</ele>
        <time>2018-01-01T18:08:25Z</time>
      </trkpt>
      <trkpt lat="62.633514565542" lon="17.966323616549">
        <ele>179.6</ele>
        <time>2018-01-01T18:08:26Z</time>
      </trkpt>
      <trkpt lat="62.633491012403" lon="17.966322526902">
        <ele>179.4</ele>
        <time>2018-01-01T18:08:27Z</time>
      </trkpt>
      <trkpt lat="62.633463268314" lon="17.96632101816">
        <ele>179.4</ele>
        <time>2018-01-01T18:08:28Z</time>
      </trkpt>
      <trkpt lat="62.633438625528" lon="17.966318838866">
        <ele>179.4</ele>
        <time>2018-01-01T18:08:29Z</time>
      </trkpt>
      <trkpt lat="62.633413479828" lon="17.966318000676">
        <ele>179.4</ele>
        <time>2018-01-01T18:08:30Z</time>
      </trkpt>
      <trkpt lat="62.63338649011" lon="17.966317078667">
        <ele>179.4</ele>
        <time>2018-01-01T18:08:31Z</time>
      </trkpt>
      <trkpt lat="62.633363942799" lon="17.966317833038">
        <ele>179.2</ele>
        <time>2018-01-01T18:08:32Z</time>
      </trkpt>
      <trkpt lat="62.633336617805" lon="17.96631515083">
        <ele>179.2</ele>
        <time>2018-01-01T18:08:33Z</time>
      </trkpt>
      <trkpt lat="62.633311723562" lon="17.966308864405">
        <ele>179.2</ele>
        <time>2018-01-01T18:08:34Z</time>
      </trkpt>
      <trkpt lat="62.633286661681" lon="17.966305260188">
        <ele>179.2</ele>
        <time>2018-01-01T18:08:35Z</time>
      </trkpt>
      <trkpt lat="62.633261096886" lon="17.966304086722">
        <ele>179</ele>
        <time>2018-01-01T18:08:36Z</time>
      </trkpt>
      <trkpt lat="62.633237208471" lon="17.966301404514">
        <ele>178.8</ele>
        <time>2018-01-01T18:08:37Z</time>
      </trkpt>
      <trkpt lat="62.633210889305" lon="17.966303248532">
        <ele>179</ele>
        <time>2018-01-01T18:08:38Z</time>
      </trkpt>
      <trkpt lat="62.633183564311" lon="17.966308110034">
        <ele>178.8</ele>
        <time>2018-01-01T18:08:39Z</time>
      </trkpt>
      <trkpt lat="62.633156071679" lon="17.96631179807">
        <ele>178.8</ele>
        <time>2018-01-01T18:08:40Z</time>
      </trkpt>
      <trkpt lat="62.633129501056" lon="17.966312468622">
        <ele>178.8</ele>
        <time>2018-01-01T18:08:41Z</time>
      </trkpt>
      <trkpt lat="62.633103684804" lon="17.96630844531">
        <ele>178.6</ele>
        <time>2018-01-01T18:08:42Z</time>
      </trkpt>
      <trkpt lat="62.633077114181" lon="17.966303583808">
        <ele>178.4</ele>
        <time>2018-01-01T18:08:43Z</time>
      </trkpt>
      <trkpt lat="62.633049286273" lon="17.966298135573">
        <ele>178.4</ele>
        <time>2018-01-01T18:08:44Z</time>
      </trkpt>
      <trkpt lat="62.63302103927" lon="17.96628916694">
        <ele>178.4</ele>
        <time>2018-01-01T18:08:45Z</time>
      </trkpt>
      <trkpt lat="62.632997737588" lon="17.966291094777">
        <ele>178.4</ele>
        <time>2018-01-01T18:08:46Z</time>
      </trkpt>
      <trkpt lat="62.63297410063" lon="17.966287993474">
        <ele>178.2</ele>
        <time>2018-01-01T18:08:47Z</time>
      </trkpt>
      <trkpt lat="62.632945015437" lon="17.966283383429">
        <ele>178.4</ele>
        <time>2018-01-01T18:08:48Z</time>
      </trkpt>
      <trkpt lat="62.632919199185" lon="17.966283634886">
        <ele>178.4</ele>
        <time>2018-01-01T18:08:49Z</time>
      </trkpt>
      <trkpt lat="62.632890868363" lon="17.966286149456">
        <ele>178.2</ele>
        <time>2018-01-01T18:08:50Z</time>
      </trkpt>
      <trkpt lat="62.632867063767" lon="17.966289502216">
        <ele>178.2</ele>
        <time>2018-01-01T18:08:51Z</time>
      </trkpt>
      <trkpt lat="62.632844432637" lon="17.966296040098">
        <ele>178.2</ele>
        <time>2018-01-01T18:08:52Z</time>
      </trkpt>
      <trkpt lat="62.632817778195" lon="17.966301572152">
        <ele>178.2</ele>
        <time>2018-01-01T18:08:53Z</time>
      </trkpt>
      <trkpt lat="62.632796236712" lon="17.96630257798">
        <ele>178.2</ele>
        <time>2018-01-01T18:08:54Z</time>
      </trkpt>
      <trkpt lat="62.632773186487" lon="17.966304673455">
        <ele>178</ele>
        <time>2018-01-01T18:08:55Z</time>
      </trkpt>
      <trkpt lat="62.632747956968" lon="17.966306098378">
        <ele>177.8</ele>
        <time>2018-01-01T18:08:56Z</time>
      </trkpt>
      <trkpt lat="62.632725493476" lon="17.966308529129">
        <ele>177.8</ele>
        <time>2018-01-01T18:08:57Z</time>
      </trkpt>
      <trkpt lat="62.632699090491" lon="17.966309451138">
        <ele>177.6</ele>
        <time>2018-01-01T18:08:58Z</time>
      </trkpt>
      <trkpt lat="62.63267319042" lon="17.966303835265">
        <ele>177.6</ele>
        <time>2018-01-01T18:08:59Z</time>
      </trkpt>
      <trkpt lat="62.632648799091" lon="17.966298554668">
        <ele>177.6</ele>
        <time>2018-01-01T18:09:00Z</time>
      </trkpt>
      <trkpt lat="62.63262206083" lon="17.96629587246">
        <ele>177.4</ele>
        <time>2018-01-01T18:09:01Z</time>
      </trkpt>
      <trkpt lat="62.63259859151" lon="17.966294950451">
        <ele>177.4</ele>
        <time>2018-01-01T18:09:02Z</time>
      </trkpt>
      <trkpt lat="62.632571937068" lon="17.966290172768">
        <ele>177.4</ele>
        <time>2018-01-01T18:09:03Z</time>
      </trkpt>
      <trkpt lat="62.632546120816" lon="17.966282964334">
        <ele>177.4</ele>
        <time>2018-01-01T18:09:04Z</time>
      </trkpt>
      <trkpt lat="62.632519634012" lon="17.966276677909">
        <ele>177.2</ele>
        <time>2018-01-01T18:09:05Z</time>
      </trkpt>
      <trkpt lat="62.632496248511" lon="17.96627324133">
        <ele>177.2</ele>
        <time>2018-01-01T18:09:06Z</time>
      </trkpt>
      <trkpt lat="62.632473533562" lon="17.966265865258">
        <ele>177.2</ele>
        <time>2018-01-01T18:09:07Z</time>
      </trkpt>
      <trkpt lat="62.632448387862" lon="17.966257818634">
        <ele>177.2</ele>
        <time>2018-01-01T18:09:08Z</time>
      </trkpt>
      <trkpt lat="62.632426008189" lon="17.966254968788">
        <ele>177</ele>
        <time>2018-01-01T18:09:09Z</time>
      </trkpt>
      <trkpt lat="62.632397928824" lon="17.966247508897">
        <ele>177</ele>
        <time>2018-01-01T18:09:10Z</time>
      </trkpt>
      <trkpt lat="62.632372364029" lon="17.966242312119">
        <ele>176.8</ele>
        <time>2018-01-01T18:09:11Z</time>
      </trkpt>
      <trkpt lat="62.632349313804" lon="17.966241222472">
        <ele>176.8</ele>
        <time>2018-01-01T18:09:12Z</time>
      </trkpt>
      <trkpt lat="62.632322994638" lon="17.966237115341">
        <ele>176.6</ele>
        <time>2018-01-01T18:09:13Z</time>
      </trkpt>
      <trkpt lat="62.632300698784" lon="17.966238204988">
        <ele>176.6</ele>
        <time>2018-01-01T18:09:14Z</time>
      </trkpt>
      <trkpt lat="62.632282174785" lon="17.966248011811">
        <ele>176.6</ele>
        <time>2018-01-01T18:09:15Z</time>
      </trkpt>
      <trkpt lat="62.632264824252" lon="17.966271648769">
        <ele>176.4</ele>
        <time>2018-01-01T18:09:16Z</time>
      </trkpt>
      <trkpt lat="62.632251664669" lon="17.966302326523">
        <ele>176.4</ele>
        <time>2018-01-01T18:09:17Z</time>
      </trkpt>
      <trkpt lat="62.632238421267" lon="17.966348846068">
        <ele>176.4</ele>
        <time>2018-01-01T18:09:18Z</time>
      </trkpt>
      <trkpt lat="62.6322306261" lon="17.96639813164">
        <ele>176.4</ele>
        <time>2018-01-01T18:09:19Z</time>
      </trkpt>
      <trkpt lat="62.632225429322" lon="17.96644674666">
        <ele>176.4</ele>
        <time>2018-01-01T18:09:20Z</time>
      </trkpt>
      <trkpt lat="62.632221992743" lon="17.96649787625">
        <ele>176.4</ele>
        <time>2018-01-01T18:09:21Z</time>
      </trkpt>
      <trkpt lat="62.632220232544" lon="17.966541797406">
        <ele>176.4</ele>
        <time>2018-01-01T18:09:22Z</time>
      </trkpt>
      <trkpt lat="62.632217801793" lon="17.966594016643">
        <ele>176.4</ele>
        <time>2018-01-01T18:09:23Z</time>
      </trkpt>
      <trkpt lat="62.632214449033" lon="17.966643218396">
        <ele>176.6</ele>
        <time>2018-01-01T18:09:24Z</time>
      </trkpt>
      <trkpt lat="62.632210760997" lon="17.966693928891">
        <ele>176.4</ele>
        <time>2018-01-01T18:09:25Z</time>
      </trkpt>
      <trkpt lat="62.632209336074" lon="17.966746315766">
        <ele>176.6</ele>
        <time>2018-01-01T18:09:26Z</time>
      </trkpt>
      <trkpt lat="62.632207659694" lon="17.966795936614">
        <ele>176.8</ele>
        <time>2018-01-01T18:09:27Z</time>
      </trkpt>
      <trkpt lat="62.632204809848" lon="17.966847736756">
        <ele>177</ele>
        <time>2018-01-01T18:09:28Z</time>
      </trkpt>
      <trkpt lat="62.632200870355" lon="17.966899117803">
        <ele>177.2</ele>
        <time>2018-01-01T18:09:29Z</time>
      </trkpt>
      <trkpt lat="62.632194919206" lon="17.966946224081">
        <ele>177.2</ele>
        <time>2018-01-01T18:09:30Z</time>
      </trkpt>
      <trkpt lat="62.632188800419" lon="17.96699324654">
        <ele>177.6</ele>
        <time>2018-01-01T18:09:31Z</time>
      </trkpt>
      <trkpt lat="62.632181424347" lon="17.967041274827">
        <ele>177.8</ele>
        <time>2018-01-01T18:09:32Z</time>
      </trkpt>
      <trkpt lat="62.63217446737" lon="17.967089722209">
        <ele>178</ele>
        <time>2018-01-01T18:09:33Z</time>
      </trkpt>
      <trkpt lat="62.632167845669" lon="17.967135068288">
        <ele>178.2</ele>
        <time>2018-01-01T18:09:34Z</time>
      </trkpt>
      <trkpt lat="62.63216021814" lon="17.967181168738">
        <ele>178.6</ele>
        <time>2018-01-01T18:09:35Z</time>
      </trkpt>
      <trkpt lat="62.632152842068" lon="17.967223413514">
        <ele>178.6</ele>
        <time>2018-01-01T18:09:36Z</time>
      </trkpt>
      <trkpt lat="62.632144795444" lon="17.967262724625">
        <ele>178.8</ele>
        <time>2018-01-01T18:09:37Z</time>
      </trkpt>
      <trkpt lat="62.632133312241" lon="17.967309495627">
        <ele>179</ele>
        <time>2018-01-01T18:09:38Z</time>
      </trkpt>
      <trkpt lat="62.632123253961" lon="17.967344029055">
        <ele>179.2</ele>
        <time>2018-01-01T18:09:39Z</time>
      </trkpt>
      <trkpt lat="62.632111938396" lon="17.967382837252">
        <ele>179.2</ele>
        <time>2018-01-01T18:09:40Z</time>
      </trkpt>
      <trkpt lat="62.632099365546" lon="17.96742323801">
        <ele>179.6</ele>
        <time>2018-01-01T18:09:41Z</time>
      </trkpt>
      <trkpt lat="62.632088385257" lon="17.967458861085">
        <ele>179.8</ele>
        <time>2018-01-01T18:09:42Z</time>
      </trkpt>
      <trkpt lat="62.63207472276" lon="17.967497501644">
        <ele>179.8</ele>
        <time>2018-01-01T18:09:43Z</time>
      </trkpt>
      <trkpt lat="62.632063323376" lon="17.967536645117">
        <ele>180</ele>
        <time>2018-01-01T18:09:44Z</time>
      </trkpt>
      <trkpt lat="62.632050163793" lon="17.967577632608">
        <ele>180.2</ele>
        <time>2018-01-01T18:09:45Z</time>
      </trkpt>
      <trkpt lat="62.632035914563" lon="17.96761769809">
        <ele>180.4</ele>
        <time>2018-01-01T18:09:46Z</time>
      </trkpt>
      <trkpt lat="62.632023676989" lon="17.967647621473">
        <ele>180.4</ele>
        <time>2018-01-01T18:09:47Z</time>
      </trkpt>
      <trkpt lat="62.632012445243" lon="17.967688608964">
        <ele>180.6</ele>
        <time>2018-01-01T18:09:48Z</time>
      </trkpt>
      <trkpt lat="62.631998028375" lon="17.9677342065">
        <ele>180.8</ele>
        <time>2018-01-01T18:09:49Z</time>
      </trkpt>
      <trkpt lat="62.63198671281" lon="17.967777289466">
        <ele>181</ele>
        <time>2018-01-01T18:09:50Z</time>
      </trkpt>
      <trkpt lat="62.631973888503" lon="17.96782389283">
        <ele>181.2</ele>
        <time>2018-01-01T18:09:51Z</time>
      </trkpt>
      <trkpt lat="62.631960980377" lon="17.967861024647">
        <ele>181.4</ele>
        <time>2018-01-01T18:09:52Z</time>
      </trkpt>
      <trkpt lat="62.631948826622" lon="17.967904526708">
        <ele>181.6</ele>
        <time>2018-01-01T18:09:53Z</time>
      </trkpt>
      <trkpt lat="62.631937762514" lon="17.967943251086">
        <ele>181.8</ele>
        <time>2018-01-01T18:09:54Z</time>
      </trkpt>
      <trkpt lat="62.631923932379" lon="17.967986417871">
        <ele>182</ele>
        <time>2018-01-01T18:09:55Z</time>
      </trkpt>
      <trkpt lat="62.631911108072" lon="17.968026231896">
        <ele>182.2</ele>
        <time>2018-01-01T18:09:56Z</time>
      </trkpt>
      <trkpt lat="62.631898199946" lon="17.968060849143">
        <ele>182.4</ele>
        <time>2018-01-01T18:09:57Z</time>
      </trkpt>
      <trkpt lat="62.631885124182" lon="17.968098735331">
        <ele>182.4</ele>
        <time>2018-01-01T18:09:58Z</time>
      </trkpt>
      <trkpt lat="62.631873640979" lon="17.968137878804">
        <ele>182.6</ele>
        <time>2018-01-01T18:09:59Z</time>
      </trkpt>
      <trkpt lat="62.631861906319" lon="17.968172915146">
        <ele>182.8</ele>
        <time>2018-01-01T18:10:00Z</time>
      </trkpt>
      <trkpt lat="62.631849836383" lon="17.968211220429">
        <ele>183</ele>
        <time>2018-01-01T18:10:01Z</time>
      </trkpt>
      <trkpt lat="62.631836509162" lon="17.96824131145">
        <ele>183.2</ele>
        <time>2018-01-01T18:10:02Z</time>
      </trkpt>
      <trkpt lat="62.631820918828" lon="17.968280622561">
        <ele>183.4</ele>
        <time>2018-01-01T18:10:03Z</time>
      </trkpt>
      <trkpt lat="62.631809184168" lon="17.96832010131">
        <ele>183.6</ele>
        <time>2018-01-01T18:10:04Z</time>
      </trkpt>
      <trkpt lat="62.631797030413" lon="17.968362429905">
        <ele>183.8</ele>
        <time>2018-01-01T18:10:05Z</time>
      </trkpt>
      <trkpt lat="62.631785044296" lon="17.968402411568">
        <ele>184</ele>
        <time>2018-01-01T18:10:06Z</time>
      </trkpt>
      <trkpt lat="62.631775153654" lon="17.96843577153">
        <ele>184</ele>
        <time>2018-01-01T18:10:07Z</time>
      </trkpt>
      <trkpt lat="62.631762664623" lon="17.968472065157">
        <ele>184</ele>
        <time>2018-01-01T18:10:08Z</time>
      </trkpt>
      <trkpt lat="62.631750846144" lon="17.968506933861">
        <ele>184.2</ele>
        <time>2018-01-01T18:10:09Z</time>
      </trkpt>
      <trkpt lat="62.631741374597" lon="17.968544317135">
        <ele>184.4</ele>
        <time>2018-01-01T18:10:10Z</time>
      </trkpt>
      <trkpt lat="62.631731148679" lon="17.968589830852">
        <ele>184.6</ele>
        <time>2018-01-01T18:10:11Z</time>
      </trkpt>
      <trkpt lat="62.631723018236" lon="17.968630147791">
        <ele>184.8</ele>
        <time>2018-01-01T18:10:12Z</time>
      </trkpt>
      <trkpt lat="62.631716312716" lon="17.968673733671">
        <ele>185</ele>
        <time>2018-01-01T18:10:13Z</time>
      </trkpt>
      <trkpt lat="62.631709188101" lon="17.968715978447">
        <ele>185.2</ele>
        <time>2018-01-01T18:10:14Z</time>
      </trkpt>
      <trkpt lat="62.631702482581" lon="17.968754786644">
        <ele>185.4</ele>
        <time>2018-01-01T18:10:15Z</time>
      </trkpt>
      <trkpt lat="62.631697788717" lon="17.968798959257">
        <ele>185.6</ele>
        <time>2018-01-01T18:10:16Z</time>
      </trkpt>
      <trkpt lat="62.631695190328" lon="17.96884816101">
        <ele>185.8</ele>
        <time>2018-01-01T18:10:17Z</time>
      </trkpt>
      <trkpt lat="62.631696196156" lon="17.968901553713">
        <ele>186</ele>
        <time>2018-01-01T18:10:18Z</time>
      </trkpt>
      <trkpt lat="62.63169921364" lon="17.968951174561">
        <ele>186.2</ele>
        <time>2018-01-01T18:10:19Z</time>
      </trkpt>
      <trkpt lat="62.631703320771" lon="17.968999286667">
        <ele>186.4</ele>
        <time>2018-01-01T18:10:20Z</time>
      </trkpt>
      <trkpt lat="62.631705667703" lon="17.969041028529">
        <ele>186.6</ele>
        <time>2018-01-01T18:10:21Z</time>
      </trkpt>
      <trkpt lat="62.63170927192" lon="17.96908285421">
        <ele>186.8</ele>
        <time>2018-01-01T18:10:22Z</time>
      </trkpt>
      <trkpt lat="62.631713714327" lon="17.969129206117">
        <ele>187</ele>
        <time>2018-01-01T18:10:23Z</time>
      </trkpt>
      <trkpt lat="62.631719665476" lon="17.969163823364">
        <ele>187.2</ele>
        <time>2018-01-01T18:10:24Z</time>
      </trkpt>
      <trkpt lat="62.631729220842" lon="17.969205565226">
        <ele>187.2</ele>
        <time>2018-01-01T18:10:25Z</time>
      </trkpt>
      <trkpt lat="62.631739111484" lon="17.969244708699">
        <ele>187.4</ele>
        <time>2018-01-01T18:10:26Z</time>
      </trkpt>
      <trkpt lat="62.631749002126" lon="17.969278487756">
        <ele>187.6</ele>
        <time>2018-01-01T18:10:27Z</time>
      </trkpt>
      <trkpt lat="62.631758892768" lon="17.969318888514">
        <ele>187.6</ele>
        <time>2018-01-01T18:10:28Z</time>
      </trkpt>
      <trkpt lat="62.63176626884" lon="17.969356355607">
        <ele>187.8</ele>
        <time>2018-01-01T18:10:29Z</time>
      </trkpt>
      <trkpt lat="62.631773309636" lon="17.969392733053">
        <ele>187.8</ele>
        <time>2018-01-01T18:10:30Z</time>
      </trkpt>
      <trkpt lat="62.631781523898" lon="17.969429445775">
        <ele>188.2</ele>
        <time>2018-01-01T18:10:31Z</time>
      </trkpt>
      <trkpt lat="62.631790660169" lon="17.969460710262">
        <ele>188.4</ele>
        <time>2018-01-01T18:10:32Z</time>
      </trkpt>
      <trkpt lat="62.63179895825" lon="17.969486275057">
        <ele>188.6</ele>
        <time>2018-01-01T18:10:33Z</time>
      </trkpt>
      <trkpt lat="62.63180398739" lon="17.969508151816">
        <ele>188.8</ele>
        <time>2018-01-01T18:10:34Z</time>
      </trkpt>
      <trkpt lat="62.63181236929" lon="17.969528855109">
        <ele>188.8</ele>
        <time>2018-01-01T18:10:35Z</time>
      </trkpt>
      <trkpt lat="62.631820835009" lon="17.969546792375">
        <ele>189</ele>
        <time>2018-01-01T18:10:36Z</time>
      </trkpt>
      <trkpt lat="62.631825864149" lon="17.969560454872">
        <ele>189</ele>
        <time>2018-01-01T18:10:37Z</time>
      </trkpt>
      <trkpt lat="62.631831982936" lon="17.96957403355">
        <ele>189</ele>
        <time>2018-01-01T18:10:38Z</time>
      </trkpt>
      <trkpt lat="62.631837850266" lon="17.969584762382">
        <ele>189.2</ele>
        <time>2018-01-01T18:10:39Z</time>
      </trkpt>
      <trkpt lat="62.631837850266" lon="17.969585349115">
        <ele>189.2</ele>
        <time>2018-01-01T18:10:40Z</time>
      </trkpt>
      <trkpt lat="62.631837431171" lon="17.969596748499">
        <ele>189.4</ele>
        <time>2018-01-01T18:10:41Z</time>
      </trkpt>
      <trkpt lat="62.631993083054" lon="17.969596245585">
        <ele>189.8</ele>
        <time>2018-01-01T18:11:31Z</time>
      </trkpt>
      <trkpt lat="62.632009679216" lon="17.969590210617">
        <ele>189.8</ele>
        <time>2018-01-01T18:11:32Z</time>
      </trkpt>
      <trkpt lat="62.632034824916" lon="17.969583337459">
        <ele>190</ele>
        <time>2018-01-01T18:11:33Z</time>
      </trkpt>
      <trkpt lat="62.63205041525" lon="17.96957990088">
        <ele>190</ele>
        <time>2018-01-01T18:11:34Z</time>
      </trkpt>
      <trkpt lat="62.632079332805" lon="17.969568417677">
        <ele>190</ele>
        <time>2018-01-01T18:11:35Z</time>
      </trkpt>
      <trkpt lat="62.632105316695" lon="17.969552743524">
        <ele>190</ele>
        <time>2018-01-01T18:11:36Z</time>
      </trkpt>
      <trkpt lat="62.632128283101" lon="17.969544193986">
        <ele>190.2</ele>
        <time>2018-01-01T18:11:37Z</time>
      </trkpt>
      <trkpt lat="62.632151668602" lon="17.969532459326">
        <ele>190.2</ele>
        <time>2018-01-01T18:11:38Z</time>
      </trkpt>
      <trkpt lat="62.632177484854" lon="17.969523574512">
        <ele>190.2</ele>
        <time>2018-01-01T18:11:39Z</time>
      </trkpt>
      <trkpt lat="62.632200367441" lon="17.969513767689">
        <ele>190.2</ele>
        <time>2018-01-01T18:11:40Z</time>
      </trkpt>
      <trkpt lat="62.632225094046" lon="17.969508151816">
        <ele>190.4</ele>
        <time>2018-01-01T18:11:41Z</time>
      </trkpt>
      <trkpt lat="62.632243869502" lon="17.969493148215">
        <ele>190.4</ele>
        <time>2018-01-01T18:11:42Z</time>
      </trkpt>
      <trkpt lat="62.632269015202" lon="17.969465739402">
        <ele>190.4</ele>
        <time>2018-01-01T18:11:43Z</time>
      </trkpt>
      <trkpt lat="62.63229684311" lon="17.969453082733">
        <ele>190.4</ele>
        <time>2018-01-01T18:11:44Z</time>
      </trkpt>
      <trkpt lat="62.632324671018" lon="17.969444617014">
        <ele>190.4</ele>
        <time>2018-01-01T18:11:45Z</time>
      </trkpt>
      <trkpt lat="62.632347385967" lon="17.969443359729">
        <ele>190.2</ele>
        <time>2018-01-01T18:11:46Z</time>
      </trkpt>
      <trkpt lat="62.632373621314" lon="17.969446544851">
        <ele>190.2</ele>
        <time>2018-01-01T18:11:47Z</time>
      </trkpt>
      <trkpt lat="62.632400275756" lon="17.969435480743">
        <ele>190.2</ele>
        <time>2018-01-01T18:11:48Z</time>
      </trkpt>
      <trkpt lat="62.63242843894" lon="17.969429110499">
        <ele>190.2</ele>
        <time>2018-01-01T18:11:49Z</time>
      </trkpt>
      <trkpt lat="62.632454925744" lon="17.969429445775">
        <ele>190.2</ele>
        <time>2018-01-01T18:11:50Z</time>
      </trkpt>
      <trkpt lat="62.632478562702" lon="17.969432295621">
        <ele>190.2</ele>
        <time>2018-01-01T18:11:51Z</time>
      </trkpt>
      <trkpt lat="62.632504043678" lon="17.969430200146">
        <ele>190.2</ele>
        <time>2018-01-01T18:11:52Z</time>
      </trkpt>
      <trkpt lat="62.632530781939" lon="17.969434307277">
        <ele>190.4</ele>
        <time>2018-01-01T18:11:53Z</time>
      </trkpt>
      <trkpt lat="62.632555592363" lon="17.969435229286">
        <ele>190.4</ele>
        <time>2018-01-01T18:11:54Z</time>
      </trkpt>
      <trkpt lat="62.632579145502" lon="17.969441431892">
        <ele>190.4</ele>
        <time>2018-01-01T18:11:55Z</time>
      </trkpt>
      <trkpt lat="62.632600854623" lon="17.969442270082">
        <ele>190.2</ele>
        <time>2018-01-01T18:11:56Z</time>
      </trkpt>
      <trkpt lat="62.632624910676" lon="17.969449813792">
        <ele>190.2</ele>
        <time>2018-01-01T18:11:57Z</time>
      </trkpt>
      <trkpt lat="62.632648715272" lon="17.969456854588">
        <ele>190.4</ele>
        <time>2018-01-01T18:11:58Z</time>
      </trkpt>
      <trkpt lat="62.632672016954" lon="17.969464985031">
        <ele>190.4</ele>
        <time>2018-01-01T18:11:59Z</time>
      </trkpt>
      <trkpt lat="62.632698000844" lon="17.969473031655">
        <ele>190.4</ele>
        <time>2018-01-01T18:12:00Z</time>
      </trkpt>
      <trkpt lat="62.632719542327" lon="17.969478563709">
        <ele>190.2</ele>
        <time>2018-01-01T18:12:01Z</time>
      </trkpt>
      <trkpt lat="62.632742089638" lon="17.969483844306">
        <ele>190.2</ele>
        <time>2018-01-01T18:12:02Z</time>
      </trkpt>
      <trkpt lat="62.632763379664" lon="17.969498344993">
        <ele>190.4</ele>
        <time>2018-01-01T18:12:03Z</time>
      </trkpt>
      <trkpt lat="62.63278550788" lon="17.969505888703">
        <ele>190.4</ele>
        <time>2018-01-01T18:12:04Z</time>
      </trkpt>
      <trkpt lat="62.632811910865" lon="17.969516366078">
        <ele>190.6</ele>
        <time>2018-01-01T18:12:05Z</time>
      </trkpt>
      <trkpt lat="62.632835128728" lon="17.96952206577">
        <ele>190.6</ele>
        <time>2018-01-01T18:12:06Z</time>
      </trkpt>
      <trkpt lat="62.632857340763" lon="17.969525921444">
        <ele>190.6</ele>
        <time>2018-01-01T18:12:07Z</time>
      </trkpt>
      <trkpt lat="62.632881732092" lon="17.969528687471">
        <ele>190.6</ele>
        <time>2018-01-01T18:12:08Z</time>
      </trkpt>
      <trkpt lat="62.632904279403" lon="17.969525837625">
        <ele>190.8</ele>
        <time>2018-01-01T18:12:09Z</time>
      </trkpt>
      <trkpt lat="62.632930598569" lon="17.96952877129">
        <ele>190.8</ele>
        <time>2018-01-01T18:12:10Z</time>
      </trkpt>
      <trkpt lat="62.632957755925" lon="17.969531621136">
        <ele>191</ele>
        <time>2018-01-01T18:12:11Z</time>
      </trkpt>
      <trkpt lat="62.632980219417" lon="17.969536231181">
        <ele>191</ele>
        <time>2018-01-01T18:12:12Z</time>
      </trkpt>
      <trkpt lat="62.633005532755" lon="17.969536063543">
        <ele>191</ele>
        <time>2018-01-01T18:12:13Z</time>
      </trkpt>
      <trkpt lat="62.633030091722" lon="17.969539081027">
        <ele>191</ele>
        <time>2018-01-01T18:12:14Z</time>
      </trkpt>
      <trkpt lat="62.633053644861" lon="17.969544445443">
        <ele>191.2</ele>
        <time>2018-01-01T18:12:15Z</time>
      </trkpt>
      <trkpt lat="62.633075605439" lon="17.96954721147">
        <ele>191</ele>
        <time>2018-01-01T18:12:16Z</time>
      </trkpt>
      <trkpt lat="62.633102259881" lon="17.96955475518">
        <ele>191</ele>
        <time>2018-01-01T18:12:17Z</time>
      </trkpt>
      <trkpt lat="62.633132183264" lon="17.969572608627">
        <ele>191.2</ele>
        <time>2018-01-01T18:12:18Z</time>
      </trkpt>
      <trkpt lat="62.633155065851" lon="17.969584678563">
        <ele>191.2</ele>
        <time>2018-01-01T18:12:19Z</time>
      </trkpt>
      <trkpt lat="62.633180546827" lon="17.96958576821">
        <ele>191.2</ele>
        <time>2018-01-01T18:12:20Z</time>
      </trkpt>
      <trkpt lat="62.633206027803" lon="17.969594569205">
        <ele>191.2</ele>
        <time>2018-01-01T18:12:21Z</time>
      </trkpt>
      <trkpt lat="62.633224384164" lon="17.969600604173">
        <ele>191.2</ele>
        <time>2018-01-01T18:12:22Z</time>
      </trkpt>
      <trkpt lat="62.633251792977" lon="17.969612506471">
        <ele>191.2</ele>
        <time>2018-01-01T18:12:23Z</time>
      </trkpt>
      <trkpt lat="62.633272244813" lon="17.969627761529">
        <ele>191.4</ele>
        <time>2018-01-01T18:12:24Z</time>
      </trkpt>
      <trkpt lat="62.633292026097" lon="17.969638155085">
        <ele>191.4</ele>
        <time>2018-01-01T18:12:25Z</time>
      </trkpt>
      <trkpt lat="62.633313986675" lon="17.969653829238">
        <ele>191.4</ele>
        <time>2018-01-01T18:12:26Z</time>
      </trkpt>
      <trkpt lat="62.633332762131" lon="17.969673610522">
        <ele>191.6</ele>
        <time>2018-01-01T18:12:27Z</time>
      </trkpt>
      <trkpt lat="62.633348436284" lon="17.969689787589">
        <ele>191.6</ele>
        <time>2018-01-01T18:12:28Z</time>
      </trkpt>
      <trkpt lat="62.633361763505" lon="17.969707892493">
        <ele>191.6</ele>
        <time>2018-01-01T18:12:29Z</time>
      </trkpt>
      <trkpt lat="62.633372408518" lon="17.969727673777">
        <ele>191.8</ele>
        <time>2018-01-01T18:12:30Z</time>
      </trkpt>
      <trkpt lat="62.633379114038" lon="17.969731864727">
        <ele>191.8</ele>
        <time>2018-01-01T18:12:31Z</time>
      </trkpt>
      <trkpt lat="62.633384310816" lon="17.969740498084">
        <ele>191.8</ele>
        <time>2018-01-01T18:12:32Z</time>
      </trkpt>
      <trkpt lat="62.63339403382" lon="17.969761536653">
        <ele>191.8</ele>
        <time>2018-01-01T18:12:33Z</time>
      </trkpt>
      <trkpt lat="62.633399230598" lon="17.969771511114">
        <ele>191.8</ele>
        <time>2018-01-01T18:12:34Z</time>
      </trkpt>
      <trkpt lat="62.633401828987" lon="17.969788107276">
        <ele>191.8</ele>
        <time>2018-01-01T18:12:35Z</time>
      </trkpt>
      <trkpt lat="62.63340157753" lon="17.969779473919">
        <ele>191.8</ele>
        <time>2018-01-01T18:12:36Z</time>
      </trkpt>
      <trkpt lat="62.633400236426" lon="17.96980118304">
        <ele>191.8</ele>
        <time>2018-01-01T18:12:37Z</time>
      </trkpt>
      <trkpt lat="62.633431584732" lon="17.970507693391">
        <ele>192.4</ele>
        <time>2018-01-01T18:15:36Z</time>
      </trkpt>
      <trkpt lat="62.633437535881" lon="17.970568043071">
        <ele>192.6</ele>
        <time>2018-01-01T18:15:37Z</time>
      </trkpt>
      <trkpt lat="62.633441643012" lon="17.970647084388">
        <ele>192.6</ele>
        <time>2018-01-01T18:15:38Z</time>
      </trkpt>
      <trkpt lat="62.633445666324" lon="17.970708188439">
        <ele>192.8</ele>
        <time>2018-01-01T18:15:39Z</time>
      </trkpt>
      <trkpt lat="62.633446672152" lon="17.970771471784">
        <ele>193</ele>
        <time>2018-01-01T18:15:40Z</time>
      </trkpt>
      <trkpt lat="62.633449605817" lon="17.970843639943">
        <ele>193.4</ele>
        <time>2018-01-01T18:15:41Z</time>
      </trkpt>
      <trkpt lat="62.633452288025" lon="17.970911365695">
        <ele>193.4</ele>
        <time>2018-01-01T18:15:42Z</time>
      </trkpt>
      <trkpt lat="62.633454215862" lon="17.970988814451">
        <ele>193.6</ele>
        <time>2018-01-01T18:15:43Z</time>
      </trkpt>
      <trkpt lat="62.633454718776" lon="17.971063078085">
        <ele>193.8</ele>
        <time>2018-01-01T18:15:44Z</time>
      </trkpt>
      <trkpt lat="62.633454132043" lon="17.971127953991">
        <ele>193.8</ele>
        <time>2018-01-01T18:15:45Z</time>
      </trkpt>
      <trkpt lat="62.633453210034" lon="17.971198026675">
        <ele>193.8</ele>
        <time>2018-01-01T18:15:46Z</time>
      </trkpt>
      <trkpt lat="62.633452371844" lon="17.971263740771">
        <ele>194</ele>
        <time>2018-01-01T18:15:47Z</time>
      </trkpt>
      <trkpt lat="62.633450024912" lon="17.971342195355">
        <ele>194</ele>
        <time>2018-01-01T18:15:48Z</time>
      </trkpt>
      <trkpt lat="62.633448767627" lon="17.971398270266">
        <ele>194.2</ele>
        <time>2018-01-01T18:15:49Z</time>
      </trkpt>
      <trkpt lat="62.633445079591" lon="17.971465744561">
        <ele>194.4</ele>
        <time>2018-01-01T18:15:50Z</time>
      </trkpt>
      <trkpt lat="62.633440553365" lon="17.971530704286">
        <ele>194.8</ele>
        <time>2018-01-01T18:15:51Z</time>
      </trkpt>
      <trkpt lat="62.633435021311" lon="17.971592059794">
        <ele>195</ele>
        <time>2018-01-01T18:15:52Z</time>
      </trkpt>
      <trkpt lat="62.633429405438" lon="17.971663473582">
        <ele>195.2</ele>
        <time>2018-01-01T18:15:53Z</time>
      </trkpt>
      <trkpt lat="62.633426304135" lon="17.971735977017">
        <ele>195.2</ele>
        <time>2018-01-01T18:15:54Z</time>
      </trkpt>
      <trkpt lat="62.633424460117" lon="17.971804373321">
        <ele>195</ele>
        <time>2018-01-01T18:15:55Z</time>
      </trkpt>
      <trkpt lat="62.633420939719" lon="17.971869584503">
        <ele>195</ele>
        <time>2018-01-01T18:15:56Z</time>
      </trkpt>
      <trkpt lat="62.633413731285" lon="17.971933286943">
        <ele>195</ele>
        <time>2018-01-01T18:15:57Z</time>
      </trkpt>
      <trkpt lat="62.633409372697" lon="17.971997157021">
        <ele>195</ele>
        <time>2018-01-01T18:15:58Z</time>
      </trkpt>
      <trkpt lat="62.63340157753" lon="17.972067481162">
        <ele>195.2</ele>
        <time>2018-01-01T18:15:59Z</time>
      </trkpt>
      <trkpt lat="62.633393111811" lon="17.972127663204">
        <ele>195.4</ele>
        <time>2018-01-01T18:16:00Z</time>
      </trkpt>
      <trkpt lat="62.633386071015" lon="17.972193964033">
        <ele>195.4</ele>
        <time>2018-01-01T18:16:01Z</time>
      </trkpt>
      <trkpt lat="62.633376850925" lon="17.972251463867">
        <ele>195.6</ele>
        <time>2018-01-01T18:16:02Z</time>
      </trkpt>
      <trkpt lat="62.6333705645" lon="17.97231240028">
        <ele>195.6</ele>
        <time>2018-01-01T18:16:03Z</time>
      </trkpt>
      <trkpt lat="62.633363775161" lon="17.972365792983">
        <ele>195.8</ele>
        <time>2018-01-01T18:16:04Z</time>
      </trkpt>
      <trkpt lat="62.633350783216" lon="17.972427819043">
        <ele>196</ele>
        <time>2018-01-01T18:16:05Z</time>
      </trkpt>
      <trkpt lat="62.633338880918" lon="17.97249261113">
        <ele>196</ele>
        <time>2018-01-01T18:16:06Z</time>
      </trkpt>
      <trkpt lat="62.633328906457" lon="17.972550781516">
        <ele>196.2</ele>
        <time>2018-01-01T18:16:07Z</time>
      </trkpt>
      <trkpt lat="62.633315579236" lon="17.972622782037">
        <ele>196.4</ele>
        <time>2018-01-01T18:16:08Z</time>
      </trkpt>
      <trkpt lat="62.633303090205" lon="17.972682377346">
        <ele>196.4</ele>
        <time>2018-01-01T18:16:09Z</time>
      </trkpt>
      <trkpt lat="62.633295462676" lon="17.97274071537">
        <ele>196.6</ele>
        <time>2018-01-01T18:16:10Z</time>
      </trkpt>
      <trkpt lat="62.633284063292" lon="17.972805926552">
        <ele>196.8</ele>
        <time>2018-01-01T18:16:11Z</time>
      </trkpt>
      <trkpt lat="62.633275597573" lon="17.972858481065">
        <ele>196.8</ele>
        <time>2018-01-01T18:16:12Z</time>
      </trkpt>
      <trkpt lat="62.633264030551" lon="17.972920255668">
        <ele>196.8</ele>
        <time>2018-01-01T18:16:13Z</time>
      </trkpt>
      <trkpt lat="62.633253553176" lon="17.972972726362">
        <ele>196.8</ele>
        <time>2018-01-01T18:16:14Z</time>
      </trkpt>
      <trkpt lat="62.633240058317" lon="17.973027292531">
        <ele>197</ele>
        <time>2018-01-01T18:16:15Z</time>
      </trkpt>
      <trkpt lat="62.633227653105" lon="17.973084792365">
        <ele>197</ele>
        <time>2018-01-01T18:16:16Z</time>
      </trkpt>
      <trkpt lat="62.633215247893" lon="17.973138687982">
        <ele>197.2</ele>
        <time>2018-01-01T18:16:17Z</time>
      </trkpt>
      <trkpt lat="62.633197478265" lon="17.973197109825">
        <ele>197.2</ele>
        <time>2018-01-01T18:16:18Z</time>
      </trkpt>
      <trkpt lat="62.633183480492" lon="17.97325201127">
        <ele>197.2</ele>
        <time>2018-01-01T18:16:19Z</time>
      </trkpt>
      <trkpt lat="62.633167554882" lon="17.973310852208">
        <ele>197.2</ele>
        <time>2018-01-01T18:16:20Z</time>
      </trkpt>
      <trkpt lat="62.633155904041" lon="17.973359551047">
        <ele>197.4</ele>
        <time>2018-01-01T18:16:21Z</time>
      </trkpt>
      <trkpt lat="62.633142744458" lon="17.97341545832">
        <ele>197.6</ele>
        <time>2018-01-01T18:16:22Z</time>
      </trkpt>
      <trkpt lat="62.633129333418" lon="17.97347496981">
        <ele>197.6</ele>
        <time>2018-01-01T18:16:23Z</time>
      </trkpt>
      <trkpt lat="62.63311659293" lon="17.973534229843">
        <ele>197.6</ele>
        <time>2018-01-01T18:16:24Z</time>
      </trkpt>
      <trkpt lat="62.633104271537" lon="17.973589131288">
        <ele>197.6</ele>
        <time>2018-01-01T18:16:25Z</time>
      </trkpt>
      <trkpt lat="62.633092704515" lon="17.973639841783">
        <ele>197.8</ele>
        <time>2018-01-01T18:16:26Z</time>
      </trkpt>
      <trkpt lat="62.633080802217" lon="17.973692144839">
        <ele>197.8</ele>
        <time>2018-01-01T18:16:27Z</time>
      </trkpt>
      <trkpt lat="62.63307049248" lon="17.973744615533">
        <ele>198</ele>
        <time>2018-01-01T18:16:28Z</time>
      </trkpt>
      <trkpt lat="62.633056075612" lon="17.973803121195">
        <ele>198.2</ele>
        <time>2018-01-01T18:16:29Z</time>
      </trkpt>
      <trkpt lat="62.633044257133" lon="17.973855172794">
        <ele>198.2</ele>
        <time>2018-01-01T18:16:30Z</time>
      </trkpt>
      <trkpt lat="62.633030929912" lon="17.973907140574">
        <ele>198.4</ele>
        <time>2018-01-01T18:16:31Z</time>
      </trkpt>
      <trkpt lat="62.633018357062" lon="17.973959862725">
        <ele>198.6</ele>
        <time>2018-01-01T18:16:32Z</time>
      </trkpt>
      <trkpt lat="62.633005700393" lon="17.974016272912">
        <ele>198.6</ele>
        <time>2018-01-01T18:16:33Z</time>
      </trkpt>
      <trkpt lat="62.632993295181" lon="17.974072431642">
        <ele>198.8</ele>
        <time>2018-01-01T18:16:34Z</time>
      </trkpt>
      <trkpt lat="62.632980470874" lon="17.974132613684">
        <ele>198.8</ele>
        <time>2018-01-01T18:16:35Z</time>
      </trkpt>
      <trkpt lat="62.632965551092" lon="17.974191454622">
        <ele>198.8</ele>
        <time>2018-01-01T18:16:36Z</time>
      </trkpt>
      <trkpt lat="62.632954067889" lon="17.974238393262">
        <ele>198.8</ele>
        <time>2018-01-01T18:16:37Z</time>
      </trkpt>
      <trkpt lat="62.632940992125" lon="17.974296898924">
        <ele>198.8</ele>
        <time>2018-01-01T18:16:38Z</time>
      </trkpt>
      <trkpt lat="62.632929508922" lon="17.974356829509">
        <ele>199</ele>
        <time>2018-01-01T18:16:39Z</time>
      </trkpt>
      <trkpt lat="62.632917187529" lon="17.974412569144">
        <ele>199</ele>
        <time>2018-01-01T18:16:40Z</time>
      </trkpt>
      <trkpt lat="62.632903273575" lon="17.974473757014">
        <ele>199</ele>
        <time>2018-01-01T18:16:41Z</time>
      </trkpt>
      <trkpt lat="62.632891203639" lon="17.974524886604">
        <ele>199</ele>
        <time>2018-01-01T18:16:42Z</time>
      </trkpt>
      <trkpt lat="62.63287687059" lon="17.974582470257">
        <ele>199.2</ele>
        <time>2018-01-01T18:16:43Z</time>
      </trkpt>
      <trkpt lat="62.632863878645" lon="17.97463418658">
        <ele>199.2</ele>
        <time>2018-01-01T18:16:44Z</time>
      </trkpt>
      <trkpt lat="62.632852395442" lon="17.97468950712">
        <ele>199.2</ele>
        <time>2018-01-01T18:16:45Z</time>
      </trkpt>
      <trkpt lat="62.632836721289" lon="17.974745582031">
        <ele>199.2</ele>
        <time>2018-01-01T18:16:46Z</time>
      </trkpt>
      <trkpt lat="62.632820544222" lon="17.974797549811">
        <ele>199.2</ele>
        <time>2018-01-01T18:16:47Z</time>
      </trkpt>
      <trkpt lat="62.632807971372" lon="17.974856726025">
        <ele>199.4</ele>
        <time>2018-01-01T18:16:48Z</time>
      </trkpt>
      <trkpt lat="62.632795230884" lon="17.974908945262">
        <ele>199.4</ele>
        <time>2018-01-01T18:16:49Z</time>
      </trkpt>
      <trkpt lat="62.632783580043" lon="17.974962505603">
        <ele>199.4</ele>
        <time>2018-01-01T18:16:50Z</time>
      </trkpt>
      <trkpt lat="62.632773018849" lon="17.975020089256">
        <ele>199.4</ele>
        <time>2018-01-01T18:16:51Z</time>
      </trkpt>
      <trkpt lat="62.632761787103" lon="17.975068788095">
        <ele>199.4</ele>
        <time>2018-01-01T18:16:52Z</time>
      </trkpt>
      <trkpt lat="62.632749298072" lon="17.97513207144">
        <ele>199.6</ele>
        <time>2018-01-01T18:16:53Z</time>
      </trkpt>
      <trkpt lat="62.632736473765" lon="17.975194516595">
        <ele>199.6</ele>
        <time>2018-01-01T18:16:54Z</time>
      </trkpt>
      <trkpt lat="62.632723649458" lon="17.97524774166">
        <ele>199.6</ele>
        <time>2018-01-01T18:16:55Z</time>
      </trkpt>
      <trkpt lat="62.63271007078" lon="17.975303229838">
        <ele>199.6</ele>
        <time>2018-01-01T18:16:56Z</time>
      </trkpt>
      <trkpt lat="62.632696324464" lon="17.975355616713">
        <ele>199.6</ele>
        <time>2018-01-01T18:16:57Z</time>
      </trkpt>
      <trkpt lat="62.632682745786" lon="17.97540783595">
        <ele>199.6</ele>
        <time>2018-01-01T18:16:58Z</time>
      </trkpt>
      <trkpt lat="62.632668915651" lon="17.975462569757">
        <ele>199.8</ele>
        <time>2018-01-01T18:16:59Z</time>
      </trkpt>
      <trkpt lat="62.632656510439" lon="17.975517806478">
        <ele>199.8</ele>
        <time>2018-01-01T18:17:00Z</time>
      </trkpt>
      <trkpt lat="62.632644775779" lon="17.975568097878">
        <ele>200</ele>
        <time>2018-01-01T18:17:01Z</time>
      </trkpt>
      <trkpt lat="62.632632873481" lon="17.975621993495">
        <ele>200</ele>
        <time>2018-01-01T18:17:02Z</time>
      </trkpt>
      <trkpt lat="62.632621306459" lon="17.975680499157">
        <ele>200.2</ele>
        <time>2018-01-01T18:17:03Z</time>
      </trkpt>
      <trkpt lat="62.632610661446" lon="17.975734897688">
        <ele>200.2</ele>
        <time>2018-01-01T18:17:04Z</time>
      </trkpt>
      <trkpt lat="62.632598088596" lon="17.975792984255">
        <ele>200.2</ele>
        <time>2018-01-01T18:17:05Z</time>
      </trkpt>
      <trkpt lat="62.632587359764" lon="17.975846963691">
        <ele>200.2</ele>
        <time>2018-01-01T18:17:06Z</time>
      </trkpt>
      <trkpt lat="62.632575457466" lon="17.975899182928">
        <ele>200.2</ele>
        <time>2018-01-01T18:17:07Z</time>
      </trkpt>
      <trkpt lat="62.632561627331" lon="17.975956934219">
        <ele>200.2</ele>
        <time>2018-01-01T18:17:08Z</time>
      </trkpt>
      <trkpt lat="62.632549473576" lon="17.976009488732">
        <ele>200.4</ele>
        <time>2018-01-01T18:17:09Z</time>
      </trkpt>
      <trkpt lat="62.632535978717" lon="17.976057936114">
        <ele>200.4</ele>
        <time>2018-01-01T18:17:10Z</time>
      </trkpt>
      <trkpt lat="62.632523741143" lon="17.976110658265">
        <ele>200.4</ele>
        <time>2018-01-01T18:17:11Z</time>
      </trkpt>
      <trkpt lat="62.632510749198" lon="17.976167068452">
        <ele>200.4</ele>
        <time>2018-01-01T18:17:12Z</time>
      </trkpt>
      <trkpt lat="62.632497254339" lon="17.97622674758">
        <ele>200.6</ele>
        <time>2018-01-01T18:17:13Z</time>
      </trkpt>
      <trkpt lat="62.632485352041" lon="17.97628039174">
        <ele>200.6</ele>
        <time>2018-01-01T18:17:14Z</time>
      </trkpt>
      <trkpt lat="62.632471689544" lon="17.976323642344">
        <ele>200.6</ele>
        <time>2018-01-01T18:17:15Z</time>
      </trkpt>
      <trkpt lat="62.632457021219" lon="17.976387596241">
        <ele>200.6</ele>
        <time>2018-01-01T18:17:16Z</time>
      </trkpt>
      <trkpt lat="62.632445118921" lon="17.976444006428">
        <ele>200.8</ele>
        <time>2018-01-01T18:17:17Z</time>
      </trkpt>
      <trkpt lat="62.632429780044" lon="17.976503182642">
        <ele>200.8</ele>
        <time>2018-01-01T18:17:18Z</time>
      </trkpt>
      <trkpt lat="62.632418967393" lon="17.976555485698">
        <ele>200.8</ele>
        <time>2018-01-01T18:17:19Z</time>
      </trkpt>
      <trkpt lat="62.632405053439" lon="17.976611644428">
        <ele>201</ele>
        <time>2018-01-01T18:17:20Z</time>
      </trkpt>
      <trkpt lat="62.632389966019" lon="17.976667467882">
        <ele>201</ele>
        <time>2018-01-01T18:17:21Z</time>
      </trkpt>
      <trkpt lat="62.632380410653" lon="17.976718178377">
        <ele>201</ele>
        <time>2018-01-01T18:17:22Z</time>
      </trkpt>
      <trkpt lat="62.632365742328" lon="17.97678246755">
        <ele>201</ele>
        <time>2018-01-01T18:17:23Z</time>
      </trkpt>
      <trkpt lat="62.632356773695" lon="17.976839129194">
        <ele>201</ele>
        <time>2018-01-01T18:17:24Z</time>
      </trkpt>
      <trkpt lat="62.632343111198" lon="17.976897131942">
        <ele>201</ele>
        <time>2018-01-01T18:17:25Z</time>
      </trkpt>
      <trkpt lat="62.63233037071" lon="17.976942478021">
        <ele>201</ele>
        <time>2018-01-01T18:17:26Z</time>
      </trkpt>
      <trkpt lat="62.632317211127" lon="17.976992769421">
        <ele>201</ele>
        <time>2018-01-01T18:17:27Z</time>
      </trkpt>
      <trkpt lat="62.632303213354" lon="17.97704817378">
        <ele>201.2</ele>
        <time>2018-01-01T18:17:28Z</time>
      </trkpt>
      <trkpt lat="62.6322892994" lon="17.97710433251">
        <ele>201.2</ele>
        <time>2018-01-01T18:17:29Z</time>
      </trkpt>
      <trkpt lat="62.63227421198" lon="17.977164011638">
        <ele>201.4</ele>
        <time>2018-01-01T18:17:30Z</time>
      </trkpt>
      <trkpt lat="62.632262644958" lon="17.977214219219">
        <ele>201.4</ele>
        <time>2018-01-01T18:17:31Z</time>
      </trkpt>
      <trkpt lat="62.632251077936" lon="17.977262415144">
        <ele>201.4</ele>
        <time>2018-01-01T18:17:32Z</time>
      </trkpt>
      <trkpt lat="62.63223733162" lon="17.977317568046">
        <ele>201.6</ele>
        <time>2018-01-01T18:17:33Z</time>
      </trkpt>
      <trkpt lat="62.632224088218" lon="17.977366937437">
        <ele>201.6</ele>
        <time>2018-01-01T18:17:34Z</time>
      </trkpt>
      <trkpt lat="62.63220715678" lon="17.977429047316">
        <ele>201.6</ele>
        <time>2018-01-01T18:17:35Z</time>
      </trkpt>
      <trkpt lat="62.632195841215" lon="17.977479254897">
        <ele>201.8</ele>
        <time>2018-01-01T18:17:36Z</time>
      </trkpt>
      <trkpt lat="62.632183519822" lon="17.977535245989">
        <ele>201.8</ele>
        <time>2018-01-01T18:17:37Z</time>
      </trkpt>
      <trkpt lat="62.632169773506" lon="17.977595763307">
        <ele>201.8</ele>
        <time>2018-01-01T18:17:38Z</time>
      </trkpt>
      <trkpt lat="62.632157284475" lon="17.977649742743">
        <ele>202</ele>
        <time>2018-01-01T18:17:39Z</time>
      </trkpt>
      <trkpt lat="62.632144124892" lon="17.977698357763">
        <ele>202</ele>
        <time>2018-01-01T18:17:40Z</time>
      </trkpt>
      <trkpt lat="62.632130797671" lon="17.977749822629">
        <ele>202</ele>
        <time>2018-01-01T18:17:41Z</time>
      </trkpt>
      <trkpt lat="62.632118727735" lon="17.977802460961">
        <ele>202</ele>
        <time>2018-01-01T18:17:42Z</time>
      </trkpt>
      <trkpt lat="62.632106657799" lon="17.977857697682">
        <ele>202</ele>
        <time>2018-01-01T18:17:43Z</time>
      </trkpt>
      <trkpt lat="62.632095593691" lon="17.977908240539">
        <ele>202</ele>
        <time>2018-01-01T18:17:44Z</time>
      </trkpt>
      <trkpt lat="62.632083188479" lon="17.977968338762">
        <ele>202</ele>
        <time>2018-01-01T18:17:45Z</time>
      </trkpt>
      <trkpt lat="62.632073968389" lon="17.978010918814">
        <ele>202</ele>
        <time>2018-01-01T18:17:46Z</time>
      </trkpt>
      <trkpt lat="62.632060138254" lon="17.97805903092">
        <ele>202.2</ele>
        <time>2018-01-01T18:17:47Z</time>
      </trkpt>
      <trkpt lat="62.632047816861" lon="17.97811435146">
        <ele>202.2</ele>
        <time>2018-01-01T18:17:48Z</time>
      </trkpt>
      <trkpt lat="62.632034908735" lon="17.978160954824">
        <ele>202.2</ele>
        <time>2018-01-01T18:17:49Z</time>
      </trkpt>
      <trkpt lat="62.632019988953" lon="17.978208480197">
        <ele>202.4</ele>
        <time>2018-01-01T18:17:50Z</time>
      </trkpt>
      <trkpt lat="62.632006410275" lon="17.978258268683">
        <ele>202.4</ele>
        <time>2018-01-01T18:17:51Z</time>
      </trkpt>
      <trkpt lat="62.631993753606" lon="17.978305626418">
        <ele>202.6</ele>
        <time>2018-01-01T18:17:52Z</time>
      </trkpt>
      <trkpt lat="62.63198000729" lon="17.978365389365">
        <ele>202.6</ele>
        <time>2018-01-01T18:17:53Z</time>
      </trkpt>
      <trkpt lat="62.631967769716" lon="17.978423895027">
        <ele>202.8</ele>
        <time>2018-01-01T18:17:54Z</time>
      </trkpt>
      <trkpt lat="62.631952849934" lon="17.978459518102">
        <ele>202.8</ele>
        <time>2018-01-01T18:17:55Z</time>
      </trkpt>
      <trkpt lat="62.631940193265" lon="17.97849740429">
        <ele>203</ele>
        <time>2018-01-01T18:17:56Z</time>
      </trkpt>
      <trkpt lat="62.63192803951" lon="17.978558173065">
        <ele>203</ele>
        <time>2018-01-01T18:17:57Z</time>
      </trkpt>
      <trkpt lat="62.631918987058" lon="17.978605782257">
        <ele>203</ele>
        <time>2018-01-01T18:17:58Z</time>
      </trkpt>
      <trkpt lat="62.63190457019" lon="17.978658839684">
        <ele>203.2</ele>
        <time>2018-01-01T18:17:59Z</time>
      </trkpt>
      <trkpt lat="62.631895685376" lon="17.978716758613">
        <ele>203.2</ele>
        <time>2018-01-01T18:18:00Z</time>
      </trkpt>
      <trkpt lat="62.631884034535" lon="17.978773001162">
        <ele>203</ele>
        <time>2018-01-01T18:18:01Z</time>
      </trkpt>
      <trkpt lat="62.631873640979" lon="17.978824046933">
        <ele>203.2</ele>
        <time>2018-01-01T18:18:02Z</time>
      </trkpt>
      <trkpt lat="62.631862744509" lon="17.978874505971">
        <ele>203.2</ele>
        <time>2018-01-01T18:18:03Z</time>
      </trkpt>
      <trkpt lat="62.631847237994" lon="17.978937537859">
        <ele>203.2</ele>
        <time>2018-01-01T18:18:04Z</time>
      </trkpt>
      <trkpt lat="62.631834916601" lon="17.978986823431">
        <ele>203.2</ele>
        <time>2018-01-01T18:18:05Z</time>
      </trkpt>
      <trkpt lat="62.631823684855" lon="17.979039461763">
        <ele>203.4</ele>
        <time>2018-01-01T18:18:06Z</time>
      </trkpt>
      <trkpt lat="62.631812453109" lon="17.979090591353">
        <ele>203.4</ele>
        <time>2018-01-01T18:18:07Z</time>
      </trkpt>
      <trkpt lat="62.63179895825" lon="17.97914364878">
        <ele>203.6</ele>
        <time>2018-01-01T18:18:08Z</time>
      </trkpt>
      <trkpt lat="62.63178470902" lon="17.979196622388">
        <ele>203.6</ele>
        <time>2018-01-01T18:18:09Z</time>
      </trkpt>
      <trkpt lat="62.631773477274" lon="17.979251942928">
        <ele>203.8</ele>
        <time>2018-01-01T18:18:10Z</time>
      </trkpt>
      <trkpt lat="62.631764089546" lon="17.979302821061">
        <ele>203.8</ele>
        <time>2018-01-01T18:18:11Z</time>
      </trkpt>
      <trkpt lat="62.631750259411" lon="17.979357890144">
        <ele>203.8</ele>
        <time>2018-01-01T18:18:12Z</time>
      </trkpt>
      <trkpt lat="62.631737435104" lon="17.979409103553">
        <ele>204</ele>
        <time>2018-01-01T18:18:13Z</time>
      </trkpt>
      <trkpt lat="62.631723185874" lon="17.979459311134">
        <ele>204</ele>
        <time>2018-01-01T18:18:14Z</time>
      </trkpt>
      <trkpt lat="62.631708769006" lon="17.979507004145">
        <ele>204</ele>
        <time>2018-01-01T18:18:15Z</time>
      </trkpt>
      <trkpt lat="62.631692927215" lon="17.979561235038">
        <ele>204</ele>
        <time>2018-01-01T18:18:16Z</time>
      </trkpt>
      <trkpt lat="62.631673145931" lon="17.979611107343">
        <ele>204</ele>
        <time>2018-01-01T18:18:17Z</time>
      </trkpt>
      <trkpt lat="62.631653364647" lon="17.979662153114">
        <ele>204</ele>
        <time>2018-01-01T18:18:18Z</time>
      </trkpt>
      <trkpt lat="62.631629560051" lon="17.979701631863">
        <ele>204</ele>
        <time>2018-01-01T18:18:19Z</time>
      </trkpt>
      <trkpt lat="62.63160701274" lon="17.979736584386">
        <ele>204</ele>
        <time>2018-01-01T18:18:20Z</time>
      </trkpt>
      <trkpt lat="62.631582453773" lon="17.979770531081">
        <ele>204.2</ele>
        <time>2018-01-01T18:18:21Z</time>
      </trkpt>
      <trkpt lat="62.631561247566" lon="17.979789306537">
        <ele>204.2</ele>
        <time>2018-01-01T18:18:22Z</time>
      </trkpt>
      <trkpt lat="62.631534509305" lon="17.979808417269">
        <ele>204.4</ele>
        <time>2018-01-01T18:18:23Z</time>
      </trkpt>
      <trkpt lat="62.631507435768" lon="17.979823756146">
        <ele>204.4</ele>
        <time>2018-01-01T18:18:24Z</time>
      </trkpt>
      <trkpt lat="62.631485139914" lon="17.979836915729">
        <ele>204.4</ele>
        <time>2018-01-01T18:18:25Z</time>
      </trkpt>
      <trkpt lat="62.631465945363" lon="17.979864659818">
        <ele>204.4</ele>
        <time>2018-01-01T18:18:26Z</time>
      </trkpt>
      <trkpt lat="62.631453959246" lon="17.979900869626">
        <ele>204.4</ele>
        <time>2018-01-01T18:18:27Z</time>
      </trkpt>
      <trkpt lat="62.63145697673" lon="17.979953172682">
        <ele>204.6</ele>
        <time>2018-01-01T18:18:28Z</time>
      </trkpt>
      <trkpt lat="62.631472650883" lon="17.980007990308">
        <ele>204.6</ele>
        <time>2018-01-01T18:18:29Z</time>
      </trkpt>
      <trkpt lat="62.631496455479" lon="17.980040595899">
        <ele>204.6</ele>
        <time>2018-01-01T18:18:30Z</time>
      </trkpt>
      <trkpt lat="62.63152319374" lon="17.980039590071">
        <ele>204.6</ele>
        <time>2018-01-01T18:18:31Z</time>
      </trkpt>
      <trkpt lat="62.63154498668" lon="17.980016120751">
        <ele>204.6</ele>
        <time>2018-01-01T18:18:32Z</time>
      </trkpt>
      <trkpt lat="62.631562253394" lon="17.979977480192">
        <ele>204.6</ele>
        <time>2018-01-01T18:18:33Z</time>
      </trkpt>
      <trkpt lat="62.631582789049" lon="17.979939007271">
        <ele>204.6</ele>
        <time>2018-01-01T18:18:34Z</time>
      </trkpt>
      <trkpt lat="62.631605168722" lon="17.979896846314">
        <ele>204.6</ele>
        <time>2018-01-01T18:18:35Z</time>
      </trkpt>
      <trkpt lat="62.631623357445" lon="17.979853260434">
        <ele>204.6</ele>
        <time>2018-01-01T18:18:36Z</time>
      </trkpt>
      <trkpt lat="62.631642300539" lon="17.979804645414">
        <ele>204.6</ele>
        <time>2018-01-01T18:18:37Z</time>
      </trkpt>
      <trkpt lat="62.631658645244" lon="17.979751168892">
        <ele>204.6</ele>
        <time>2018-01-01T18:18:38Z</time>
      </trkpt>
      <trkpt lat="62.631673648845" lon="17.97970188332">
        <ele>204.8</ele>
        <time>2018-01-01T18:18:39Z</time>
      </trkpt>
      <trkpt lat="62.631688652446" lon="17.979653100662">
        <ele>204.8</ele>
        <time>2018-01-01T18:18:40Z</time>
      </trkpt>
      <trkpt lat="62.631703320771" lon="17.979603144538">
        <ele>204.6</ele>
        <time>2018-01-01T18:18:41Z</time>
      </trkpt>
      <trkpt lat="62.631721090399" lon="17.979553691328">
        <ele>204.6</ele>
        <time>2018-01-01T18:18:42Z</time>
      </trkpt>
      <trkpt lat="62.63173525581" lon="17.979492419639">
        <ele>204.6</ele>
        <time>2018-01-01T18:18:43Z</time>
      </trkpt>
      <trkpt lat="62.631747074289" lon="17.979432237597">
        <ele>204.6</ele>
        <time>2018-01-01T18:18:44Z</time>
      </trkpt>
      <trkpt lat="62.631758473673" lon="17.979366188225">
        <ele>204.4</ele>
        <time>2018-01-01T18:18:45Z</time>
      </trkpt>
      <trkpt lat="62.63176626884" lon="17.979307263468">
        <ele>204.4</ele>
        <time>2018-01-01T18:18:46Z</time>
      </trkpt>
      <trkpt lat="62.631773141998" lon="17.979244483037">
        <ele>204.4</ele>
        <time>2018-01-01T18:18:47Z</time>
      </trkpt>
      <trkpt lat="62.631778171138" lon="17.979173907439">
        <ele>204.4</ele>
        <time>2018-01-01T18:18:48Z</time>
      </trkpt>
      <trkpt lat="62.631784457563" lon="17.979109199171">
        <ele>204.2</ele>
        <time>2018-01-01T18:18:49Z</time>
      </trkpt>
      <trkpt lat="62.631794180567" lon="17.979049352405">
        <ele>204.4</ele>
        <time>2018-01-01T18:18:50Z</time>
      </trkpt>
      <trkpt lat="62.631800718449" lon="17.978986152879">
        <ele>204.4</ele>
        <time>2018-01-01T18:18:51Z</time>
      </trkpt>
      <trkpt lat="62.63180817834" lon="17.978933682185">
        <ele>204.2</ele>
        <time>2018-01-01T18:18:52Z</time>
      </trkpt>
      <trkpt lat="62.631817230792" lon="17.978864447691">
        <ele>204.2</ele>
        <time>2018-01-01T18:18:53Z</time>
      </trkpt>
      <trkpt lat="62.631828378719" lon="17.978809127151">
        <ele>204.2</ele>
        <time>2018-01-01T18:18:54Z</time>
      </trkpt>
      <trkpt lat="62.631836509162" lon="17.978736539897">
        <ele>204.2</ele>
        <time>2018-01-01T18:18:55Z</time>
      </trkpt>
      <trkpt lat="62.631848746736" lon="17.978678118054">
        <ele>204.2</ele>
        <time>2018-01-01T18:18:56Z</time>
      </trkpt>
      <trkpt lat="62.631858218283" lon="17.978615421442">
        <ele>204</ele>
        <time>2018-01-01T18:18:57Z</time>
      </trkpt>
      <trkpt lat="62.631870874952" lon="17.978552641011">
        <ele>204</ele>
        <time>2018-01-01T18:18:58Z</time>
      </trkpt>
      <trkpt lat="62.63188026268" lon="17.978486424001">
        <ele>204</ele>
        <time>2018-01-01T18:18:59Z</time>
      </trkpt>
      <trkpt lat="62.631890656236" lon="17.978423392113">
        <ele>203.8</ele>
        <time>2018-01-01T18:19:00Z</time>
      </trkpt>
      <trkpt lat="62.631903648181" lon="17.978360695501">
        <ele>203.8</ele>
        <time>2018-01-01T18:19:01Z</time>
      </trkpt>
      <trkpt lat="62.631913203547" lon="17.978311912843">
        <ele>203.8</ele>
        <time>2018-01-01T18:19:02Z</time>
      </trkpt>
      <trkpt lat="62.631923764741" lon="17.978239409408">
        <ele>203.6</ele>
        <time>2018-01-01T18:19:03Z</time>
      </trkpt>
      <trkpt lat="62.631933823021" lon="17.978188195999">
        <ele>203.6</ele>
        <time>2018-01-01T18:19:04Z</time>
      </trkpt>
      <trkpt lat="62.631943546025" lon="17.97812189517">
        <ele>203.4</ele>
        <time>2018-01-01T18:19:05Z</time>
      </trkpt>
      <trkpt lat="62.631957459979" lon="17.97805819273">
        <ele>203.2</ele>
        <time>2018-01-01T18:19:06Z</time>
      </trkpt>
      <trkpt lat="62.63197330177" lon="17.978008068968">
        <ele>203.2</ele>
        <time>2018-01-01T18:19:07Z</time>
      </trkpt>
      <trkpt lat="62.631993334511" lon="17.977954173351">
        <ele>203.2</ele>
        <time>2018-01-01T18:19:08Z</time>
      </trkpt>
      <trkpt lat="62.632007499922" lon="17.977894829499">
        <ele>203.2</ele>
        <time>2018-01-01T18:19:09Z</time>
      </trkpt>
      <trkpt lat="62.632022000609" lon="17.977845543927">
        <ele>203.2</ele>
        <time>2018-01-01T18:19:10Z</time>
      </trkpt>
      <trkpt lat="62.632035746925" lon="17.977780416564">
        <ele>203.2</ele>
        <time>2018-01-01T18:19:11Z</time>
      </trkpt>
      <trkpt lat="62.632045972843" lon="17.977716295029">
        <ele>203</ele>
        <time>2018-01-01T18:19:12Z</time>
      </trkpt>
      <trkpt lat="62.632058629512" lon="17.977647982544">
        <ele>203</ele>
        <time>2018-01-01T18:19:13Z</time>
      </trkpt>
      <trkpt lat="62.632071789095" lon="17.97759048271">
        <ele>203</ele>
        <time>2018-01-01T18:19:14Z</time>
      </trkpt>
      <trkpt lat="62.632081344461" lon="17.977532479962">
        <ele>203</ele>
        <time>2018-01-01T18:19:15Z</time>
      </trkpt>
      <trkpt lat="62.632096012786" lon="17.977471375911">
        <ele>203</ele>
        <time>2018-01-01T18:19:16Z</time>
      </trkpt>
      <trkpt lat="62.632108082722" lon="17.977414630448">
        <ele>203</ele>
        <time>2018-01-01T18:19:17Z</time>
      </trkpt>
      <trkpt lat="62.632121996676" lon="17.97735495132">
        <ele>203</ele>
        <time>2018-01-01T18:19:18Z</time>
      </trkpt>
      <trkpt lat="62.632136162087" lon="17.977289740138">
        <ele>202.8</ele>
        <time>2018-01-01T18:19:19Z</time>
      </trkpt>
      <trkpt lat="62.632146890919" lon="17.97722922282">
        <ele>202.8</ele>
        <time>2018-01-01T18:19:20Z</time>
      </trkpt>
      <trkpt lat="62.63216189452" lon="17.977167951131">
        <ele>202.8</ele>
        <time>2018-01-01T18:19:21Z</time>
      </trkpt>
      <trkpt lat="62.632172288076" lon="17.977110283659">
        <ele>202.8</ele>
        <time>2018-01-01T18:19:22Z</time>
      </trkpt>
      <trkpt lat="62.632189135695" lon="17.977042725545">
        <ele>202.6</ele>
        <time>2018-01-01T18:19:23Z</time>
      </trkpt>
      <trkpt lat="62.632205145124" lon="17.976985393349">
        <ele>202.6</ele>
        <time>2018-01-01T18:19:24Z</time>
      </trkpt>
      <trkpt lat="62.632216209232" lon="17.976928647886">
        <ele>202.6</ele>
        <time>2018-01-01T18:19:25Z</time>
      </trkpt>
      <trkpt lat="62.632228698263" lon="17.976870645138">
        <ele>202.4</ele>
        <time>2018-01-01T18:19:26Z</time>
      </trkpt>
      <trkpt lat="62.632237583077" lon="17.976812558571">
        <ele>202.2</ele>
        <time>2018-01-01T18:19:27Z</time>
      </trkpt>
      <trkpt lat="62.632247138443" lon="17.976747766484">
        <ele>202.2</ele>
        <time>2018-01-01T18:19:28Z</time>
      </trkpt>
      <trkpt lat="62.632263818424" lon="17.976689260822">
        <ele>202</ele>
        <time>2018-01-01T18:19:29Z</time>
      </trkpt>
      <trkpt lat="62.632274547256" lon="17.976632096264">
        <ele>202</ele>
        <time>2018-01-01T18:19:30Z</time>
      </trkpt>
      <trkpt lat="62.632285779002" lon="17.976567304177">
        <ele>201.8</ele>
        <time>2018-01-01T18:19:31Z</time>
      </trkpt>
      <trkpt lat="62.632298184214" lon="17.976514162931">
        <ele>201.8</ele>
        <time>2018-01-01T18:19:32Z</time>
      </trkpt>
      <trkpt lat="62.632312014349" lon="17.97645724983">
        <ele>201.6</ele>
        <time>2018-01-01T18:19:33Z</time>
      </trkpt>
      <trkpt lat="62.632321318258" lon="17.976421878212">
        <ele>201.6</ele>
        <time>2018-01-01T18:19:34Z</time>
      </trkpt>
      <trkpt lat="62.632339842257" lon="17.976347279302">
        <ele>201.6</ele>
        <time>2018-01-01T18:19:35Z</time>
      </trkpt>
      <trkpt lat="62.632351912193" lon="17.976283325405">
        <ele>201.6</ele>
        <time>2018-01-01T18:19:36Z</time>
      </trkpt>
      <trkpt lat="62.632362054292" lon="17.976229681245">
        <ele>201.6</ele>
        <time>2018-01-01T18:19:37Z</time>
      </trkpt>
      <trkpt lat="62.632375716789" lon="17.976172181411">
        <ele>201.6</ele>
        <time>2018-01-01T18:19:38Z</time>
      </trkpt>
      <trkpt lat="62.632391390942" lon="17.976122560563">
        <ele>201.4</ele>
        <time>2018-01-01T18:19:39Z</time>
      </trkpt>
      <trkpt lat="62.632404550525" lon="17.976073023534">
        <ele>201.4</ele>
        <time>2018-01-01T18:19:40Z</time>
      </trkpt>
      <trkpt lat="62.632420308497" lon="17.976019295555">
        <ele>201.2</ele>
        <time>2018-01-01T18:19:41Z</time>
      </trkpt>
      <trkpt lat="62.632431204967" lon="17.975950563975">
        <ele>201.2</ele>
        <time>2018-01-01T18:19:42Z</time>
      </trkpt>
      <trkpt lat="62.632445118921" lon="17.975895243435">
        <ele>201.2</ele>
        <time>2018-01-01T18:19:43Z</time>
      </trkpt>
      <trkpt lat="62.632462469454" lon="17.975839000886">
        <ele>201.2</ele>
        <time>2018-01-01T18:19:44Z</time>
      </trkpt>
      <trkpt lat="62.632477640693" lon="17.975781249595">
        <ele>201</ele>
        <time>2018-01-01T18:19:45Z</time>
      </trkpt>
      <trkpt lat="62.63248711224" lon="17.975728275987">
        <ele>201.2</ele>
        <time>2018-01-01T18:19:46Z</time>
      </trkpt>
      <trkpt lat="62.632498343986" lon="17.975672452533">
        <ele>201</ele>
        <time>2018-01-01T18:19:47Z</time>
      </trkpt>
      <trkpt lat="62.632510078646" lon="17.975614114509">
        <ele>201</ele>
        <time>2018-01-01T18:19:48Z</time>
      </trkpt>
      <trkpt lat="62.632523405867" lon="17.975555022114">
        <ele>201</ele>
        <time>2018-01-01T18:19:49Z</time>
      </trkpt>
      <trkpt lat="62.632537236002" lon="17.975495929719">
        <ele>201</ele>
        <time>2018-01-01T18:19:50Z</time>
      </trkpt>
      <trkpt lat="62.632548216291" lon="17.975435412401">
        <ele>200.8</ele>
        <time>2018-01-01T18:19:51Z</time>
      </trkpt>
      <trkpt lat="62.632560789141" lon="17.975377325834">
        <ele>200.8</ele>
        <time>2018-01-01T18:19:52Z</time>
      </trkpt>
      <trkpt lat="62.632575876561" lon="17.975307839883">
        <ele>200.8</ele>
        <time>2018-01-01T18:19:53Z</time>
      </trkpt>
      <trkpt lat="62.632588617049" lon="17.975249166583">
        <ele>200.8</ele>
        <time>2018-01-01T18:19:54Z</time>
      </trkpt>
      <trkpt lat="62.632604961754" lon="17.975190577102">
        <ele>200.8</ele>
        <time>2018-01-01T18:19:55Z</time>
      </trkpt>
      <trkpt lat="62.632615439129" lon="17.975133412544">
        <ele>200.8</ele>
        <time>2018-01-01T18:19:56Z</time>
      </trkpt>
      <trkpt lat="62.632627676703" lon="17.97507004538">
        <ele>200.6</ele>
        <time>2018-01-01T18:19:57Z</time>
      </trkpt>
      <trkpt lat="62.632643434675" lon="17.975005588569">
        <ele>200.6</ele>
        <time>2018-01-01T18:19:58Z</time>
      </trkpt>
      <trkpt lat="62.63265391205" lon="17.974944652156">
        <ele>200.6</ele>
        <time>2018-01-01T18:19:59Z</time>
      </trkpt>
      <trkpt lat="62.632666903995" lon="17.974876758766">
        <ele>200.6</ele>
        <time>2018-01-01T18:20:00Z</time>
      </trkpt>
      <trkpt lat="62.632681656139" lon="17.974823701339">
        <ele>200.6</ele>
        <time>2018-01-01T18:20:01Z</time>
      </trkpt>
      <trkpt lat="62.632695318636" lon="17.974771817378">
        <ele>200.6</ele>
        <time>2018-01-01T18:20:02Z</time>
      </trkpt>
      <trkpt lat="62.632710825151" lon="17.974705265092">
        <ele>200.6</ele>
        <time>2018-01-01T18:20:03Z</time>
      </trkpt>
      <trkpt lat="62.632723984734" lon="17.974652710579">
        <ele>200.4</ele>
        <time>2018-01-01T18:20:04Z</time>
      </trkpt>
      <trkpt lat="62.632738317783" lon="17.974588421406">
        <ele>200.4</ele>
        <time>2018-01-01T18:20:05Z</time>
      </trkpt>
      <trkpt lat="62.632754997764" lon="17.974528239364">
        <ele>200.4</ele>
        <time>2018-01-01T18:20:06Z</time>
      </trkpt>
      <trkpt lat="62.632767738252" lon="17.974479708163">
        <ele>200.2</ele>
        <time>2018-01-01T18:20:07Z</time>
      </trkpt>
      <trkpt lat="62.63278299331" lon="17.974418604112">
        <ele>200.2</ele>
        <time>2018-01-01T18:20:08Z</time>
      </trkpt>
      <trkpt lat="62.632796823445" lon="17.974359595536">
        <ele>200.2</ele>
        <time>2018-01-01T18:20:09Z</time>
      </trkpt>
      <trkpt lat="62.632809228657" lon="17.974304610272">
        <ele>200</ele>
        <time>2018-01-01T18:20:10Z</time>
      </trkpt>
      <trkpt lat="62.632824148439" lon="17.974246272248">
        <ele>200</ele>
        <time>2018-01-01T18:20:11Z</time>
      </trkpt>
      <trkpt lat="62.632838397669" lon="17.97418994588">
        <ele>200</ele>
        <time>2018-01-01T18:20:12Z</time>
      </trkpt>
      <trkpt lat="62.632853568908" lon="17.974128841829">
        <ele>200</ele>
        <time>2018-01-01T18:20:13Z</time>
      </trkpt>
      <trkpt lat="62.632868823966" lon="17.974072264004">
        <ele>199.8</ele>
        <time>2018-01-01T18:20:14Z</time>
      </trkpt>
      <trkpt lat="62.632883911386" lon="17.974015350903">
        <ele>199.8</ele>
        <time>2018-01-01T18:20:15Z</time>
      </trkpt>
      <trkpt lat="62.632901345738" lon="17.973964724227">
        <ele>199.8</ele>
        <time>2018-01-01T18:20:16Z</time>
      </trkpt>
      <trkpt lat="62.632916349339" lon="17.973906553841">
        <ele>199.8</ele>
        <time>2018-01-01T18:20:17Z</time>
      </trkpt>
      <trkpt lat="62.632934118967" lon="17.973843270496">
        <ele>199.8</ele>
        <time>2018-01-01T18:20:18Z</time>
      </trkpt>
      <trkpt lat="62.632951637138" lon="17.973780406246">
        <ele>199.8</ele>
        <time>2018-01-01T18:20:19Z</time>
      </trkpt>
      <trkpt lat="62.632965383454" lon="17.973723157869">
        <ele>199.8</ele>
        <time>2018-01-01T18:20:20Z</time>
      </trkpt>
      <trkpt lat="62.632979465046" lon="17.97366942989">
        <ele>199.8</ele>
        <time>2018-01-01T18:20:21Z</time>
      </trkpt>
      <trkpt lat="62.63299673176" lon="17.973618551757">
        <ele>199.8</ele>
        <time>2018-01-01T18:20:22Z</time>
      </trkpt>
      <trkpt lat="62.633016345406" lon="17.973559710819">
        <ele>199.6</ele>
        <time>2018-01-01T18:20:23Z</time>
      </trkpt>
      <trkpt lat="62.633033276844" lon="17.973502043347">
        <ele>199.6</ele>
        <time>2018-01-01T18:20:24Z</time>
      </trkpt>
      <trkpt lat="62.633044005676" lon="17.973434066138">
        <ele>199.6</ele>
        <time>2018-01-01T18:20:25Z</time>
      </trkpt>
      <trkpt lat="62.633054818327" lon="17.973373632639">
        <ele>199.6</ele>
        <time>2018-01-01T18:20:26Z</time>
      </trkpt>
      <trkpt lat="62.633070576299" lon="17.973312947683">
        <ele>199.4</ele>
        <time>2018-01-01T18:20:27Z</time>
      </trkpt>
      <trkpt lat="62.633083819701" lon="17.973249748157">
        <ele>199.2</ele>
        <time>2018-01-01T18:20:28Z</time>
      </trkpt>
      <trkpt lat="62.633098068931" lon="17.973184536975">
        <ele>199</ele>
        <time>2018-01-01T18:20:29Z</time>
      </trkpt>
      <trkpt lat="62.63311156379" lon="17.973116559766">
        <ele>199</ele>
        <time>2018-01-01T18:20:30Z</time>
      </trkpt>
      <trkpt lat="62.633126148296" lon="17.973059814303">
        <ele>198.8</ele>
        <time>2018-01-01T18:20:31Z</time>
      </trkpt>
      <trkpt lat="62.633139726974" lon="17.972999548442">
        <ele>198.8</ele>
        <time>2018-01-01T18:20:32Z</time>
      </trkpt>
      <trkpt lat="62.633154143842" lon="17.972934421079">
        <ele>198.8</ele>
        <time>2018-01-01T18:20:33Z</time>
      </trkpt>
      <trkpt lat="62.63316436976" lon="17.97287566396">
        <ele>198.6</ele>
        <time>2018-01-01T18:20:34Z</time>
      </trkpt>
      <trkpt lat="62.633179289542" lon="17.972810788054">
        <ele>198.6</ele>
        <time>2018-01-01T18:20:35Z</time>
      </trkpt>
      <trkpt lat="62.633195634247" lon="17.97274239175">
        <ele>198.4</ele>
        <time>2018-01-01T18:20:36Z</time>
      </trkpt>
      <trkpt lat="62.63320795564" lon="17.972682293527">
        <ele>198.4</ele>
        <time>2018-01-01T18:20:37Z</time>
      </trkpt>
      <trkpt lat="62.633222959241" lon="17.972608784264">
        <ele>198.2</ele>
        <time>2018-01-01T18:20:38Z</time>
      </trkpt>
      <trkpt lat="62.633234190987" lon="17.972547009661">
        <ele>198</ele>
        <time>2018-01-01T18:20:39Z</time>
      </trkpt>
      <trkpt lat="62.633243494896" lon="17.972482636669">
        <ele>198</ele>
        <time>2018-01-01T18:20:40Z</time>
      </trkpt>
      <trkpt lat="62.633252966443" lon="17.972415330012">
        <ele>197.8</ele>
        <time>2018-01-01T18:20:41Z</time>
      </trkpt>
      <trkpt lat="62.633259001411" lon="17.972349196821">
        <ele>197.8</ele>
        <time>2018-01-01T18:20:42Z</time>
      </trkpt>
      <trkpt lat="62.63327165808" lon="17.972280632879">
        <ele>197.6</ele>
        <time>2018-01-01T18:20:43Z</time>
      </trkpt>
      <trkpt lat="62.633282135455" lon="17.972219025914">
        <ele>197.6</ele>
        <time>2018-01-01T18:20:44Z</time>
      </trkpt>
      <trkpt lat="62.633294205391" lon="17.972153060361">
        <ele>197.4</ele>
        <time>2018-01-01T18:20:45Z</time>
      </trkpt>
      <trkpt lat="62.633308119345" lon="17.972084831695">
        <ele>197.4</ele>
        <time>2018-01-01T18:20:46Z</time>
      </trkpt>
      <trkpt lat="62.633317842349" lon="17.97202406292">
        <ele>197.2</ele>
        <time>2018-01-01T18:20:47Z</time>
      </trkpt>
      <trkpt lat="62.633330582837" lon="17.971955247521">
        <ele>197</ele>
        <time>2018-01-01T18:20:48Z</time>
      </trkpt>
      <trkpt lat="62.633340305841" lon="17.971888443778">
        <ele>197</ele>
        <time>2018-01-01T18:20:49Z</time>
      </trkpt>
      <trkpt lat="62.63334625699" lon="17.971823567872">
        <ele>197</ele>
        <time>2018-01-01T18:20:50Z</time>
      </trkpt>
      <trkpt lat="62.633355728537" lon="17.971756764129">
        <ele>196.8</ele>
        <time>2018-01-01T18:20:51Z</time>
      </trkpt>
      <trkpt lat="62.633360170944" lon="17.971697504096">
        <ele>196.8</ele>
        <time>2018-01-01T18:20:52Z</time>
      </trkpt>
      <trkpt lat="62.633367379378" lon="17.971625419756">
        <ele>196.8</ele>
        <time>2018-01-01T18:20:53Z</time>
      </trkpt>
      <trkpt lat="62.633373414346" lon="17.971555682348">
        <ele>196.6</ele>
        <time>2018-01-01T18:20:54Z</time>
      </trkpt>
      <trkpt lat="62.633374839269" lon="17.971487286044">
        <ele>196.4</ele>
        <time>2018-01-01T18:20:55Z</time>
      </trkpt>
      <trkpt lat="62.633379533133" lon="17.971421907224">
        <ele>196.2</ele>
        <time>2018-01-01T18:20:56Z</time>
      </trkpt>
      <trkpt lat="62.633385735739" lon="17.971359042974">
        <ele>196.2</ele>
        <time>2018-01-01T18:20:57Z</time>
      </trkpt>
      <trkpt lat="62.633388920861" lon="17.971290227575">
        <ele>196</ele>
        <time>2018-01-01T18:20:58Z</time>
      </trkpt>
      <trkpt lat="62.633393614725" lon="17.971215377208">
        <ele>196</ele>
        <time>2018-01-01T18:20:59Z</time>
      </trkpt>
      <trkpt lat="62.633395542562" lon="17.97115234532">
        <ele>196</ele>
        <time>2018-01-01T18:21:00Z</time>
      </trkpt>
      <trkpt lat="62.633397973313" lon="17.971084116654">
        <ele>195.8</ele>
        <time>2018-01-01T18:21:01Z</time>
      </trkpt>
      <trkpt lat="62.633399482055" lon="17.971019659843">
        <ele>195.8</ele>
        <time>2018-01-01T18:21:02Z</time>
      </trkpt>
      <trkpt lat="62.633401912806" lon="17.970952939919">
        <ele>195.6</ele>
        <time>2018-01-01T18:21:03Z</time>
      </trkpt>
      <trkpt lat="62.633401326073" lon="17.970884878891">
        <ele>195.6</ele>
        <time>2018-01-01T18:21:04Z</time>
      </trkpt>
      <trkpt lat="62.633399230598" lon="17.970814722388">
        <ele>195.6</ele>
        <time>2018-01-01T18:21:05Z</time>
      </trkpt>
      <trkpt lat="62.6333957102" lon="17.970747751007">
        <ele>195.4</ele>
        <time>2018-01-01T18:21:06Z</time>
      </trkpt>
      <trkpt lat="62.633394536734" lon="17.970681031083">
        <ele>195.2</ele>
        <time>2018-01-01T18:21:07Z</time>
      </trkpt>
      <trkpt lat="62.633391854526" lon="17.970613640607">
        <ele>195</ele>
        <time>2018-01-01T18:21:08Z</time>
      </trkpt>
      <trkpt lat="62.633390848698" lon="17.970543400285">
        <ele>195</ele>
        <time>2018-01-01T18:21:09Z</time>
      </trkpt>
      <trkpt lat="62.633389675232" lon="17.970479362569">
        <ele>194.8</ele>
        <time>2018-01-01T18:21:10Z</time>
      </trkpt>
      <trkpt lat="62.633383304988" lon="17.9704164145">
        <ele>194.6</ele>
        <time>2018-01-01T18:21:11Z</time>
      </trkpt>
      <trkpt lat="62.633379365495" lon="17.970348437291">
        <ele>194.4</ele>
        <time>2018-01-01T18:21:12Z</time>
      </trkpt>
      <trkpt lat="62.633378359667" lon="17.970275263304">
        <ele>194.4</ele>
        <time>2018-01-01T18:21:13Z</time>
      </trkpt>
      <trkpt lat="62.633368636663" lon="17.970149618623">
        <ele>194.2</ele>
        <time>2018-01-01T18:21:15Z</time>
      </trkpt>
      <trkpt lat="62.63336302079" lon="17.970109888417">
        <ele>194.2</ele>
        <time>2018-01-01T18:21:16Z</time>
      </trkpt>
      <trkpt lat="62.633357572555" lon="17.970085245631">
        <ele>194</ele>
        <time>2018-01-01T18:21:17Z</time>
      </trkpt>
      <trkpt lat="62.633350867035" lon="17.970068900926">
        <ele>194</ele>
        <time>2018-01-01T18:21:18Z</time>
      </trkpt>
      <trkpt lat="62.633344412972" lon="17.97005683099">
        <ele>194</ele>
        <time>2018-01-01T18:21:19Z</time>
      </trkpt>
      <trkpt lat="62.633338042728" lon="17.970050209289">
        <ele>194</ele>
        <time>2018-01-01T18:21:20Z</time>
      </trkpt>
      <trkpt lat="62.633333935597" lon="17.970050628384">
        <ele>194</ele>
        <time>2018-01-01T18:21:21Z</time>
      </trkpt>
      <trkpt lat="62.633330750475" lon="17.97004844909">
        <ele>194</ele>
        <time>2018-01-01T18:21:22Z</time>
      </trkpt>
      <trkpt lat="62.633328487362" lon="17.970039648095">
        <ele>194</ele>
        <time>2018-01-01T18:21:23Z</time>
      </trkpt>
      <trkpt lat="62.633332510674" lon="17.970035960059">
        <ele>193.8</ele>
        <time>2018-01-01T18:21:24Z</time>
      </trkpt>
      <trkpt lat="62.633461005201" lon="17.970392358447">
        <ele>193.8</ele>
        <time>2018-01-01T18:23:33Z</time>
      </trkpt>
      <trkpt lat="62.633466537255" lon="17.970459916561">
        <ele>194</ele>
        <time>2018-01-01T18:23:34Z</time>
      </trkpt>
      <trkpt lat="62.633473829508" lon="17.970536694765">
        <ele>194</ele>
        <time>2018-01-01T18:23:35Z</time>
      </trkpt>
      <trkpt lat="62.633480283571" lon="17.970604839612">
        <ele>194</ele>
        <time>2018-01-01T18:23:36Z</time>
      </trkpt>
      <trkpt lat="62.633482211408" lon="17.970666446577">
        <ele>194</ele>
        <time>2018-01-01T18:23:37Z</time>
      </trkpt>
      <trkpt lat="62.633486737634" lon="17.970746158446">
        <ele>194.2</ele>
        <time>2018-01-01T18:23:38Z</time>
      </trkpt>
      <trkpt lat="62.633491096222" lon="17.970814387112">
        <ele>194.4</ele>
        <time>2018-01-01T18:23:39Z</time>
      </trkpt>
      <trkpt lat="62.633492688783" lon="17.970884208339">
        <ele>194.6</ele>
        <time>2018-01-01T18:23:40Z</time>
      </trkpt>
      <trkpt lat="62.633496963552" lon="17.970956627955">
        <ele>195</ele>
        <time>2018-01-01T18:23:41Z</time>
      </trkpt>
      <trkpt lat="62.633497885561" lon="17.971023850793">
        <ele>195</ele>
        <time>2018-01-01T18:23:42Z</time>
      </trkpt>
      <trkpt lat="62.633498220837" lon="17.97109367202">
        <ele>195.2</ele>
        <time>2018-01-01T18:23:43Z</time>
      </trkpt>
      <trkpt lat="62.63349713119" lon="17.971167935654">
        <ele>195.2</ele>
        <time>2018-01-01T18:23:44Z</time>
      </trkpt>
      <trkpt lat="62.633496209181" lon="17.971236248139">
        <ele>195.2</ele>
        <time>2018-01-01T18:23:45Z</time>
      </trkpt>
      <trkpt lat="62.633493443154" lon="17.97130992504">
        <ele>195.2</ele>
        <time>2018-01-01T18:23:46Z</time>
      </trkpt>
      <trkpt lat="62.633490174213" lon="17.971374130394">
        <ele>195.4</ele>
        <time>2018-01-01T18:23:47Z</time>
      </trkpt>
      <trkpt lat="62.633487994919" lon="17.971440850318">
        <ele>195.6</ele>
        <time>2018-01-01T18:23:48Z</time>
      </trkpt>
      <trkpt lat="62.633481289399" lon="17.971513521391">
        <ele>195.6</ele>
        <time>2018-01-01T18:23:49Z</time>
      </trkpt>
      <trkpt lat="62.633477182268" lon="17.971580828048">
        <ele>195.6</ele>
        <time>2018-01-01T18:23:50Z</time>
      </trkpt>
      <trkpt lat="62.633471231119" lon="17.97165442113">
        <ele>195.8</ele>
        <time>2018-01-01T18:23:51Z</time>
      </trkpt>
      <trkpt lat="62.633465782884" lon="17.97172063814">
        <ele>195.8</ele>
        <time>2018-01-01T18:23:52Z</time>
      </trkpt>
      <trkpt lat="62.633457987717" lon="17.971796997249">
        <ele>195.8</ele>
        <time>2018-01-01T18:23:53Z</time>
      </trkpt>
      <trkpt lat="62.633455305509" lon="17.971861956974">
        <ele>196.2</ele>
        <time>2018-01-01T18:23:54Z</time>
      </trkpt>
      <trkpt lat="62.633448013256" lon="17.971928676898">
        <ele>196.2</ele>
        <time>2018-01-01T18:23:55Z</time>
      </trkpt>
      <trkpt lat="62.633439044623" lon="17.971989194216">
        <ele>196.4</ele>
        <time>2018-01-01T18:23:56Z</time>
      </trkpt>
      <trkpt lat="62.633429824533" lon="17.972046274955">
        <ele>196.4</ele>
        <time>2018-01-01T18:23:57Z</time>
      </trkpt>
      <trkpt lat="62.63341917952" lon="17.972110564128">
        <ele>196.4</ele>
        <time>2018-01-01T18:23:58Z</time>
      </trkpt>
      <trkpt lat="62.63341163581" lon="17.972175942948">
        <ele>196.6</ele>
        <time>2018-01-01T18:23:59Z</time>
      </trkpt>
      <trkpt lat="62.633402248082" lon="17.972239561569">
        <ele>196.6</ele>
        <time>2018-01-01T18:24:00Z</time>
      </trkpt>
      <trkpt lat="62.633393782363" lon="17.97229815105">
        <ele>196.8</ele>
        <time>2018-01-01T18:24:01Z</time>
      </trkpt>
      <trkpt lat="62.633383807902" lon="17.972358081635">
        <ele>197</ele>
        <time>2018-01-01T18:24:02Z</time>
      </trkpt>
      <trkpt lat="62.633373833441" lon="17.972413905089">
        <ele>197.2</ele>
        <time>2018-01-01T18:24:03Z</time>
      </trkpt>
      <trkpt lat="62.633364110437" lon="17.972475679692">
        <ele>197.4</ele>
        <time>2018-01-01T18:24:04Z</time>
      </trkpt>
      <trkpt lat="62.633353130148" lon="17.972538460123">
        <ele>197.4</ele>
        <time>2018-01-01T18:24:05Z</time>
      </trkpt>
      <trkpt lat="62.63334206604" lon="17.97259738488">
        <ele>197.4</ele>
        <time>2018-01-01T18:24:06Z</time>
      </trkpt>
      <trkpt lat="62.633330079923" lon="17.972657650741">
        <ele>197.6</ele>
        <time>2018-01-01T18:24:07Z</time>
      </trkpt>
      <trkpt lat="62.633320776014" lon="17.972716491679">
        <ele>197.6</ele>
        <time>2018-01-01T18:24:08Z</time>
      </trkpt>
      <trkpt lat="62.633310885372" lon="17.972773991513">
        <ele>197.8</ele>
        <time>2018-01-01T18:24:09Z</time>
      </trkpt>
      <trkpt lat="62.633298983074" lon="17.972825121103">
        <ele>197.8</ele>
        <time>2018-01-01T18:24:10Z</time>
      </trkpt>
      <trkpt lat="62.633287918966" lon="17.972888488267">
        <ele>198</ele>
        <time>2018-01-01T18:24:11Z</time>
      </trkpt>
      <trkpt lat="62.633274088831" lon="17.972946407196">
        <ele>198.2</ele>
        <time>2018-01-01T18:24:12Z</time>
      </trkpt>
      <trkpt lat="62.633262940904" lon="17.972996028044">
        <ele>198.2</ele>
        <time>2018-01-01T18:24:13Z</time>
      </trkpt>
      <trkpt lat="62.633250870968" lon="17.973053444059">
        <ele>198.2</ele>
        <time>2018-01-01T18:24:14Z</time>
      </trkpt>
      <trkpt lat="62.633238884851" lon="17.973111362988">
        <ele>198.4</ele>
        <time>2018-01-01T18:24:15Z</time>
      </trkpt>
      <trkpt lat="62.63322723401" lon="17.973160229465">
        <ele>198.4</ele>
        <time>2018-01-01T18:24:16Z</time>
      </trkpt>
      <trkpt lat="62.633212398047" lon="17.973225859742">
        <ele>198.4</ele>
        <time>2018-01-01T18:24:17Z</time>
      </trkpt>
      <trkpt lat="62.633201501577" lon="17.973277324608">
        <ele>198.4</ele>
        <time>2018-01-01T18:24:18Z</time>
      </trkpt>
      <trkpt lat="62.633187168528" lon="17.97334421217">
        <ele>198.6</ele>
        <time>2018-01-01T18:24:19Z</time>
      </trkpt>
      <trkpt lat="62.633174511859" lon="17.973399197434">
        <ele>198.6</ele>
        <time>2018-01-01T18:24:20Z</time>
      </trkpt>
      <trkpt lat="62.633159675896" lon="17.973457116363">
        <ele>198.6</ele>
        <time>2018-01-01T18:24:21Z</time>
      </trkpt>
      <trkpt lat="62.633147186865" lon="17.973507994496">
        <ele>198.8</ele>
        <time>2018-01-01T18:24:22Z</time>
      </trkpt>
      <trkpt lat="62.633131512712" lon="17.973571864574">
        <ele>198.8</ele>
        <time>2018-01-01T18:24:23Z</time>
      </trkpt>
      <trkpt lat="62.633118101672" lon="17.973632633349">
        <ele>198.8</ele>
        <time>2018-01-01T18:24:24Z</time>
      </trkpt>
      <trkpt lat="62.633107037564" lon="17.973691641925">
        <ele>199</ele>
        <time>2018-01-01T18:24:25Z</time>
      </trkpt>
      <trkpt lat="62.633091698687" lon="17.973746711008">
        <ele>199</ele>
        <time>2018-01-01T18:24:26Z</time>
      </trkpt>
      <trkpt lat="62.633077700914" lon="17.973791721811">
        <ele>199.2</ele>
        <time>2018-01-01T18:24:27Z</time>
      </trkpt>
      <trkpt lat="62.63306211058" lon="17.973850981844">
        <ele>199.4</ele>
        <time>2018-01-01T18:24:28Z</time>
      </trkpt>
      <trkpt lat="62.633045933513" lon="17.973909403687">
        <ele>199.4</ele>
        <time>2018-01-01T18:24:29Z</time>
      </trkpt>
      <trkpt lat="62.633032438654" lon="17.973970004824">
        <ele>199.4</ele>
        <time>2018-01-01T18:24:30Z</time>
      </trkpt>
      <trkpt lat="62.633019865804" lon="17.974033036712">
        <ele>199.6</ele>
        <time>2018-01-01T18:24:31Z</time>
      </trkpt>
      <trkpt lat="62.63300762823" lon="17.974086764691">
        <ele>199.8</ele>
        <time>2018-01-01T18:24:32Z</time>
      </trkpt>
      <trkpt lat="62.632996396484" lon="17.974142839602">
        <ele>199.8</ele>
        <time>2018-01-01T18:24:33Z</time>
      </trkpt>
      <trkpt lat="62.632985583833" lon="17.974196232305">
        <ele>199.8</ele>
        <time>2018-01-01T18:24:34Z</time>
      </trkpt>
      <trkpt lat="62.632974352087" lon="17.974251804302">
        <ele>199.8</ele>
        <time>2018-01-01T18:24:35Z</time>
      </trkpt>
      <trkpt lat="62.632959264667" lon="17.97430896886">
        <ele>200</ele>
        <time>2018-01-01T18:24:36Z</time>
      </trkpt>
      <trkpt lat="62.632946943274" lon="17.97435674569">
        <ele>200</ele>
        <time>2018-01-01T18:24:37Z</time>
      </trkpt>
      <trkpt lat="62.632931436759" lon="17.974418352655">
        <ele>200.2</ele>
        <time>2018-01-01T18:24:38Z</time>
      </trkpt>
      <trkpt lat="62.632918360995" lon="17.974471242444">
        <ele>200.2</ele>
        <time>2018-01-01T18:24:39Z</time>
      </trkpt>
      <trkpt lat="62.632904782317" lon="17.974526814441">
        <ele>200.2</ele>
        <time>2018-01-01T18:24:40Z</time>
      </trkpt>
      <trkpt lat="62.632887096508" lon="17.974579117497">
        <ele>200.2</ele>
        <time>2018-01-01T18:24:41Z</time>
      </trkpt>
      <trkpt lat="62.632875697124" lon="17.974622535739">
        <ele>200.2</ele>
        <time>2018-01-01T18:24:42Z</time>
      </trkpt>
      <trkpt lat="62.632863291912" lon="17.974678023917">
        <ele>200.2</ele>
        <time>2018-01-01T18:24:43Z</time>
      </trkpt>
      <trkpt lat="62.632850467605" lon="17.974732422448">
        <ele>200.2</ele>
        <time>2018-01-01T18:24:44Z</time>
      </trkpt>
      <trkpt lat="62.632836302194" lon="17.974782294753">
        <ele>200.4</ele>
        <time>2018-01-01T18:24:45Z</time>
      </trkpt>
      <trkpt lat="62.632821466231" lon="17.974833256705">
        <ele>200.6</ele>
        <time>2018-01-01T18:24:46Z</time>
      </trkpt>
      <trkpt lat="62.63281065358" lon="17.974885308304">
        <ele>200.4</ele>
        <time>2018-01-01T18:24:47Z</time>
      </trkpt>
      <trkpt lat="62.632798751282" lon="17.974946244717">
        <ele>200.4</ele>
        <time>2018-01-01T18:24:48Z</time>
      </trkpt>
      <trkpt lat="62.632787687174" lon="17.975010114795">
        <ele>200.6</ele>
        <time>2018-01-01T18:24:49Z</time>
      </trkpt>
      <trkpt lat="62.632780981654" lon="17.975074990701">
        <ele>200.6</ele>
        <time>2018-01-01T18:24:50Z</time>
      </trkpt>
      <trkpt lat="62.632768492623" lon="17.975136932942">
        <ele>200.6</ele>
        <time>2018-01-01T18:24:51Z</time>
      </trkpt>
      <trkpt lat="62.632755584497" lon="17.975190996197">
        <ele>200.6</ele>
        <time>2018-01-01T18:24:52Z</time>
      </trkpt>
      <trkpt lat="62.632741335267" lon="17.975254782456">
        <ele>200.8</ele>
        <time>2018-01-01T18:24:53Z</time>
      </trkpt>
      <trkpt lat="62.632725912571" lon="17.975307588426">
        <ele>200.8</ele>
        <time>2018-01-01T18:24:54Z</time>
      </trkpt>
      <trkpt lat="62.632714597006" lon="17.975357796007">
        <ele>200.8</ele>
        <time>2018-01-01T18:24:55Z</time>
      </trkpt>
      <trkpt lat="62.63270085069" lon="17.975415882574">
        <ele>200.8</ele>
        <time>2018-01-01T18:24:56Z</time>
      </trkpt>
      <trkpt lat="62.632689451306" lon="17.975468856182">
        <ele>201</ele>
        <time>2018-01-01T18:24:57Z</time>
      </trkpt>
      <trkpt lat="62.632677213732" lon="17.975527445663">
        <ele>201</ele>
        <time>2018-01-01T18:24:58Z</time>
      </trkpt>
      <trkpt lat="62.63266313214" lon="17.975586621877">
        <ele>201</ele>
        <time>2018-01-01T18:24:59Z</time>
      </trkpt>
      <trkpt lat="62.632651062204" lon="17.975641104227">
        <ele>201</ele>
        <time>2018-01-01T18:25:00Z</time>
      </trkpt>
      <trkpt lat="62.632635974784" lon="17.975692988188">
        <ele>201</ele>
        <time>2018-01-01T18:25:01Z</time>
      </trkpt>
      <trkpt lat="62.632623318115" lon="17.975743028131">
        <ele>201.2</ele>
        <time>2018-01-01T18:25:02Z</time>
      </trkpt>
      <trkpt lat="62.632610242351" lon="17.97580346163">
        <ele>201</ele>
        <time>2018-01-01T18:25:03Z</time>
      </trkpt>
      <trkpt lat="62.632598256234" lon="17.975863308396">
        <ele>201.2</ele>
        <time>2018-01-01T18:25:04Z</time>
      </trkpt>
      <trkpt lat="62.632589119963" lon="17.975926927017">
        <ele>201.2</ele>
        <time>2018-01-01T18:25:05Z</time>
      </trkpt>
      <trkpt lat="62.632577720579" lon="17.975989036896">
        <ele>201.2</ele>
        <time>2018-01-01T18:25:06Z</time>
      </trkpt>
      <trkpt lat="62.63256757848" lon="17.976036729907">
        <ele>201.2</ele>
        <time>2018-01-01T18:25:07Z</time>
      </trkpt>
      <trkpt lat="62.632553245431" lon="17.976096157578">
        <ele>201.2</ele>
        <time>2018-01-01T18:25:08Z</time>
      </trkpt>
      <trkpt lat="62.632538325649" lon="17.97615550143">
        <ele>201.4</ele>
        <time>2018-01-01T18:25:09Z</time>
      </trkpt>
      <trkpt lat="62.632525333704" lon="17.976211492522">
        <ele>201.4</ele>
        <time>2018-01-01T18:25:10Z</time>
      </trkpt>
      <trkpt lat="62.632509072818" lon="17.976274440591">
        <ele>201.4</ele>
        <time>2018-01-01T18:25:11Z</time>
      </trkpt>
      <trkpt lat="62.632497757253" lon="17.976324396715">
        <ele>201.6</ele>
        <time>2018-01-01T18:25:12Z</time>
      </trkpt>
      <trkpt lat="62.632480239082" lon="17.976384494938">
        <ele>201.6</ele>
        <time>2018-01-01T18:25:13Z</time>
      </trkpt>
      <trkpt lat="62.632462720911" lon="17.976437384727">
        <ele>201.6</ele>
        <time>2018-01-01T18:25:14Z</time>
      </trkpt>
      <trkpt lat="62.632447298215" lon="17.976489687783">
        <ele>201.8</ele>
        <time>2018-01-01T18:25:15Z</time>
      </trkpt>
      <trkpt lat="62.632431707881" lon="17.976548528721">
        <ele>201.8</ele>
        <time>2018-01-01T18:25:16Z</time>
      </trkpt>
      <trkpt lat="62.632419973221" lon="17.976607202021">
        <ele>201.8</ele>
        <time>2018-01-01T18:25:17Z</time>
      </trkpt>
      <trkpt lat="62.63240748419" lon="17.976668054615">
        <ele>201.8</ele>
        <time>2018-01-01T18:25:18Z</time>
      </trkpt>
      <trkpt lat="62.632396839177" lon="17.976726141182">
        <ele>201.8</ele>
        <time>2018-01-01T18:25:19Z</time>
      </trkpt>
      <trkpt lat="62.632384266327" lon="17.976785317396">
        <ele>202</ele>
        <time>2018-01-01T18:25:20Z</time>
      </trkpt>
      <trkpt lat="62.632370184735" lon="17.976837871909">
        <ele>202</ele>
        <time>2018-01-01T18:25:21Z</time>
      </trkpt>
      <trkpt lat="62.632360042636" lon="17.976886906024">
        <ele>202</ele>
        <time>2018-01-01T18:25:22Z</time>
      </trkpt>
      <trkpt lat="62.632342775922" lon="17.976951195197">
        <ele>202</ele>
        <time>2018-01-01T18:25:23Z</time>
      </trkpt>
      <trkpt lat="62.632329867796" lon="17.977003833529">
        <ele>202</ele>
        <time>2018-01-01T18:25:24Z</time>
      </trkpt>
      <trkpt lat="62.632312517263" lon="17.977060914268">
        <ele>202.2</ele>
        <time>2018-01-01T18:25:25Z</time>
      </trkpt>
      <trkpt lat="62.632297765119" lon="17.977117324455">
        <ele>202.2</ele>
        <time>2018-01-01T18:25:26Z</time>
      </trkpt>
      <trkpt lat="62.632284521717" lon="17.977167615855">
        <ele>202.2</ele>
        <time>2018-01-01T18:25:27Z</time>
      </trkpt>
      <trkpt lat="62.632269266659" lon="17.977224528956">
        <ele>202.4</ele>
        <time>2018-01-01T18:25:28Z</time>
      </trkpt>
      <trkpt lat="62.632258621646" lon="17.977277921659">
        <ele>202.4</ele>
        <time>2018-01-01T18:25:29Z</time>
      </trkpt>
      <trkpt lat="62.632247306081" lon="17.977333745113">
        <ele>202.2</ele>
        <time>2018-01-01T18:25:30Z</time>
      </trkpt>
      <trkpt lat="62.632236074335" lon="17.977385293798">
        <ele>202.4</ele>
        <time>2018-01-01T18:25:31Z</time>
      </trkpt>
      <trkpt lat="62.632226770426" lon="17.977434327913">
        <ele>202.4</ele>
        <time>2018-01-01T18:25:32Z</time>
      </trkpt>
      <trkpt lat="62.632212605015" lon="17.977487888254">
        <ele>202.6</ele>
        <time>2018-01-01T18:25:33Z</time>
      </trkpt>
      <trkpt lat="62.632202043821" lon="17.977541113319">
        <ele>202.6</ele>
        <time>2018-01-01T18:25:34Z</time>
      </trkpt>
      <trkpt lat="62.632188800419" lon="17.977601882094">
        <ele>202.8</ele>
        <time>2018-01-01T18:25:35Z</time>
      </trkpt>
      <trkpt lat="62.632181508166" lon="17.977647647268">
        <ele>202.8</ele>
        <time>2018-01-01T18:25:36Z</time>
      </trkpt>
      <trkpt lat="62.632170695515" lon="17.977714870106">
        <ele>202.8</ele>
        <time>2018-01-01T18:25:37Z</time>
      </trkpt>
      <trkpt lat="62.632156362466" lon="17.977773627225">
        <ele>202.8</ele>
        <time>2018-01-01T18:25:38Z</time>
      </trkpt>
      <trkpt lat="62.632145382177" lon="17.977824756815">
        <ele>202.8</ele>
        <time>2018-01-01T18:25:39Z</time>
      </trkpt>
      <trkpt lat="62.63212920511" lon="17.977881083183">
        <ele>203</ele>
        <time>2018-01-01T18:25:40Z</time>
      </trkpt>
      <trkpt lat="62.632115877889" lon="17.977936738999">
        <ele>203</ele>
        <time>2018-01-01T18:25:41Z</time>
      </trkpt>
      <trkpt lat="62.632102131573" lon="17.977990718435">
        <ele>203</ele>
        <time>2018-01-01T18:25:42Z</time>
      </trkpt>
      <trkpt lat="62.632088217619" lon="17.978051906305">
        <ele>203</ele>
        <time>2018-01-01T18:25:43Z</time>
      </trkpt>
      <trkpt lat="62.632077572606" lon="17.978110076691">
        <ele>203.2</ele>
        <time>2018-01-01T18:25:44Z</time>
      </trkpt>
      <trkpt lat="62.632062066091" lon="17.978168414715">
        <ele>203.2</ele>
        <time>2018-01-01T18:25:45Z</time>
      </trkpt>
      <trkpt lat="62.632049912336" lon="17.978223567617">
        <ele>203.4</ele>
        <time>2018-01-01T18:25:46Z</time>
      </trkpt>
      <trkpt lat="62.632036668934" lon="17.978277966148">
        <ele>203.4</ele>
        <time>2018-01-01T18:25:47Z</time>
      </trkpt>
      <trkpt lat="62.632023090256" lon="17.978332867593">
        <ele>203.4</ele>
        <time>2018-01-01T18:25:48Z</time>
      </trkpt>
      <trkpt lat="62.63200934394" lon="17.978391373255">
        <ele>203.4</ele>
        <time>2018-01-01T18:25:49Z</time>
      </trkpt>
      <trkpt lat="62.631993585968" lon="17.978447280528">
        <ele>203.6</ele>
        <time>2018-01-01T18:25:50Z</time>
      </trkpt>
      <trkpt lat="62.631979839652" lon="17.97849824248">
        <ele>203.6</ele>
        <time>2018-01-01T18:25:51Z</time>
      </trkpt>
      <trkpt lat="62.631970116648" lon="17.978548869156">
        <ele>203.6</ele>
        <time>2018-01-01T18:25:52Z</time>
      </trkpt>
      <trkpt lat="62.631955951237" lon="17.978608213008">
        <ele>203.8</ele>
        <time>2018-01-01T18:25:53Z</time>
      </trkpt>
      <trkpt lat="62.631946060595" lon="17.978656408933">
        <ele>203.8</ele>
        <time>2018-01-01T18:25:54Z</time>
      </trkpt>
      <trkpt lat="62.631932984831" lon="17.978702006469">
        <ele>203.8</ele>
        <time>2018-01-01T18:25:55Z</time>
      </trkpt>
      <trkpt lat="62.631918232687" lon="17.978759673941">
        <ele>204</ele>
        <time>2018-01-01T18:25:56Z</time>
      </trkpt>
      <trkpt lat="62.631905911294" lon="17.97880921097">
        <ele>204</ele>
        <time>2018-01-01T18:25:57Z</time>
      </trkpt>
      <trkpt lat="62.631892332616" lon="17.978865285881">
        <ele>204</ele>
        <time>2018-01-01T18:25:58Z</time>
      </trkpt>
      <trkpt lat="62.631883866897" lon="17.978927731036">
        <ele>204</ele>
        <time>2018-01-01T18:25:59Z</time>
      </trkpt>
      <trkpt lat="62.631870036762" lon="17.978997133168">
        <ele>204</ele>
        <time>2018-01-01T18:26:00Z</time>
      </trkpt>
      <trkpt lat="62.631859391749" lon="17.979056393201">
        <ele>204.2</ele>
        <time>2018-01-01T18:26:01Z</time>
      </trkpt>
      <trkpt lat="62.631845729252" lon="17.97911347394">
        <ele>204.2</ele>
        <time>2018-01-01T18:26:02Z</time>
      </trkpt>
      <trkpt lat="62.631829216909" lon="17.979174242715">
        <ele>204.2</ele>
        <time>2018-01-01T18:26:03Z</time>
      </trkpt>
      <trkpt lat="62.631813961851" lon="17.979239034802">
        <ele>204.4</ele>
        <time>2018-01-01T18:26:04Z</time>
      </trkpt>
      <trkpt lat="62.631797365689" lon="17.979299049206">
        <ele>204.4</ele>
        <time>2018-01-01T18:26:05Z</time>
      </trkpt>
      <trkpt lat="62.631783535554" lon="17.979359482705">
        <ele>204.4</ele>
        <time>2018-01-01T18:26:06Z</time>
      </trkpt>
      <trkpt lat="62.631770040695" lon="17.979418491281">
        <ele>204.4</ele>
        <time>2018-01-01T18:26:07Z</time>
      </trkpt>
      <trkpt lat="62.631752773981" lon="17.979486300852">
        <ele>204.6</ele>
        <time>2018-01-01T18:26:08Z</time>
      </trkpt>
      <trkpt lat="62.631736764552" lon="17.979542543401">
        <ele>204.6</ele>
        <time>2018-01-01T18:26:09Z</time>
      </trkpt>
      <trkpt lat="62.631717150906" lon="17.979590571688">
        <ele>204.8</ele>
        <time>2018-01-01T18:26:10Z</time>
      </trkpt>
      <trkpt lat="62.631696196156" lon="17.979647149513">
        <ele>204.8</ele>
        <time>2018-01-01T18:26:11Z</time>
      </trkpt>
      <trkpt lat="62.631675073768" lon="17.979698195284">
        <ele>204.8</ele>
        <time>2018-01-01T18:26:12Z</time>
      </trkpt>
      <trkpt lat="62.631647581136" lon="17.979746223571">
        <ele>205</ele>
        <time>2018-01-01T18:26:13Z</time>
      </trkpt>
      <trkpt lat="62.631622183979" lon="17.979786456691">
        <ele>205</ele>
        <time>2018-01-01T18:26:14Z</time>
      </trkpt>
      <trkpt lat="62.631593517881" lon="17.979814033142">
        <ele>205</ele>
        <time>2018-01-01T18:26:15Z</time>
      </trkpt>
      <trkpt lat="62.631566025249" lon="17.979838340652">
        <ele>205</ele>
        <time>2018-01-01T18:26:16Z</time>
      </trkpt>
      <trkpt lat="62.631538532617" lon="17.979857954298">
        <ele>205</ele>
        <time>2018-01-01T18:26:17Z</time>
      </trkpt>
      <trkpt lat="62.631510117976" lon="17.979889051147">
        <ele>205</ele>
        <time>2018-01-01T18:26:18Z</time>
      </trkpt>
      <trkpt lat="62.631492767443" lon="17.979922578747">
        <ele>205.2</ele>
        <time>2018-01-01T18:26:19Z</time>
      </trkpt>
      <trkpt lat="62.631483714991" lon="17.979972534871">
        <ele>205.2</ele>
        <time>2018-01-01T18:26:20Z</time>
      </trkpt>
      <trkpt lat="62.631494024728" lon="17.980030118524">
        <ele>205.4</ele>
        <time>2018-01-01T18:26:21Z</time>
      </trkpt>
      <trkpt lat="62.631507938682" lon="17.980073033852">
        <ele>205.4</ele>
        <time>2018-01-01T18:26:22Z</time>
      </trkpt>
      <trkpt lat="62.631532749106" lon="17.980101867588">
        <ele>205.4</ele>
        <time>2018-01-01T18:26:23Z</time>
      </trkpt>
      <trkpt lat="62.631557643349" lon="17.980101113217">
        <ele>205.4</ele>
        <time>2018-01-01T18:26:24Z</time>
      </trkpt>
      <trkpt lat="62.631580861212" lon="17.980062221201">
        <ele>205.4</ele>
        <time>2018-01-01T18:26:25Z</time>
      </trkpt>
      <trkpt lat="62.631593936976" lon="17.97999860258">
        <ele>205.2</ele>
        <time>2018-01-01T18:26:26Z</time>
      </trkpt>
      <trkpt lat="62.631604749627" lon="17.979946383343">
        <ele>205.2</ele>
        <time>2018-01-01T18:26:27Z</time>
      </trkpt>
      <trkpt lat="62.631622603074" lon="17.979877484125">
        <ele>205</ele>
        <time>2018-01-01T18:26:28Z</time>
      </trkpt>
      <trkpt lat="62.63163970215" lon="17.979822331223">
        <ele>205.2</ele>
        <time>2018-01-01T18:26:29Z</time>
      </trkpt>
      <trkpt lat="62.631654621932" lon="17.979757790593">
        <ele>205</ele>
        <time>2018-01-01T18:26:30Z</time>
      </trkpt>
      <trkpt lat="62.631674487035" lon="17.979699704026">
        <ele>205</ele>
        <time>2018-01-01T18:26:31Z</time>
      </trkpt>
      <trkpt lat="62.631682952754" lon="17.979626278582">
        <ele>205</ele>
        <time>2018-01-01T18:26:32Z</time>
      </trkpt>
      <trkpt lat="62.63169334631" lon="17.979556373536">
        <ele>205</ele>
        <time>2018-01-01T18:26:33Z</time>
      </trkpt>
      <trkpt lat="62.631707176445" lon="17.979489988888">
        <ele>205</ele>
        <time>2018-01-01T18:26:34Z</time>
      </trkpt>
      <trkpt lat="62.631719078743" lon="17.979419161833">
        <ele>205</ele>
        <time>2018-01-01T18:26:35Z</time>
      </trkpt>
      <trkpt lat="62.631732992697" lon="17.97935319628">
        <ele>204.8</ele>
        <time>2018-01-01T18:26:36Z</time>
      </trkpt>
      <trkpt lat="62.631740871683" lon="17.979292092229">
        <ele>204.8</ele>
        <time>2018-01-01T18:26:37Z</time>
      </trkpt>
      <trkpt lat="62.631745817004" lon="17.979217577138">
        <ele>204.8</ele>
        <time>2018-01-01T18:26:38Z</time>
      </trkpt>
      <trkpt lat="62.631755623827" lon="17.979145576617">
        <ele>204.6</ele>
        <time>2018-01-01T18:26:39Z</time>
      </trkpt>
      <trkpt lat="62.631764173365" lon="17.97908916643">
        <ele>204.6</ele>
        <time>2018-01-01T18:26:40Z</time>
      </trkpt>
      <trkpt lat="62.631778087319" lon="17.979021356859">
        <ele>204.6</ele>
        <time>2018-01-01T18:26:41Z</time>
      </trkpt>
      <trkpt lat="62.631792839463" lon="17.978966287776">
        <ele>204.6</ele>
        <time>2018-01-01T18:26:42Z</time>
      </trkpt>
      <trkpt lat="62.631802143372" lon="17.978895376902">
        <ele>204.6</ele>
        <time>2018-01-01T18:26:43Z</time>
      </trkpt>
      <trkpt lat="62.631815470593" lon="17.97883687124">
        <ele>204.4</ele>
        <time>2018-01-01T18:26:44Z</time>
      </trkpt>
      <trkpt lat="62.631829468366" lon="17.978775264275">
        <ele>204.4</ele>
        <time>2018-01-01T18:26:45Z</time>
      </trkpt>
      <trkpt lat="62.631841035388" lon="17.978715668966">
        <ele>204.4</ele>
        <time>2018-01-01T18:26:46Z</time>
      </trkpt>
      <trkpt lat="62.631855619894" lon="17.978654229639">
        <ele>204.2</ele>
        <time>2018-01-01T18:26:47Z</time>
      </trkpt>
      <trkpt lat="62.631869450029" lon="17.978590108104">
        <ele>204.2</ele>
        <time>2018-01-01T18:26:48Z</time>
      </trkpt>
      <trkpt lat="62.631879759766" lon="17.978521125067">
        <ele>204.2</ele>
        <time>2018-01-01T18:26:49Z</time>
      </trkpt>
      <trkpt lat="62.631896272109" lon="17.978457254989">
        <ele>204.2</ele>
        <time>2018-01-01T18:26:50Z</time>
      </trkpt>
      <trkpt lat="62.631909096416" lon="17.978402772639">
        <ele>204.2</ele>
        <time>2018-01-01T18:26:51Z</time>
      </trkpt>
      <trkpt lat="62.631920579619" lon="17.978347452099">
        <ele>204</ele>
        <time>2018-01-01T18:26:52Z</time>
      </trkpt>
      <trkpt lat="62.631931811365" lon="17.978270925352">
        <ele>204</ele>
        <time>2018-01-01T18:26:53Z</time>
      </trkpt>
      <trkpt lat="62.631943797482" lon="17.97820990512">
        <ele>204</ele>
        <time>2018-01-01T18:26:54Z</time>
      </trkpt>
      <trkpt lat="62.631962153843" lon="17.978152405286">
        <ele>204</ele>
        <time>2018-01-01T18:26:55Z</time>
      </trkpt>
      <trkpt lat="62.63198000729" lon="17.978100605144">
        <ele>203.8</ele>
        <time>2018-01-01T18:26:56Z</time>
      </trkpt>
      <trkpt lat="62.631994843253" lon="17.978048637364">
        <ele>203.8</ele>
        <time>2018-01-01T18:26:57Z</time>
      </trkpt>
      <trkpt lat="62.632013283433" lon="17.977984012915">
        <ele>203.6</ele>
        <time>2018-01-01T18:26:58Z</time>
      </trkpt>
      <trkpt lat="62.63202862231" lon="17.977921316303">
        <ele>203.6</ele>
        <time>2018-01-01T18:26:59Z</time>
      </trkpt>
      <trkpt lat="62.63204454792" lon="17.977859122605">
        <ele>203.4</ele>
        <time>2018-01-01T18:27:00Z</time>
      </trkpt>
      <trkpt lat="62.632064077747" lon="17.97780422116">
        <ele>203.4</ele>
        <time>2018-01-01T18:27:01Z</time>
      </trkpt>
      <trkpt lat="62.632077907882" lon="17.977750577">
        <ele>203.4</ele>
        <time>2018-01-01T18:27:02Z</time>
      </trkpt>
      <trkpt lat="62.632095006958" lon="17.97768771275">
        <ele>203.2</ele>
        <time>2018-01-01T18:27:03Z</time>
      </trkpt>
      <trkpt lat="62.632106657799" lon="17.97762987764">
        <ele>203.2</ele>
        <time>2018-01-01T18:27:04Z</time>
      </trkpt>
      <trkpt lat="62.632121829038" lon="17.97755863149">
        <ele>203.2</ele>
        <time>2018-01-01T18:27:05Z</time>
      </trkpt>
      <trkpt lat="62.632134904802" lon="17.977482607657">
        <ele>203</ele>
        <time>2018-01-01T18:27:06Z</time>
      </trkpt>
      <trkpt lat="62.632148818756" lon="17.977421252149">
        <ele>203</ele>
        <time>2018-01-01T18:27:07Z</time>
      </trkpt>
      <trkpt lat="62.632160721054" lon="17.977351011827">
        <ele>202.8</ele>
        <time>2018-01-01T18:27:08Z</time>
      </trkpt>
      <trkpt lat="62.632169354411" lon="17.977288901948">
        <ele>202.8</ele>
        <time>2018-01-01T18:27:09Z</time>
      </trkpt>
      <trkpt lat="62.632181591985" lon="17.977233749046">
        <ele>202.6</ele>
        <time>2018-01-01T18:27:10Z</time>
      </trkpt>
      <trkpt lat="62.632194164835" lon="17.977163927819">
        <ele>202.6</ele>
        <time>2018-01-01T18:27:11Z</time>
      </trkpt>
      <trkpt lat="62.632207659694" lon="17.977111121849">
        <ele>202.6</ele>
        <time>2018-01-01T18:27:12Z</time>
      </trkpt>
      <trkpt lat="62.63222475877" lon="17.977038534595">
        <ele>202.6</ele>
        <time>2018-01-01T18:27:13Z</time>
      </trkpt>
      <trkpt lat="62.632240600561" lon="17.976987153548">
        <ele>202.6</ele>
        <time>2018-01-01T18:27:14Z</time>
      </trkpt>
      <trkpt lat="62.632256693809" lon="17.976923451108">
        <ele>202.4</ele>
        <time>2018-01-01T18:27:15Z</time>
      </trkpt>
      <trkpt lat="62.632273876704" lon="17.976861844143">
        <ele>202.4</ele>
        <time>2018-01-01T18:27:16Z</time>
      </trkpt>
      <trkpt lat="62.632282761518" lon="17.976800404816">
        <ele>202.4</ele>
        <time>2018-01-01T18:27:17Z</time>
      </trkpt>
      <trkpt lat="62.632297765119" lon="17.976735193634">
        <ele>202.2</ele>
        <time>2018-01-01T18:27:18Z</time>
      </trkpt>
      <trkpt lat="62.632312098168" lon="17.97667601742">
        <ele>202.2</ele>
        <time>2018-01-01T18:27:19Z</time>
      </trkpt>
      <trkpt lat="62.632326682674" lon="17.976615500102">
        <ele>202</ele>
        <time>2018-01-01T18:27:20Z</time>
      </trkpt>
      <trkpt lat="62.632342189189" lon="17.976548947816">
        <ele>202</ele>
        <time>2018-01-01T18:27:21Z</time>
      </trkpt>
      <trkpt lat="62.632351912193" lon="17.976496980036">
        <ele>201.8</ele>
        <time>2018-01-01T18:27:22Z</time>
      </trkpt>
      <trkpt lat="62.63236725107" lon="17.976436546537">
        <ele>201.8</ele>
        <time>2018-01-01T18:27:23Z</time>
      </trkpt>
      <trkpt lat="62.632381835576" lon="17.976374855753">
        <ele>201.8</ele>
        <time>2018-01-01T18:27:24Z</time>
      </trkpt>
      <trkpt lat="62.632392732046" lon="17.976322636516">
        <ele>201.8</ele>
        <time>2018-01-01T18:27:25Z</time>
      </trkpt>
      <trkpt lat="62.632409831122" lon="17.976261783922">
        <ele>201.6</ele>
        <time>2018-01-01T18:27:26Z</time>
      </trkpt>
      <trkpt lat="62.63242424799" lon="17.976207301572">
        <ele>201.6</ele>
        <time>2018-01-01T18:27:27Z</time>
      </trkpt>
      <trkpt lat="62.632437826668" lon="17.976140497829">
        <ele>201.6</ele>
        <time>2018-01-01T18:27:28Z</time>
      </trkpt>
      <trkpt lat="62.632452327355" lon="17.976065396005">
        <ele>201.6</ele>
        <time>2018-01-01T18:27:29Z</time>
      </trkpt>
      <trkpt lat="62.632466073671" lon="17.975998927538">
        <ele>201.6</ele>
        <time>2018-01-01T18:27:30Z</time>
      </trkpt>
      <trkpt lat="62.632481831643" lon="17.975931872338">
        <ele>201.6</ele>
        <time>2018-01-01T18:27:31Z</time>
      </trkpt>
      <trkpt lat="62.632495158864" lon="17.975869594821">
        <ele>201.4</ele>
        <time>2018-01-01T18:27:32Z</time>
      </trkpt>
      <trkpt lat="62.63251058156" lon="17.975801533793">
        <ele>201.4</ele>
        <time>2018-01-01T18:27:33Z</time>
      </trkpt>
      <trkpt lat="62.632527177722" lon="17.975735652059">
        <ele>201.4</ele>
        <time>2018-01-01T18:27:34Z</time>
      </trkpt>
      <trkpt lat="62.632540169667" lon="17.975658957674">
        <ele>201.2</ele>
        <time>2018-01-01T18:27:35Z</time>
      </trkpt>
      <trkpt lat="62.632556765829" lon="17.975593997949">
        <ele>201.2</ele>
        <time>2018-01-01T18:27:36Z</time>
      </trkpt>
      <trkpt lat="62.632573110534" lon="17.975532307165">
        <ele>201.2</ele>
        <time>2018-01-01T18:27:37Z</time>
      </trkpt>
      <trkpt lat="62.63258769504" lon="17.975454439314">
        <ele>201</ele>
        <time>2018-01-01T18:27:38Z</time>
      </trkpt>
      <trkpt lat="62.632603453012" lon="17.975385875372">
        <ele>201</ele>
        <time>2018-01-01T18:27:39Z</time>
      </trkpt>
      <trkpt lat="62.6326161935" lon="17.975322592027">
        <ele>201</ele>
        <time>2018-01-01T18:27:40Z</time>
      </trkpt>
      <trkpt lat="62.63263379549" lon="17.975246484375">
        <ele>200.8</ele>
        <time>2018-01-01T18:27:41Z</time>
      </trkpt>
      <trkpt lat="62.632650726928" lon="17.975182865754">
        <ele>200.8</ele>
        <time>2018-01-01T18:27:42Z</time>
      </trkpt>
      <trkpt lat="62.632662713045" lon="17.975104494989">
        <ele>200.8</ele>
        <time>2018-01-01T18:27:43Z</time>
      </trkpt>
      <trkpt lat="62.632676878456" lon="17.97502981226">
        <ele>200.8</ele>
        <time>2018-01-01T18:27:44Z</time>
      </trkpt>
      <trkpt lat="62.632690540953" lon="17.974957308825">
        <ele>200.8</ele>
        <time>2018-01-01T18:27:45Z</time>
      </trkpt>
      <trkpt lat="62.632706634201" lon="17.97488899634">
        <ele>200.8</ele>
        <time>2018-01-01T18:27:46Z</time>
      </trkpt>
      <trkpt lat="62.632722978906" lon="17.974827892289">
        <ele>200.8</ele>
        <time>2018-01-01T18:27:47Z</time>
      </trkpt>
      <trkpt lat="62.632742173457" lon="17.974762094374">
        <ele>200.6</ele>
        <time>2018-01-01T18:27:48Z</time>
      </trkpt>
      <trkpt lat="62.632759021076" lon="17.974690429129">
        <ele>200.6</ele>
        <time>2018-01-01T18:27:49Z</time>
      </trkpt>
      <trkpt lat="62.632775701057" lon="17.974626726689">
        <ele>200.6</ele>
        <time>2018-01-01T18:27:50Z</time>
      </trkpt>
      <trkpt lat="62.632791794305" lon="17.974559839127">
        <ele>200.6</ele>
        <time>2018-01-01T18:27:51Z</time>
      </trkpt>
      <trkpt lat="62.632805037707" lon="17.974498064524">
        <ele>200.4</ele>
        <time>2018-01-01T18:27:52Z</time>
      </trkpt>
      <trkpt lat="62.632820879498" lon="17.974430171134">
        <ele>200.4</ele>
        <time>2018-01-01T18:27:53Z</time>
      </trkpt>
      <trkpt lat="62.632837727117" lon="17.974366133418">
        <ele>200.4</ele>
        <time>2018-01-01T18:27:54Z</time>
      </trkpt>
      <trkpt lat="62.632851641071" lon="17.974317434579">
        <ele>200.2</ele>
        <time>2018-01-01T18:27:55Z</time>
      </trkpt>
      <trkpt lat="62.632871087079" lon="17.974257923089">
        <ele>200.2</ele>
        <time>2018-01-01T18:27:56Z</time>
      </trkpt>
      <trkpt lat="62.63288776706" lon="17.974196735219">
        <ele>200.2</ele>
        <time>2018-01-01T18:27:57Z</time>
      </trkpt>
      <trkpt lat="62.632902603023" lon="17.974133032779">
        <ele>200.2</ele>
        <time>2018-01-01T18:27:58Z</time>
      </trkpt>
      <trkpt lat="62.632919450642" lon="17.974062373362">
        <ele>200.2</ele>
        <time>2018-01-01T18:27:59Z</time>
      </trkpt>
      <trkpt lat="62.632935040976" lon="17.974004370614">
        <ele>200.2</ele>
        <time>2018-01-01T18:28:00Z</time>
      </trkpt>
      <trkpt lat="62.632947362369" lon="17.97394100345">
        <ele>200.2</ele>
        <time>2018-01-01T18:28:01Z</time>
      </trkpt>
      <trkpt lat="62.632962533608" lon="17.973879564123">
        <ele>200</ele>
        <time>2018-01-01T18:28:02Z</time>
      </trkpt>
      <trkpt lat="62.632981057607" lon="17.973818879167">
        <ele>200</ele>
        <time>2018-01-01T18:28:03Z</time>
      </trkpt>
      <trkpt lat="62.632997486131" lon="17.973760708781">
        <ele>200</ele>
        <time>2018-01-01T18:28:04Z</time>
      </trkpt>
      <trkpt lat="62.633012489732" lon="17.973691893382">
        <ele>199.8</ele>
        <time>2018-01-01T18:28:05Z</time>
      </trkpt>
      <trkpt lat="62.633021206908" lon="17.973619054671">
        <ele>199.6</ele>
        <time>2018-01-01T18:28:06Z</time>
      </trkpt>
      <trkpt lat="62.633034701767" lon="17.973553089118">
        <ele>199.6</ele>
        <time>2018-01-01T18:28:07Z</time>
      </trkpt>
      <trkpt lat="62.633057249078" lon="17.973453344508">
        <ele>199.6</ele>
        <time>2018-01-01T18:28:08Z</time>
      </trkpt>
      <trkpt lat="62.633067642634" lon="17.973400622357">
        <ele>199.6</ele>
        <time>2018-01-01T18:28:09Z</time>
      </trkpt>
      <trkpt lat="62.633090022307" lon="17.973309175828">
        <ele>199.4</ele>
        <time>2018-01-01T18:28:10Z</time>
      </trkpt>
      <trkpt lat="62.633105361184" lon="17.97324698213">
        <ele>199.4</ele>
        <time>2018-01-01T18:28:11Z</time>
      </trkpt>
      <trkpt lat="62.633114329817" lon="17.973191074857">
        <ele>199.4</ele>
        <time>2018-01-01T18:28:12Z</time>
      </trkpt>
      <trkpt lat="62.633134362558" lon="17.973120834535">
        <ele>199.2</ele>
        <time>2018-01-01T18:28:13Z</time>
      </trkpt>
      <trkpt lat="62.633149701435" lon="17.973050929489">
        <ele>199</ele>
        <time>2018-01-01T18:28:14Z</time>
      </trkpt>
      <trkpt lat="62.633164956493" lon="17.972991250361">
        <ele>198.8</ele>
        <time>2018-01-01T18:28:15Z</time>
      </trkpt>
      <trkpt lat="62.633182223207" lon="17.972928637568">
        <ele>198.8</ele>
        <time>2018-01-01T18:28:16Z</time>
      </trkpt>
      <trkpt lat="62.633194879876" lon="17.972867952612">
        <ele>198.6</ele>
        <time>2018-01-01T18:28:17Z</time>
      </trkpt>
      <trkpt lat="62.633211476038" lon="17.972790084761">
        <ele>198.6</ele>
        <time>2018-01-01T18:28:18Z</time>
      </trkpt>
      <trkpt lat="62.633224216526" lon="17.972706517218">
        <ele>198.6</ele>
        <time>2018-01-01T18:28:19Z</time>
      </trkpt>
      <trkpt lat="62.633236621738" lon="17.972637618">
        <ele>198.4</ele>
        <time>2018-01-01T18:28:20Z</time>
      </trkpt>
      <trkpt lat="62.633254223728" lon="17.972561175072">
        <ele>198.4</ele>
        <time>2018-01-01T18:28:21Z</time>
      </trkpt>
      <trkpt lat="62.63326495256" lon="17.97249931665">
        <ele>198.2</ele>
        <time>2018-01-01T18:28:22Z</time>
      </trkpt>
      <trkpt lat="62.633277190134" lon="17.972421700256">
        <ele>198</ele>
        <time>2018-01-01T18:28:23Z</time>
      </trkpt>
      <trkpt lat="62.633288924794" lon="17.972355567065">
        <ele>197.8</ele>
        <time>2018-01-01T18:28:24Z</time>
      </trkpt>
      <trkpt lat="62.633298983074" lon="17.972293038091">
        <ele>197.8</ele>
        <time>2018-01-01T18:28:25Z</time>
      </trkpt>
      <trkpt lat="62.633310382458" lon="17.972218606819">
        <ele>197.6</ele>
        <time>2018-01-01T18:28:26Z</time>
      </trkpt>
      <trkpt lat="62.633320021643" lon="17.972150042877">
        <ele>197.6</ele>
        <time>2018-01-01T18:28:27Z</time>
      </trkpt>
      <trkpt lat="62.633327397715" lon="17.972064463678">
        <ele>197.6</ele>
        <time>2018-01-01T18:28:28Z</time>
      </trkpt>
      <trkpt lat="62.633336366348" lon="17.971987853112">
        <ele>197.4</ele>
        <time>2018-01-01T18:28:29Z</time>
      </trkpt>
      <trkpt lat="62.633330582837" lon="17.971913673297">
        <ele>197.4</ele>
        <time>2018-01-01T18:28:30Z</time>
      </trkpt>
      <trkpt lat="62.633332510674" lon="17.971828513193">
        <ele>197.2</ele>
        <time>2018-01-01T18:28:31Z</time>
      </trkpt>
      <trkpt lat="62.633334270873" lon="17.971759781613">
        <ele>197.2</ele>
        <time>2018-01-01T18:28:32Z</time>
      </trkpt>
      <trkpt lat="62.633342149859" lon="17.971675124423">
        <ele>197</ele>
        <time>2018-01-01T18:28:33Z</time>
      </trkpt>
      <trkpt lat="62.633353549243" lon="17.9715982624">
        <ele>196.6</ele>
        <time>2018-01-01T18:28:34Z</time>
      </trkpt>
      <trkpt lat="62.633360757677" lon="17.971525004594">
        <ele>196.6</ele>
        <time>2018-01-01T18:28:35Z</time>
      </trkpt>
      <trkpt lat="62.633367547016" lon="17.971450238046">
        <ele>196.4</ele>
        <time>2018-01-01T18:28:36Z</time>
      </trkpt>
      <trkpt lat="62.633366708826" lon="17.971392235298">
        <ele>196.4</ele>
        <time>2018-01-01T18:28:37Z</time>
      </trkpt>
      <trkpt lat="62.633365451541" lon="17.97131076323">
        <ele>196.2</ele>
        <time>2018-01-01T18:28:38Z</time>
      </trkpt>
      <trkpt lat="62.633370061586" lon="17.971236499596">
        <ele>196.2</ele>
        <time>2018-01-01T18:28:39Z</time>
      </trkpt>
      <trkpt lat="62.633373414346" lon="17.971160643401">
        <ele>196</ele>
        <time>2018-01-01T18:28:40Z</time>
      </trkpt>
      <trkpt lat="62.633377856753" lon="17.97108445193">
        <ele>195.8</ele>
        <time>2018-01-01T18:28:41Z</time>
      </trkpt>
      <trkpt lat="62.633378527305" lon="17.97102326406">
        <ele>195.8</ele>
        <time>2018-01-01T18:28:42Z</time>
      </trkpt>
      <trkpt lat="62.633376683287" lon="17.970953107557">
        <ele>195.6</ele>
        <time>2018-01-01T18:28:43Z</time>
      </trkpt>
      <trkpt lat="62.633376515649" lon="17.970878173371">
        <ele>195.6</ele>
        <time>2018-01-01T18:28:44Z</time>
      </trkpt>
      <trkpt lat="62.633377689115" lon="17.970809441791">
        <ele>195.4</ele>
        <time>2018-01-01T18:28:45Z</time>
      </trkpt>
      <trkpt lat="62.63337559364" lon="17.970730568112">
        <ele>195.2</ele>
        <time>2018-01-01T18:28:46Z</time>
      </trkpt>
      <trkpt lat="62.633376683287" lon="17.970663345274">
        <ele>195</ele>
        <time>2018-01-01T18:28:47Z</time>
      </trkpt>
      <trkpt lat="62.633370145405" lon="17.970581705568">
        <ele>194.8</ele>
        <time>2018-01-01T18:28:48Z</time>
      </trkpt>
      <trkpt lat="62.633370145405" lon="17.97050442445">
        <ele>194.8</ele>
        <time>2018-01-01T18:28:49Z</time>
      </trkpt>
      <trkpt lat="62.633364110437" lon="17.970433932671">
        <ele>194.6</ele>
        <time>2018-01-01T18:28:50Z</time>
      </trkpt>
      <trkpt lat="62.633358243107" lon="17.970354053164">
        <ele>194.6</ele>
        <time>2018-01-01T18:28:51Z</time>
      </trkpt>
      <trkpt lat="62.633349190655" lon="17.97028984781">
        <ele>194.6</ele>
        <time>2018-01-01T18:28:52Z</time>
      </trkpt>
      <trkpt lat="62.633349525931" lon="17.970206950819">
        <ele>194.4</ele>
        <time>2018-01-01T18:28:53Z</time>
      </trkpt>
      <trkpt lat="62.633345251162" lon="17.970100249232">
        <ele>194</ele>
        <time>2018-01-01T18:28:55Z</time>
      </trkpt>
      <trkpt lat="62.633343407144" lon="17.970051634212">
        <ele>194.2</ele>
        <time>2018-01-01T18:28:56Z</time>
      </trkpt>
      <trkpt lat="62.633340305841" lon="17.970030176548">
        <ele>194</ele>
        <time>2018-01-01T18:28:57Z</time>
      </trkpt>
      <trkpt lat="62.633342401316" lon="17.970006120495">
        <ele>194</ele>
        <time>2018-01-01T18:28:58Z</time>
      </trkpt>
      <trkpt lat="62.633342988049" lon="17.969986087754">
        <ele>194</ele>
        <time>2018-01-01T18:28:59Z</time>
      </trkpt>
      <trkpt lat="62.633344412972" lon="17.969970162144">
        <ele>194</ele>
        <time>2018-01-01T18:29:00Z</time>
      </trkpt>
      <trkpt lat="62.633342401316" lon="17.969953314525">
        <ele>194</ele>
        <time>2018-01-01T18:29:01Z</time>
      </trkpt>
      <trkpt lat="62.633339970565" lon="17.969944262073">
        <ele>194</ele>
        <time>2018-01-01T18:29:02Z</time>
      </trkpt>
      <trkpt lat="62.633338461823" lon="17.969927246816">
        <ele>193.8</ele>
        <time>2018-01-01T18:29:03Z</time>
      </trkpt>
      <trkpt lat="62.63334290423" lon="17.969933700879">
        <ele>193.8</ele>
        <time>2018-01-01T18:29:04Z</time>
      </trkpt>
      <trkpt lat="62.633418425149" lon="17.970370062593">
        <ele>193.2</ele>
        <time>2018-01-01T18:31:29Z</time>
      </trkpt>
      <trkpt lat="62.633423873384" lon="17.970433932671">
        <ele>193.4</ele>
        <time>2018-01-01T18:31:30Z</time>
      </trkpt>
      <trkpt lat="62.633429656895" lon="17.970500987871">
        <ele>193.4</ele>
        <time>2018-01-01T18:31:31Z</time>
      </trkpt>
      <trkpt lat="62.633430578904" lon="17.970571898745">
        <ele>193.4</ele>
        <time>2018-01-01T18:31:32Z</time>
      </trkpt>
      <trkpt lat="62.633436697691" lon="17.970634930633">
        <ele>193.6</ele>
        <time>2018-01-01T18:31:33Z</time>
      </trkpt>
      <trkpt lat="62.633444241401" lon="17.970686814594">
        <ele>193.8</ele>
        <time>2018-01-01T18:31:34Z</time>
      </trkpt>
      <trkpt lat="62.633449521998" lon="17.970763508979">
        <ele>193.8</ele>
        <time>2018-01-01T18:31:35Z</time>
      </trkpt>
      <trkpt lat="62.633451449835" lon="17.970815728216">
        <ele>194</ele>
        <time>2018-01-01T18:31:36Z</time>
      </trkpt>
      <trkpt lat="62.633457820079" lon="17.970887058185">
        <ele>194</ele>
        <time>2018-01-01T18:31:37Z</time>
      </trkpt>
      <trkpt lat="62.633460334649" lon="17.970949084245">
        <ele>194.2</ele>
        <time>2018-01-01T18:31:38Z</time>
      </trkpt>
      <trkpt lat="62.63346947092" lon="17.971011361762">
        <ele>194.2</ele>
        <time>2018-01-01T18:31:39Z</time>
      </trkpt>
      <trkpt lat="62.633469722377" lon="17.971070118881">
        <ele>194.4</ele>
        <time>2018-01-01T18:31:40Z</time>
      </trkpt>
      <trkpt lat="62.633475002974" lon="17.971127870172">
        <ele>194.4</ele>
        <time>2018-01-01T18:31:41Z</time>
      </trkpt>
      <trkpt lat="62.633476511716" lon="17.971190482965">
        <ele>194.6</ele>
        <time>2018-01-01T18:31:42Z</time>
      </trkpt>
      <trkpt lat="62.633480786485" lon="17.971250245912">
        <ele>194.6</ele>
        <time>2018-01-01T18:31:43Z</time>
      </trkpt>
      <trkpt lat="62.633480870304" lon="17.971307326651">
        <ele>194.8</ele>
        <time>2018-01-01T18:31:44Z</time>
      </trkpt>
      <trkpt lat="62.633481876132" lon="17.971365999951">
        <ele>195</ele>
        <time>2018-01-01T18:31:45Z</time>
      </trkpt>
      <trkpt lat="62.633479445381" lon="17.971422326319">
        <ele>195</ele>
        <time>2018-01-01T18:31:46Z</time>
      </trkpt>
      <trkpt lat="62.633475924983" lon="17.971490052071">
        <ele>195.2</ele>
        <time>2018-01-01T18:31:47Z</time>
      </trkpt>
      <trkpt lat="62.633475924983" lon="17.971554341244">
        <ele>195.2</ele>
        <time>2018-01-01T18:31:48Z</time>
      </trkpt>
      <trkpt lat="62.633473745689" lon="17.971617373132">
        <ele>195.2</ele>
        <time>2018-01-01T18:31:49Z</time>
      </trkpt>
      <trkpt lat="62.63347198549" lon="17.97167286131">
        <ele>195.4</ele>
        <time>2018-01-01T18:31:50Z</time>
      </trkpt>
      <trkpt lat="62.633468045997" lon="17.971732288981">
        <ele>195.4</ele>
        <time>2018-01-01T18:31:51Z</time>
      </trkpt>
      <trkpt lat="62.633463016857" lon="17.971786268417">
        <ele>195.6</ele>
        <time>2018-01-01T18:31:52Z</time>
      </trkpt>
      <trkpt lat="62.633457568622" lon="17.971850641409">
        <ele>195.8</ele>
        <time>2018-01-01T18:31:53Z</time>
      </trkpt>
      <trkpt lat="62.633450779283" lon="17.971912667469">
        <ele>195.8</ele>
        <time>2018-01-01T18:31:54Z</time>
      </trkpt>
      <trkpt lat="62.633447426523" lon="17.971965473439">
        <ele>196</ele>
        <time>2018-01-01T18:31:55Z</time>
      </trkpt>
      <trkpt lat="62.63343678151" lon="17.972025404024">
        <ele>196.2</ele>
        <time>2018-01-01T18:31:56Z</time>
      </trkpt>
      <trkpt lat="62.633429153981" lon="17.972077287985">
        <ele>196</ele>
        <time>2018-01-01T18:31:57Z</time>
      </trkpt>
      <trkpt lat="62.633426974687" lon="17.972140738968">
        <ele>196.2</ele>
        <time>2018-01-01T18:31:58Z</time>
      </trkpt>
      <trkpt lat="62.633420269167" lon="17.97219924463">
        <ele>196.2</ele>
        <time>2018-01-01T18:31:59Z</time>
      </trkpt>
      <trkpt lat="62.633415910579" lon="17.972256073912">
        <ele>196.2</ele>
        <time>2018-01-01T18:32:00Z</time>
      </trkpt>
      <trkpt lat="62.633404427376" lon="17.972315920678">
        <ele>196.4</ele>
        <time>2018-01-01T18:32:01Z</time>
      </trkpt>
      <trkpt lat="62.633397973313" lon="17.972364787155">
        <ele>196.4</ele>
        <time>2018-01-01T18:32:02Z</time>
      </trkpt>
      <trkpt lat="62.633393866182" lon="17.972395884004">
        <ele>196.4</ele>
        <time>2018-01-01T18:32:03Z</time>
      </trkpt>
      <trkpt lat="62.633378275848" lon="17.97247500914">
        <ele>196.4</ele>
        <time>2018-01-01T18:32:04Z</time>
      </trkpt>
      <trkpt lat="62.633369977767" lon="17.972518259744">
        <ele>196.4</ele>
        <time>2018-01-01T18:32:05Z</time>
      </trkpt>
      <trkpt lat="62.633362098781" lon="17.972568718782">
        <ele>196.6</ele>
        <time>2018-01-01T18:32:06Z</time>
      </trkpt>
      <trkpt lat="62.63335547708" lon="17.972627140625">
        <ele>196.8</ele>
        <time>2018-01-01T18:32:07Z</time>
      </trkpt>
      <trkpt lat="62.633343910058" lon="17.972686316839">
        <ele>197</ele>
        <time>2018-01-01T18:32:08Z</time>
      </trkpt>
      <trkpt lat="62.633327062439" lon="17.972751528021">
        <ele>197</ele>
        <time>2018-01-01T18:32:09Z</time>
      </trkpt>
      <trkpt lat="62.633321781842" lon="17.972788408381">
        <ele>197.2</ele>
        <time>2018-01-01T18:32:10Z</time>
      </trkpt>
      <trkpt lat="62.633304850404" lon="17.97284548912">
        <ele>197.2</ele>
        <time>2018-01-01T18:32:11Z</time>
      </trkpt>
      <trkpt lat="62.633293283382" lon="17.972904330058">
        <ele>197.2</ele>
        <time>2018-01-01T18:32:12Z</time>
      </trkpt>
      <trkpt lat="62.633281967817" lon="17.972947832119">
        <ele>197.2</ele>
        <time>2018-01-01T18:32:13Z</time>
      </trkpt>
      <trkpt lat="62.63326746713" lon="17.973000302813">
        <ele>197.4</ele>
        <time>2018-01-01T18:32:14Z</time>
      </trkpt>
      <trkpt lat="62.633254978099" lon="17.973045984168">
        <ele>197.6</ele>
        <time>2018-01-01T18:32:15Z</time>
      </trkpt>
      <trkpt lat="62.63324315962" lon="17.97310365164">
        <ele>197.6</ele>
        <time>2018-01-01T18:32:16Z</time>
      </trkpt>
      <trkpt lat="62.633233352797" lon="17.973157211981">
        <ele>197.8</ele>
        <time>2018-01-01T18:32:17Z</time>
      </trkpt>
      <trkpt lat="62.633223294517" lon="17.973212448702">
        <ele>197.8</ele>
        <time>2018-01-01T18:32:18Z</time>
      </trkpt>
      <trkpt lat="62.633210302572" lon="17.973271960192">
        <ele>197.8</ele>
        <time>2018-01-01T18:32:19Z</time>
      </trkpt>
      <trkpt lat="62.633200495749" lon="17.9733249338">
        <ele>197.8</ele>
        <time>2018-01-01T18:32:20Z</time>
      </trkpt>
      <trkpt lat="62.633184653958" lon="17.973384361471">
        <ele>198</ele>
        <time>2018-01-01T18:32:21Z</time>
      </trkpt>
      <trkpt lat="62.63317107528" lon="17.97343222212">
        <ele>198</ele>
        <time>2018-01-01T18:32:22Z</time>
      </trkpt>
      <trkpt lat="62.633154143842" lon="17.973482262063">
        <ele>197.8</ele>
        <time>2018-01-01T18:32:23Z</time>
      </trkpt>
      <trkpt lat="62.633143331191" lon="17.973534229843">
        <ele>198</ele>
        <time>2018-01-01T18:32:24Z</time>
      </trkpt>
      <trkpt lat="62.6331358713" lon="17.973582425768">
        <ele>198</ele>
        <time>2018-01-01T18:32:25Z</time>
      </trkpt>
      <trkpt lat="62.63312246026" lon="17.973634309729">
        <ele>198.2</ele>
        <time>2018-01-01T18:32:26Z</time>
      </trkpt>
      <trkpt lat="62.633112821075" lon="17.973682086559">
        <ele>198.2</ele>
        <time>2018-01-01T18:32:27Z</time>
      </trkpt>
      <trkpt lat="62.63310318189" lon="17.973738664384">
        <ele>198.6</ele>
        <time>2018-01-01T18:32:28Z</time>
      </trkpt>
      <trkpt lat="62.633087340099" lon="17.973785854481">
        <ele>198.6</ele>
        <time>2018-01-01T18:32:29Z</time>
      </trkpt>
      <trkpt lat="62.633076192172" lon="17.973839163365">
        <ele>198.8</ele>
        <time>2018-01-01T18:32:30Z</time>
      </trkpt>
      <trkpt lat="62.633060685657" lon="17.973889203308">
        <ele>198.8</ele>
        <time>2018-01-01T18:32:31Z</time>
      </trkpt>
      <trkpt lat="62.633051968481" lon="17.973937063957">
        <ele>199</ele>
        <time>2018-01-01T18:32:32Z</time>
      </trkpt>
      <trkpt lat="62.63304031764" lon="17.973984505511">
        <ele>199</ele>
        <time>2018-01-01T18:32:33Z</time>
      </trkpt>
      <trkpt lat="62.633025314039" lon="17.974031695608">
        <ele>199.2</ele>
        <time>2018-01-01T18:32:34Z</time>
      </trkpt>
      <trkpt lat="62.63301433375" lon="17.974085339768">
        <ele>199.2</ele>
        <time>2018-01-01T18:32:35Z</time>
      </trkpt>
      <trkpt lat="62.633002263814" lon="17.97414552181">
        <ele>199.2</ele>
        <time>2018-01-01T18:32:36Z</time>
      </trkpt>
      <trkpt lat="62.632990277697" lon="17.974197741047">
        <ele>199.2</ele>
        <time>2018-01-01T18:32:37Z</time>
      </trkpt>
      <trkpt lat="62.632981476702" lon="17.974253899777">
        <ele>199.2</ele>
        <time>2018-01-01T18:32:38Z</time>
      </trkpt>
      <trkpt lat="62.632969490585" lon="17.974317099303">
        <ele>199.4</ele>
        <time>2018-01-01T18:32:39Z</time>
      </trkpt>
      <trkpt lat="62.632957253011" lon="17.974363702667">
        <ele>199.4</ele>
        <time>2018-01-01T18:32:40Z</time>
      </trkpt>
      <trkpt lat="62.63294392579" lon="17.974418604112">
        <ele>199.4</ele>
        <time>2018-01-01T18:32:41Z</time>
      </trkpt>
      <trkpt lat="62.632929508922" lon="17.97446822496">
        <ele>199.4</ele>
        <time>2018-01-01T18:32:42Z</time>
      </trkpt>
      <trkpt lat="62.632916516977" lon="17.974520108921">
        <ele>199.4</ele>
        <time>2018-01-01T18:32:43Z</time>
      </trkpt>
      <trkpt lat="62.632900591367" lon="17.97456796957">
        <ele>199.6</ele>
        <time>2018-01-01T18:32:44Z</time>
      </trkpt>
      <trkpt lat="62.632884330481" lon="17.97461993735">
        <ele>199.6</ele>
        <time>2018-01-01T18:32:45Z</time>
      </trkpt>
      <trkpt lat="62.632871087079" lon="17.974668803827">
        <ele>199.6</ele>
        <time>2018-01-01T18:32:46Z</time>
      </trkpt>
      <trkpt lat="62.632855999659" lon="17.97472554929">
        <ele>199.8</ele>
        <time>2018-01-01T18:32:47Z</time>
      </trkpt>
      <trkpt lat="62.632841582791" lon="17.974777349432">
        <ele>199.8</ele>
        <time>2018-01-01T18:32:48Z</time>
      </trkpt>
      <trkpt lat="62.632828590846" lon="17.974829652488">
        <ele>199.8</ele>
        <time>2018-01-01T18:32:49Z</time>
      </trkpt>
      <trkpt lat="62.632813754883" lon="17.974873992739">
        <ele>200</ele>
        <time>2018-01-01T18:32:50Z</time>
      </trkpt>
      <trkpt lat="62.632808474286" lon="17.974921350474">
        <ele>200</ele>
        <time>2018-01-01T18:32:51Z</time>
      </trkpt>
      <trkpt lat="62.632800679119" lon="17.974975916643">
        <ele>200</ele>
        <time>2018-01-01T18:32:52Z</time>
      </trkpt>
      <trkpt lat="62.632779137636" lon="17.975032494468">
        <ele>200</ele>
        <time>2018-01-01T18:32:53Z</time>
      </trkpt>
      <trkpt lat="62.632764888406" lon="17.975081193307">
        <ele>199.8</ele>
        <time>2018-01-01T18:32:54Z</time>
      </trkpt>
      <trkpt lat="62.6327503039" lon="17.975129473051">
        <ele>200</ele>
        <time>2018-01-01T18:32:55Z</time>
      </trkpt>
      <trkpt lat="62.63273940743" lon="17.975184542134">
        <ele>200</ele>
        <time>2018-01-01T18:32:56Z</time>
      </trkpt>
      <trkpt lat="62.632727756589" lon="17.975231145498">
        <ele>200</ele>
        <time>2018-01-01T18:32:57Z</time>
      </trkpt>
      <trkpt lat="62.632712669169" lon="17.975286968952">
        <ele>200</ele>
        <time>2018-01-01T18:32:58Z</time>
      </trkpt>
      <trkpt lat="62.632706969477" lon="17.975332315031">
        <ele>200.2</ele>
        <time>2018-01-01T18:32:59Z</time>
      </trkpt>
      <trkpt lat="62.632697162654" lon="17.975394676367">
        <ele>200.4</ele>
        <time>2018-01-01T18:33:00Z</time>
      </trkpt>
      <trkpt lat="62.632684757442" lon="17.975451170373">
        <ele>200.4</ele>
        <time>2018-01-01T18:33:01Z</time>
      </trkpt>
      <trkpt lat="62.632677213732" lon="17.975492074045">
        <ele>200.4</ele>
        <time>2018-01-01T18:33:02Z</time>
      </trkpt>
      <trkpt lat="62.632664557063" lon="17.975545047653">
        <ele>200.4</ele>
        <time>2018-01-01T18:33:03Z</time>
      </trkpt>
      <trkpt lat="62.632651816575" lon="17.975600452012">
        <ele>200.6</ele>
        <time>2018-01-01T18:33:04Z</time>
      </trkpt>
      <trkpt lat="62.632642009752" lon="17.975649989041">
        <ele>200.6</ele>
        <time>2018-01-01T18:33:05Z</time>
      </trkpt>
      <trkpt lat="62.632628263436" lon="17.97570371702">
        <ele>200.6</ele>
        <time>2018-01-01T18:33:06Z</time>
      </trkpt>
      <trkpt lat="62.632617283147" lon="17.975750571841">
        <ele>200.6</ele>
        <time>2018-01-01T18:33:07Z</time>
      </trkpt>
      <trkpt lat="62.632607895419" lon="17.975802455802">
        <ele>200.6</ele>
        <time>2018-01-01T18:33:08Z</time>
      </trkpt>
      <trkpt lat="62.632598256234" lon="17.975848388614">
        <ele>200.6</ele>
        <time>2018-01-01T18:33:09Z</time>
      </trkpt>
      <trkpt lat="62.632592556542" lon="17.975902619507">
        <ele>200.6</ele>
        <time>2018-01-01T18:33:10Z</time>
      </trkpt>
      <trkpt lat="62.632578977864" lon="17.975961292807">
        <ele>200.6</ele>
        <time>2018-01-01T18:33:11Z</time>
      </trkpt>
      <trkpt lat="62.632566907928" lon="17.976011835664">
        <ele>200.6</ele>
        <time>2018-01-01T18:33:12Z</time>
      </trkpt>
      <trkpt lat="62.632555508544" lon="17.976064473996">
        <ele>200.6</ele>
        <time>2018-01-01T18:33:13Z</time>
      </trkpt>
      <trkpt lat="62.632541510771" lon="17.976120465088">
        <ele>200.6</ele>
        <time>2018-01-01T18:33:14Z</time>
      </trkpt>
      <trkpt lat="62.632532709776" lon="17.976166146443">
        <ele>200.8</ele>
        <time>2018-01-01T18:33:15Z</time>
      </trkpt>
      <trkpt lat="62.632520975116" lon="17.976221383164">
        <ele>200.8</ele>
        <time>2018-01-01T18:33:16Z</time>
      </trkpt>
      <trkpt lat="62.632507983171" lon="17.976271674564">
        <ele>200.8</ele>
        <time>2018-01-01T18:33:17Z</time>
      </trkpt>
      <trkpt lat="62.632496835244" lon="17.976317858833">
        <ele>200.8</ele>
        <time>2018-01-01T18:33:18Z</time>
      </trkpt>
      <trkpt lat="62.632483340385" lon="17.976373598468">
        <ele>201</ele>
        <time>2018-01-01T18:33:19Z</time>
      </trkpt>
      <trkpt lat="62.632472108639" lon="17.976421291479">
        <ele>201</ele>
        <time>2018-01-01T18:33:20Z</time>
      </trkpt>
      <trkpt lat="62.632462217997" lon="17.976462446608">
        <ele>201</ele>
        <time>2018-01-01T18:33:21Z</time>
      </trkpt>
      <trkpt lat="62.632449896604" lon="17.97651257037">
        <ele>201</ele>
        <time>2018-01-01T18:33:22Z</time>
      </trkpt>
      <trkpt lat="62.63243933541" lon="17.976566130711">
        <ele>201</ele>
        <time>2018-01-01T18:33:23Z</time>
      </trkpt>
      <trkpt lat="62.632429109492" lon="17.976616422111">
        <ele>201</ele>
        <time>2018-01-01T18:33:24Z</time>
      </trkpt>
      <trkpt lat="62.632414776443" lon="17.976668808986">
        <ele>201</ele>
        <time>2018-01-01T18:33:25Z</time>
      </trkpt>
      <trkpt lat="62.632404047611" lon="17.976714657979">
        <ele>201.2</ele>
        <time>2018-01-01T18:33:26Z</time>
      </trkpt>
      <trkpt lat="62.632395917168" lon="17.97676067461">
        <ele>201.2</ele>
        <time>2018-01-01T18:33:27Z</time>
      </trkpt>
      <trkpt lat="62.632383763413" lon="17.976816414245">
        <ele>201.4</ele>
        <time>2018-01-01T18:33:28Z</time>
      </trkpt>
      <trkpt lat="62.632372699305" lon="17.976862514695">
        <ele>201.4</ele>
        <time>2018-01-01T18:33:29Z</time>
      </trkpt>
      <trkpt lat="62.632361551378" lon="17.976919846891">
        <ele>201.4</ele>
        <time>2018-01-01T18:33:30Z</time>
      </trkpt>
      <trkpt lat="62.632350235813" lon="17.976969551558">
        <ele>201.4</ele>
        <time>2018-01-01T18:33:31Z</time>
      </trkpt>
      <trkpt lat="62.632340848085" lon="17.977010036135">
        <ele>201.4</ele>
        <time>2018-01-01T18:33:32Z</time>
      </trkpt>
      <trkpt lat="62.632326598855" lon="17.977068709435">
        <ele>201.4</ele>
        <time>2018-01-01T18:33:33Z</time>
      </trkpt>
      <trkpt lat="62.632315031833" lon="17.977112043858">
        <ele>201.6</ele>
        <time>2018-01-01T18:33:34Z</time>
      </trkpt>
      <trkpt lat="62.632302291345" lon="17.977169543692">
        <ele>201.6</ele>
        <time>2018-01-01T18:33:35Z</time>
      </trkpt>
      <trkpt lat="62.63228762302" lon="17.977222265843">
        <ele>201.6</ele>
        <time>2018-01-01T18:33:36Z</time>
      </trkpt>
      <trkpt lat="62.632278989663" lon="17.977260906402">
        <ele>201.6</ele>
        <time>2018-01-01T18:33:37Z</time>
      </trkpt>
      <trkpt lat="62.632264321338" lon="17.977322681005">
        <ele>201.8</ele>
        <time>2018-01-01T18:33:38Z</time>
      </trkpt>
      <trkpt lat="62.63225074266" lon="17.97736165684">
        <ele>201.8</ele>
        <time>2018-01-01T18:33:39Z</time>
      </trkpt>
      <trkpt lat="62.632242025484" lon="17.977409601308">
        <ele>201.8</ele>
        <time>2018-01-01T18:33:40Z</time>
      </trkpt>
      <trkpt lat="62.632226854245" lon="17.977466765866">
        <ele>202</ele>
        <time>2018-01-01T18:33:41Z</time>
      </trkpt>
      <trkpt lat="62.632219226716" lon="17.977505322606">
        <ele>202</ele>
        <time>2018-01-01T18:33:42Z</time>
      </trkpt>
      <trkpt lat="62.632205312762" lon="17.977562654802">
        <ele>202</ele>
        <time>2018-01-01T18:33:43Z</time>
      </trkpt>
      <trkpt lat="62.632191398808" lon="17.977617975342">
        <ele>202</ele>
        <time>2018-01-01T18:33:44Z</time>
      </trkpt>
      <trkpt lat="62.632184609469" lon="17.977671870959">
        <ele>202.2</ele>
        <time>2018-01-01T18:33:45Z</time>
      </trkpt>
      <trkpt lat="62.63216943823" lon="17.977729286974">
        <ele>202.2</ele>
        <time>2018-01-01T18:33:46Z</time>
      </trkpt>
      <trkpt lat="62.632157284475" lon="17.977782931134">
        <ele>202.2</ele>
        <time>2018-01-01T18:33:47Z</time>
      </trkpt>
      <trkpt lat="62.632144124892" lon="17.977835485647">
        <ele>202.2</ele>
        <time>2018-01-01T18:33:48Z</time>
      </trkpt>
      <trkpt lat="62.632128869834" lon="17.977892147291">
        <ele>202.2</ele>
        <time>2018-01-01T18:33:49Z</time>
      </trkpt>
      <trkpt lat="62.632117135174" lon="17.977945623813">
        <ele>202.2</ele>
        <time>2018-01-01T18:33:50Z</time>
      </trkpt>
      <trkpt lat="62.632104478505" lon="17.977996921041">
        <ele>202.4</ele>
        <time>2018-01-01T18:33:51Z</time>
      </trkpt>
      <trkpt lat="62.632090732189" lon="17.97804142893">
        <ele>202.4</ele>
        <time>2018-01-01T18:33:52Z</time>
      </trkpt>
      <trkpt lat="62.632079835719" lon="17.978095743642">
        <ele>202.4</ele>
        <time>2018-01-01T18:33:53Z</time>
      </trkpt>
      <trkpt lat="62.632065335032" lon="17.978152153829">
        <ele>202.6</ele>
        <time>2018-01-01T18:33:54Z</time>
      </trkpt>
      <trkpt lat="62.632053851829" lon="17.978198421917">
        <ele>202.6</ele>
        <time>2018-01-01T18:33:55Z</time>
      </trkpt>
      <trkpt lat="62.63204119516" lon="17.978261705262">
        <ele>202.8</ele>
        <time>2018-01-01T18:33:56Z</time>
      </trkpt>
      <trkpt lat="62.632028035577" lon="17.978313421585">
        <ele>202.8</ele>
        <time>2018-01-01T18:33:57Z</time>
      </trkpt>
      <trkpt lat="62.632017390564" lon="17.978353487067">
        <ele>202.8</ele>
        <time>2018-01-01T18:33:58Z</time>
      </trkpt>
      <trkpt lat="62.632006577913" lon="17.978416435136">
        <ele>203</ele>
        <time>2018-01-01T18:33:59Z</time>
      </trkpt>
      <trkpt lat="62.631991322855" lon="17.978474689341">
        <ele>203</ele>
        <time>2018-01-01T18:34:00Z</time>
      </trkpt>
      <trkpt lat="62.631983946783" lon="17.978533949374">
        <ele>203</ele>
        <time>2018-01-01T18:34:01Z</time>
      </trkpt>
      <trkpt lat="62.631971876847" lon="17.97857032682">
        <ele>203</ele>
        <time>2018-01-01T18:34:02Z</time>
      </trkpt>
      <trkpt lat="62.631958633445" lon="17.978629419215">
        <ele>203.2</ele>
        <time>2018-01-01T18:34:03Z</time>
      </trkpt>
      <trkpt lat="62.631947653156" lon="17.97868851161">
        <ele>203.2</ele>
        <time>2018-01-01T18:34:04Z</time>
      </trkpt>
      <trkpt lat="62.631931727546" lon="17.978748777471">
        <ele>203.2</ele>
        <time>2018-01-01T18:34:05Z</time>
      </trkpt>
      <trkpt lat="62.631922675094" lon="17.978800493794">
        <ele>203.2</ele>
        <time>2018-01-01T18:34:06Z</time>
      </trkpt>
      <trkpt lat="62.631908425864" lon="17.978858580361">
        <ele>203.2</ele>
        <time>2018-01-01T18:34:07Z</time>
      </trkpt>
      <trkpt lat="62.631895601557" lon="17.978912140702">
        <ele>203.4</ele>
        <time>2018-01-01T18:34:08Z</time>
      </trkpt>
      <trkpt lat="62.631885543277" lon="17.978957486781">
        <ele>203.4</ele>
        <time>2018-01-01T18:34:09Z</time>
      </trkpt>
      <trkpt lat="62.631873221884" lon="17.97901372933">
        <ele>203.6</ele>
        <time>2018-01-01T18:34:10Z</time>
      </trkpt>
      <trkpt lat="62.631861235767" lon="17.979060584151">
        <ele>203.6</ele>
        <time>2018-01-01T18:34:11Z</time>
      </trkpt>
      <trkpt lat="62.631853021505" lon="17.979109702085">
        <ele>203.8</ele>
        <time>2018-01-01T18:34:12Z</time>
      </trkpt>
      <trkpt lat="62.631835587153" lon="17.979167872471">
        <ele>203.8</ele>
        <time>2018-01-01T18:34:13Z</time>
      </trkpt>
      <trkpt lat="62.631828630176" lon="17.979213302369">
        <ele>203.8</ele>
        <time>2018-01-01T18:34:14Z</time>
      </trkpt>
      <trkpt lat="62.631816644059" lon="17.97927273004">
        <ele>203.8</ele>
        <time>2018-01-01T18:34:15Z</time>
      </trkpt>
      <trkpt lat="62.631807172512" lon="17.979324949277">
        <ele>203.8</ele>
        <time>2018-01-01T18:34:16Z</time>
      </trkpt>
      <trkpt lat="62.631797952422" lon="17.979373229021">
        <ele>204</ele>
        <time>2018-01-01T18:34:17Z</time>
      </trkpt>
      <trkpt lat="62.631784206106" lon="17.979428046647">
        <ele>204</ele>
        <time>2018-01-01T18:34:18Z</time>
      </trkpt>
      <trkpt lat="62.631772303808" lon="17.979480936436">
        <ele>204</ele>
        <time>2018-01-01T18:34:19Z</time>
      </trkpt>
      <trkpt lat="62.631762161709" lon="17.979532149845">
        <ele>203.8</ele>
        <time>2018-01-01T18:34:20Z</time>
      </trkpt>
      <trkpt lat="62.631744308262" lon="17.979580010494">
        <ele>204</ele>
        <time>2018-01-01T18:34:21Z</time>
      </trkpt>
      <trkpt lat="62.631732154507" lon="17.979611610257">
        <ele>203.8</ele>
        <time>2018-01-01T18:34:22Z</time>
      </trkpt>
      <trkpt lat="62.631706924988" lon="17.979669026272">
        <ele>203.8</ele>
        <time>2018-01-01T18:34:23Z</time>
      </trkpt>
      <trkpt lat="62.631681946926" lon="17.979719150034">
        <ele>203.8</ele>
        <time>2018-01-01T18:34:24Z</time>
      </trkpt>
      <trkpt lat="62.63166149509" lon="17.979743541363">
        <ele>203.8</ele>
        <time>2018-01-01T18:34:25Z</time>
      </trkpt>
      <trkpt lat="62.63163299663" lon="17.979775057307">
        <ele>203.8</ele>
        <time>2018-01-01T18:34:26Z</time>
      </trkpt>
      <trkpt lat="62.631609611129" lon="17.979803388129">
        <ele>204</ele>
        <time>2018-01-01T18:34:27Z</time>
      </trkpt>
      <trkpt lat="62.631582286135" lon="17.97982258268">
        <ele>204</ele>
        <time>2018-01-01T18:34:28Z</time>
      </trkpt>
      <trkpt lat="62.63155672134" lon="17.979843202154">
        <ele>204.2</ele>
        <time>2018-01-01T18:34:29Z</time>
      </trkpt>
      <trkpt lat="62.631534509305" lon="17.979867677302">
        <ele>204.4</ele>
        <time>2018-01-01T18:34:30Z</time>
      </trkpt>
      <trkpt lat="62.631508022501" lon="17.979900366712">
        <ele>204.6</ele>
        <time>2018-01-01T18:34:31Z</time>
      </trkpt>
      <trkpt lat="62.631496455479" lon="17.979930625371">
        <ele>204.6</ele>
        <time>2018-01-01T18:34:32Z</time>
      </trkpt>
      <trkpt lat="62.631494024728" lon="17.979998099666">
        <ele>204.8</ele>
        <time>2018-01-01T18:34:33Z</time>
      </trkpt>
      <trkpt lat="62.631508609234" lon="17.980073285309">
        <ele>204.6</ele>
        <time>2018-01-01T18:34:34Z</time>
      </trkpt>
      <trkpt lat="62.631530821269" lon="17.980099520656">
        <ele>204.6</ele>
        <time>2018-01-01T18:34:35Z</time>
      </trkpt>
      <trkpt lat="62.631552195114" lon="17.980102454321">
        <ele>204.6</ele>
        <time>2018-01-01T18:34:36Z</time>
      </trkpt>
      <trkpt lat="62.631574993882" lon="17.980077140983">
        <ele>204.6</ele>
        <time>2018-01-01T18:34:37Z</time>
      </trkpt>
      <trkpt lat="62.631586477085" lon="17.980024335013">
        <ele>204.6</ele>
        <time>2018-01-01T18:34:38Z</time>
      </trkpt>
      <trkpt lat="62.631606593645" lon="17.979986281187">
        <ele>204.6</ele>
        <time>2018-01-01T18:34:39Z</time>
      </trkpt>
      <trkpt lat="62.631622351617" lon="17.979955771071">
        <ele>204.4</ele>
        <time>2018-01-01T18:34:40Z</time>
      </trkpt>
      <trkpt lat="62.631640372702" lon="17.979899193246">
        <ele>204.4</ele>
        <time>2018-01-01T18:34:41Z</time>
      </trkpt>
      <trkpt lat="62.631658393787" lon="17.979852673701">
        <ele>204.4</ele>
        <time>2018-01-01T18:34:42Z</time>
      </trkpt>
      <trkpt lat="62.631671050456" lon="17.97977648223">
        <ele>204.4</ele>
        <time>2018-01-01T18:34:43Z</time>
      </trkpt>
      <trkpt lat="62.631685718781" lon="17.979717054559">
        <ele>204.4</ele>
        <time>2018-01-01T18:34:44Z</time>
      </trkpt>
      <trkpt lat="62.631707176445" lon="17.97965410649">
        <ele>204.4</ele>
        <time>2018-01-01T18:34:45Z</time>
      </trkpt>
      <trkpt lat="62.631722850598" lon="17.979607670764">
        <ele>204.4</ele>
        <time>2018-01-01T18:34:46Z</time>
      </trkpt>
      <trkpt lat="62.631738273294" lon="17.979548913645">
        <ele>204.4</ele>
        <time>2018-01-01T18:34:47Z</time>
      </trkpt>
      <trkpt lat="62.631746487556" lon="17.979477416038">
        <ele>204.4</ele>
        <time>2018-01-01T18:34:48Z</time>
      </trkpt>
      <trkpt lat="62.631753863628" lon="17.979405834612">
        <ele>204.4</ele>
        <time>2018-01-01T18:34:49Z</time>
      </trkpt>
      <trkpt lat="62.631766017383" lon="17.979331235702">
        <ele>204.4</ele>
        <time>2018-01-01T18:34:50Z</time>
      </trkpt>
      <trkpt lat="62.631769705419" lon="17.979267868538">
        <ele>204.4</ele>
        <time>2018-01-01T18:34:51Z</time>
      </trkpt>
      <trkpt lat="62.631782781183" lon="17.979215984577">
        <ele>204.4</ele>
        <time>2018-01-01T18:34:52Z</time>
      </trkpt>
      <trkpt lat="62.631796946594" lon="17.979146247169">
        <ele>204.4</ele>
        <time>2018-01-01T18:34:53Z</time>
      </trkpt>
      <trkpt lat="62.631803484476" lon="17.979089501706">
        <ele>204.2</ele>
        <time>2018-01-01T18:34:54Z</time>
      </trkpt>
      <trkpt lat="62.631814297127" lon="17.979019009927">
        <ele>204.2</ele>
        <time>2018-01-01T18:34:55Z</time>
      </trkpt>
      <trkpt lat="62.631828965452" lon="17.978959666075">
        <ele>204</ele>
        <time>2018-01-01T18:34:56Z</time>
      </trkpt>
      <trkpt lat="62.631839107551" lon="17.978908620304">
        <ele>204</ele>
        <time>2018-01-01T18:34:57Z</time>
      </trkpt>
      <trkpt lat="62.631858385921" lon="17.97884944409">
        <ele>203.8</ele>
        <time>2018-01-01T18:34:58Z</time>
      </trkpt>
      <trkpt lat="62.631866600183" lon="17.978788507677">
        <ele>203.8</ele>
        <time>2018-01-01T18:34:59Z</time>
      </trkpt>
      <trkpt lat="62.631879256852" lon="17.978730840205">
        <ele>203.8</ele>
        <time>2018-01-01T18:35:00Z</time>
      </trkpt>
      <trkpt lat="62.631890404779" lon="17.97866755686">
        <ele>203.6</ele>
        <time>2018-01-01T18:35:01Z</time>
      </trkpt>
      <trkpt lat="62.631900882154" lon="17.978616091994">
        <ele>203.6</ele>
        <time>2018-01-01T18:35:02Z</time>
      </trkpt>
      <trkpt lat="62.631912030081" lon="17.978552473373">
        <ele>203.6</ele>
        <time>2018-01-01T18:35:03Z</time>
      </trkpt>
      <trkpt lat="62.631926782225" lon="17.978500086498">
        <ele>203.6</ele>
        <time>2018-01-01T18:35:04Z</time>
      </trkpt>
      <trkpt lat="62.631943546025" lon="17.978435462049">
        <ele>203.6</ele>
        <time>2018-01-01T18:35:05Z</time>
      </trkpt>
      <trkpt lat="62.631956705608" lon="17.978374944731">
        <ele>203.6</ele>
        <time>2018-01-01T18:35:06Z</time>
      </trkpt>
      <trkpt lat="62.631971709209" lon="17.978312248119">
        <ele>203.4</ele>
        <time>2018-01-01T18:35:07Z</time>
      </trkpt>
      <trkpt lat="62.631982773317" lon="17.978234799363">
        <ele>203.4</ele>
        <time>2018-01-01T18:35:08Z</time>
      </trkpt>
      <trkpt lat="62.631994843253" lon="17.97817553933">
        <ele>203.4</ele>
        <time>2018-01-01T18:35:09Z</time>
      </trkpt>
      <trkpt lat="62.632009763035" lon="17.978114686736">
        <ele>203.2</ele>
        <time>2018-01-01T18:35:10Z</time>
      </trkpt>
      <trkpt lat="62.632022335885" lon="17.978044362595">
        <ele>203.2</ele>
        <time>2018-01-01T18:35:11Z</time>
      </trkpt>
      <trkpt lat="62.632039434961" lon="17.977989628788">
        <ele>203</ele>
        <time>2018-01-01T18:35:12Z</time>
      </trkpt>
      <trkpt lat="62.632054187105" lon="17.977917712086">
        <ele>202.8</ele>
        <time>2018-01-01T18:35:13Z</time>
      </trkpt>
      <trkpt lat="62.632064999756" lon="17.977845124832">
        <ele>202.8</ele>
        <time>2018-01-01T18:35:14Z</time>
      </trkpt>
      <trkpt lat="62.632078326977" lon="17.977778404908">
        <ele>202.6</ele>
        <time>2018-01-01T18:35:15Z</time>
      </trkpt>
      <trkpt lat="62.632093414397" lon="17.977721575626">
        <ele>202.6</ele>
        <time>2018-01-01T18:35:16Z</time>
      </trkpt>
      <trkpt lat="62.632103137401" lon="17.977658795195">
        <ele>202.6</ele>
        <time>2018-01-01T18:35:17Z</time>
      </trkpt>
      <trkpt lat="62.632121242305" lon="17.977593584013">
        <ele>202.6</ele>
        <time>2018-01-01T18:35:18Z</time>
      </trkpt>
      <trkpt lat="62.632137167915" lon="17.977534156342">
        <ele>202.6</ele>
        <time>2018-01-01T18:35:19Z</time>
      </trkpt>
      <trkpt lat="62.632153344982" lon="17.977467184961">
        <ele>202.6</ele>
        <time>2018-01-01T18:35:20Z</time>
      </trkpt>
      <trkpt lat="62.632171198429" lon="17.977414295172">
        <ele>202.6</ele>
        <time>2018-01-01T18:35:21Z</time>
      </trkpt>
      <trkpt lat="62.632187962229" lon="17.977353107302">
        <ele>202.4</ele>
        <time>2018-01-01T18:35:22Z</time>
      </trkpt>
      <trkpt lat="62.632207492056" lon="17.977276832012">
        <ele>202.4</ele>
        <time>2018-01-01T18:35:23Z</time>
      </trkpt>
      <trkpt lat="62.632219561992" lon="17.977214889771">
        <ele>202.4</ele>
        <time>2018-01-01T18:35:24Z</time>
      </trkpt>
      <trkpt lat="62.632230793738" lon="17.977141967241">
        <ele>202.4</ele>
        <time>2018-01-01T18:35:25Z</time>
      </trkpt>
      <trkpt lat="62.632243282769" lon="17.977074325308">
        <ele>202.2</ele>
        <time>2018-01-01T18:35:26Z</time>
      </trkpt>
      <trkpt lat="62.632254514515" lon="17.977017412207">
        <ele>202.2</ele>
        <time>2018-01-01T18:35:27Z</time>
      </trkpt>
      <trkpt lat="62.632267171184" lon="17.976942478021">
        <ele>202.2</ele>
        <time>2018-01-01T18:35:28Z</time>
      </trkpt>
      <trkpt lat="62.632277061826" lon="17.976871650966">
        <ele>202.2</ele>
        <time>2018-01-01T18:35:29Z</time>
      </trkpt>
      <trkpt lat="62.632291981608" lon="17.976816665702">
        <ele>202.2</ele>
        <time>2018-01-01T18:35:30Z</time>
      </trkpt>
      <trkpt lat="62.632307907218" lon="17.976757657126">
        <ele>202</ele>
        <time>2018-01-01T18:35:31Z</time>
      </trkpt>
      <trkpt lat="62.632318887507" lon="17.976694709057">
        <ele>202</ele>
        <time>2018-01-01T18:35:32Z</time>
      </trkpt>
      <trkpt lat="62.632325509208" lon="17.976626145115">
        <ele>202</ele>
        <time>2018-01-01T18:35:33Z</time>
      </trkpt>
      <trkpt lat="62.632340764266" lon="17.976562107399">
        <ele>201.8</ele>
        <time>2018-01-01T18:35:34Z</time>
      </trkpt>
      <trkpt lat="62.63235384003" lon="17.976505194298">
        <ele>201.8</ele>
        <time>2018-01-01T18:35:35Z</time>
      </trkpt>
      <trkpt lat="62.632364820319" lon="17.976445179894">
        <ele>201.8</ele>
        <time>2018-01-01T18:35:36Z</time>
      </trkpt>
      <trkpt lat="62.63237647116" lon="17.976373011735">
        <ele>201.6</ele>
        <time>2018-01-01T18:35:37Z</time>
      </trkpt>
      <trkpt lat="62.63238904401" lon="17.976309896028">
        <ele>201.4</ele>
        <time>2018-01-01T18:35:38Z</time>
      </trkpt>
      <trkpt lat="62.632405221077" lon="17.976248289063">
        <ele>201.4</ele>
        <time>2018-01-01T18:35:39Z</time>
      </trkpt>
      <trkpt lat="62.632419554126" lon="17.976189951039">
        <ele>201.4</ele>
        <time>2018-01-01T18:35:40Z</time>
      </trkpt>
      <trkpt lat="62.632431959338" lon="17.976121387097">
        <ele>201.2</ele>
        <time>2018-01-01T18:35:41Z</time>
      </trkpt>
      <trkpt lat="62.632448890776" lon="17.976053074612">
        <ele>201.4</ele>
        <time>2018-01-01T18:35:42Z</time>
      </trkpt>
      <trkpt lat="62.632466241309" lon="17.97599624533">
        <ele>201.2</ele>
        <time>2018-01-01T18:35:43Z</time>
      </trkpt>
      <trkpt lat="62.632480322901" lon="17.975933548718">
        <ele>201</ele>
        <time>2018-01-01T18:35:44Z</time>
      </trkpt>
      <trkpt lat="62.632495242683" lon="17.975854255944">
        <ele>201</ele>
        <time>2018-01-01T18:35:45Z</time>
      </trkpt>
      <trkpt lat="62.632502870212" lon="17.975792732798">
        <ele>201</ele>
        <time>2018-01-01T18:35:46Z</time>
      </trkpt>
      <trkpt lat="62.63251812527" lon="17.975724420313">
        <ele>201</ele>
        <time>2018-01-01T18:35:47Z</time>
      </trkpt>
      <trkpt lat="62.632530614301" lon="17.975659376769">
        <ele>201</ele>
        <time>2018-01-01T18:35:48Z</time>
      </trkpt>
      <trkpt lat="62.632540672581" lon="17.975601290202">
        <ele>200.8</ele>
        <time>2018-01-01T18:35:49Z</time>
      </trkpt>
      <trkpt lat="62.632561040598" lon="17.975536162839">
        <ele>200.8</ele>
        <time>2018-01-01T18:35:50Z</time>
      </trkpt>
      <trkpt lat="62.632570260688" lon="17.975475310245">
        <ele>200.8</ele>
        <time>2018-01-01T18:35:51Z</time>
      </trkpt>
      <trkpt lat="62.632584677556" lon="17.975406830122">
        <ele>200.8</ele>
        <time>2018-01-01T18:35:52Z</time>
      </trkpt>
      <trkpt lat="62.632598842967" lon="17.975328543176">
        <ele>200.6</ele>
        <time>2018-01-01T18:35:53Z</time>
      </trkpt>
      <trkpt lat="62.632609152704" lon="17.975267439125">
        <ele>200.6</ele>
        <time>2018-01-01T18:35:54Z</time>
      </trkpt>
      <trkpt lat="62.632626922332" lon="17.975202814676">
        <ele>200.4</ele>
        <time>2018-01-01T18:35:55Z</time>
      </trkpt>
      <trkpt lat="62.632637902621" lon="17.97514212972">
        <ele>200.4</ele>
        <time>2018-01-01T18:35:56Z</time>
      </trkpt>
      <trkpt lat="62.63265223567" lon="17.975077253814">
        <ele>200.2</ele>
        <time>2018-01-01T18:35:57Z</time>
      </trkpt>
      <trkpt lat="62.632669670022" lon="17.975006426759">
        <ele>200.2</ele>
        <time>2018-01-01T18:35:58Z</time>
      </trkpt>
      <trkpt lat="62.632684422166" lon="17.974955380988">
        <ele>200</ele>
        <time>2018-01-01T18:35:59Z</time>
      </trkpt>
      <trkpt lat="62.63270504164" lon="17.974892013824">
        <ele>200</ele>
        <time>2018-01-01T18:36:00Z</time>
      </trkpt>
      <trkpt lat="62.63271761449" lon="17.974837363836">
        <ele>200</ele>
        <time>2018-01-01T18:36:01Z</time>
      </trkpt>
      <trkpt lat="62.632730522616" lon="17.974778439079">
        <ele>199.8</ele>
        <time>2018-01-01T18:36:02Z</time>
      </trkpt>
      <trkpt lat="62.632748292244" lon="17.974712305888">
        <ele>199.8</ele>
        <time>2018-01-01T18:36:03Z</time>
      </trkpt>
      <trkpt lat="62.632760194542" lon="17.974662936497">
        <ele>199.8</ele>
        <time>2018-01-01T18:36:04Z</time>
      </trkpt>
      <trkpt lat="62.632777042161" lon="17.974598814962">
        <ele>199.6</ele>
        <time>2018-01-01T18:36:05Z</time>
      </trkpt>
      <trkpt lat="62.632790369382" lon="17.974535112522">
        <ele>199.6</ele>
        <time>2018-01-01T18:36:06Z</time>
      </trkpt>
      <trkpt lat="62.632802606956" lon="17.974463363458">
        <ele>199.6</ele>
        <time>2018-01-01T18:36:07Z</time>
      </trkpt>
      <trkpt lat="62.632821885326" lon="17.974390524747">
        <ele>199.6</ele>
        <time>2018-01-01T18:36:08Z</time>
      </trkpt>
      <trkpt lat="62.632833117072" lon="17.974329336877">
        <ele>199.6</ele>
        <time>2018-01-01T18:36:09Z</time>
      </trkpt>
      <trkpt lat="62.632852730718" lon="17.974275189803">
        <ele>199.6</ele>
        <time>2018-01-01T18:36:10Z</time>
      </trkpt>
      <trkpt lat="62.632871338536" lon="17.974211319725">
        <ele>199.6</ele>
        <time>2018-01-01T18:36:11Z</time>
      </trkpt>
      <trkpt lat="62.63288273792" lon="17.974155077176">
        <ele>199.4</ele>
        <time>2018-01-01T18:36:12Z</time>
      </trkpt>
      <trkpt lat="62.632901681014" lon="17.97408014299">
        <ele>199.6</ele>
        <time>2018-01-01T18:36:13Z</time>
      </trkpt>
      <trkpt lat="62.632910230552" lon="17.974013758342">
        <ele>199.4</ele>
        <time>2018-01-01T18:36:14Z</time>
      </trkpt>
      <trkpt lat="62.632924144506" lon="17.973946451685">
        <ele>199.4</ele>
        <time>2018-01-01T18:36:15Z</time>
      </trkpt>
      <trkpt lat="62.632929844198" lon="17.973871098404">
        <ele>199.4</ele>
        <time>2018-01-01T18:36:16Z</time>
      </trkpt>
      <trkpt lat="62.632932777863" lon="17.973794152562">
        <ele>199.2</ele>
        <time>2018-01-01T18:36:17Z</time>
      </trkpt>
      <trkpt lat="62.632946691817" lon="17.973709076277">
        <ele>199.2</ele>
        <time>2018-01-01T18:36:18Z</time>
      </trkpt>
      <trkpt lat="62.632959097029" lon="17.973641937258">
        <ele>199.2</ele>
        <time>2018-01-01T18:36:19Z</time>
      </trkpt>
      <trkpt lat="62.632974687363" lon="17.973575720248">
        <ele>199</ele>
        <time>2018-01-01T18:36:20Z</time>
      </trkpt>
      <trkpt lat="62.63298834986" lon="17.973508581229">
        <ele>199</ele>
        <time>2018-01-01T18:36:21Z</time>
      </trkpt>
      <trkpt lat="62.633001509443" lon="17.973456361992">
        <ele>199</ele>
        <time>2018-01-01T18:36:22Z</time>
      </trkpt>
      <trkpt lat="62.633019530528" lon="17.973379080874">
        <ele>198.8</ele>
        <time>2018-01-01T18:36:23Z</time>
      </trkpt>
      <trkpt lat="62.633034115034" lon="17.973307499448">
        <ele>198.8</ele>
        <time>2018-01-01T18:36:24Z</time>
      </trkpt>
      <trkpt lat="62.633047945169" lon="17.973235918022">
        <ele>198.6</ele>
        <time>2018-01-01T18:36:25Z</time>
      </trkpt>
      <trkpt lat="62.633063367865" lon="17.973157882533">
        <ele>198.6</ele>
        <time>2018-01-01T18:36:26Z</time>
      </trkpt>
      <trkpt lat="62.633073761421" lon="17.973101472346">
        <ele>198.4</ele>
        <time>2018-01-01T18:36:27Z</time>
      </trkpt>
      <trkpt lat="62.633087591556" lon="17.973032070214">
        <ele>198.4</ele>
        <time>2018-01-01T18:36:28Z</time>
      </trkpt>
      <trkpt lat="62.63310402008" lon="17.972960656426">
        <ele>198.4</ele>
        <time>2018-01-01T18:36:29Z</time>
      </trkpt>
      <trkpt lat="62.633113994541" lon="17.97289326595">
        <ele>198.2</ele>
        <time>2018-01-01T18:36:30Z</time>
      </trkpt>
      <trkpt lat="62.633131847988" lon="17.972830653157">
        <ele>198</ele>
        <time>2018-01-01T18:36:31Z</time>
      </trkpt>
      <trkpt lat="62.633143498829" lon="17.972764519966">
        <ele>197.8</ele>
        <time>2018-01-01T18:36:32Z</time>
      </trkpt>
      <trkpt lat="62.633160262629" lon="17.972696626576">
        <ele>197.8</ele>
        <time>2018-01-01T18:36:33Z</time>
      </trkpt>
      <trkpt lat="62.633173506031" lon="17.972626134797">
        <ele>197.8</ele>
        <time>2018-01-01T18:36:34Z</time>
      </trkpt>
      <trkpt lat="62.633183899587" lon="17.972560420701">
        <ele>197.4</ele>
        <time>2018-01-01T18:36:35Z</time>
      </trkpt>
      <trkpt lat="62.633199322283" lon="17.972498394641">
        <ele>197.4</ele>
        <time>2018-01-01T18:36:36Z</time>
      </trkpt>
      <trkpt lat="62.633211727495" lon="17.972425723568">
        <ele>197.2</ele>
        <time>2018-01-01T18:36:37Z</time>
      </trkpt>
      <trkpt lat="62.633222623965" lon="17.972353220133">
        <ele>197.2</ele>
        <time>2018-01-01T18:36:38Z</time>
      </trkpt>
      <trkpt lat="62.63323813048" lon="17.97227635811">
        <ele>197.2</ele>
        <time>2018-01-01T18:36:39Z</time>
      </trkpt>
      <trkpt lat="62.633247853484" lon="17.972205363417">
        <ele>197</ele>
        <time>2018-01-01T18:36:40Z</time>
      </trkpt>
      <trkpt lat="62.633252798805" lon="17.972126238281">
        <ele>197</ele>
        <time>2018-01-01T18:36:41Z</time>
      </trkpt>
      <trkpt lat="62.633264784922" lon="17.972050885">
        <ele>197</ele>
        <time>2018-01-01T18:36:42Z</time>
      </trkpt>
      <trkpt lat="62.633273837374" lon="17.97198047704">
        <ele>196.8</ele>
        <time>2018-01-01T18:36:43Z</time>
      </trkpt>
      <trkpt lat="62.63328506912" lon="17.971912416012">
        <ele>196.6</ele>
        <time>2018-01-01T18:36:44Z</time>
      </trkpt>
      <trkpt lat="62.633293786296" lon="17.971841756595">
        <ele>196.6</ele>
        <time>2018-01-01T18:36:45Z</time>
      </trkpt>
      <trkpt lat="62.633299234531" lon="17.971768079694">
        <ele>196.4</ele>
        <time>2018-01-01T18:36:46Z</time>
      </trkpt>
      <trkpt lat="62.633310466277" lon="17.971691804404">
        <ele>196.2</ele>
        <time>2018-01-01T18:36:47Z</time>
      </trkpt>
      <trkpt lat="62.633315663055" lon="17.971610416155">
        <ele>196.2</ele>
        <time>2018-01-01T18:36:48Z</time>
      </trkpt>
      <trkpt lat="62.633324547869" lon="17.971530117553">
        <ele>196</ele>
        <time>2018-01-01T18:36:49Z</time>
      </trkpt>
      <trkpt lat="62.633328822638" lon="17.971452836435">
        <ele>195.8</ele>
        <time>2018-01-01T18:36:50Z</time>
      </trkpt>
      <trkpt lat="62.63333033138" lon="17.971385613597">
        <ele>195.8</ele>
        <time>2018-01-01T18:36:51Z</time>
      </trkpt>
      <trkpt lat="62.633332678312" lon="17.971306739918">
        <ele>195.8</ele>
        <time>2018-01-01T18:36:52Z</time>
      </trkpt>
      <trkpt lat="62.633337204538" lon="17.971238846528">
        <ele>195.6</ele>
        <time>2018-01-01T18:36:53Z</time>
      </trkpt>
      <trkpt lat="62.633343826239" lon="17.971162235962">
        <ele>195.6</ele>
        <time>2018-01-01T18:36:54Z</time>
      </trkpt>
      <trkpt lat="62.633347262818" lon="17.971087301776">
        <ele>195.4</ele>
        <time>2018-01-01T18:36:55Z</time>
      </trkpt>
      <trkpt lat="62.63335044794" lon="17.97102158768">
        <ele>195.4</ele>
        <time>2018-01-01T18:36:56Z</time>
      </trkpt>
      <trkpt lat="62.633354303614" lon="17.970951766453">
        <ele>195.2</ele>
        <time>2018-01-01T18:36:57Z</time>
      </trkpt>
      <trkpt lat="62.633353549243" lon="17.970875826439">
        <ele>195</ele>
        <time>2018-01-01T18:36:58Z</time>
      </trkpt>
      <trkpt lat="62.633353130148" lon="17.970804412651">
        <ele>194.8</ele>
        <time>2018-01-01T18:36:59Z</time>
      </trkpt>
      <trkpt lat="62.633354890347" lon="17.970725874248">
        <ele>194.6</ele>
        <time>2018-01-01T18:37:00Z</time>
      </trkpt>
      <trkpt lat="62.633350531759" lon="17.970660746885">
        <ele>194.6</ele>
        <time>2018-01-01T18:37:01Z</time>
      </trkpt>
      <trkpt lat="62.633348017189" lon="17.970591680029">
        <ele>194.4</ele>
        <time>2018-01-01T18:37:02Z</time>
      </trkpt>
      <trkpt lat="62.633345754076" lon="17.970512303436">
        <ele>194.2</ele>
        <time>2018-01-01T18:37:03Z</time>
      </trkpt>
      <trkpt lat="62.63333536052" lon="17.970441979295">
        <ele>194</ele>
        <time>2018-01-01T18:37:04Z</time>
      </trkpt>
      <trkpt lat="62.633327565353" lon="17.970359752856">
        <ele>194</ele>
        <time>2018-01-01T18:37:05Z</time>
      </trkpt>
      <trkpt lat="62.633325050783" lon="17.970290769819">
        <ele>194</ele>
        <time>2018-01-01T18:37:06Z</time>
      </trkpt>
      <trkpt lat="62.633320776014" lon="17.970220948592">
        <ele>193.8</ele>
        <time>2018-01-01T18:37:07Z</time>
      </trkpt>
      <trkpt lat="62.633319518729" lon="17.970101506517">
        <ele>193.6</ele>
        <time>2018-01-01T18:37:09Z</time>
      </trkpt>
      <trkpt lat="62.633318261444" lon="17.970064961433">
        <ele>193.6</ele>
        <time>2018-01-01T18:37:10Z</time>
      </trkpt>
      <trkpt lat="62.633317255616" lon="17.970034618955">
        <ele>193.6</ele>
        <time>2018-01-01T18:37:11Z</time>
      </trkpt>
      <trkpt lat="62.63331440577" lon="17.970020118268">
        <ele>193.6</ele>
        <time>2018-01-01T18:37:12Z</time>
      </trkpt>
      <trkpt lat="62.633311220648" lon="17.969982315899">
        <ele>193.6</ele>
        <time>2018-01-01T18:37:13Z</time>
      </trkpt>
      <trkpt lat="62.633310801553" lon="17.969963875719">
        <ele>193.4</ele>
        <time>2018-01-01T18:37:14Z</time>
      </trkpt>
      <trkpt lat="62.633309711906" lon="17.969954236534">
        <ele>193.2</ele>
        <time>2018-01-01T18:37:15Z</time>
      </trkpt>
      <trkpt lat="62.633306191508" lon="17.969966138832">
        <ele>193.2</ele>
        <time>2018-01-01T18:37:16Z</time>
      </trkpt>
      <trkpt lat="62.633402164263" lon="17.969568501496">
        <ele>192.2</ele>
        <time>2018-01-01T18:38:48Z</time>
      </trkpt>
      <trkpt lat="62.633403002453" lon="17.969514773517">
        <ele>192</ele>
        <time>2018-01-01T18:38:49Z</time>
      </trkpt>
      <trkpt lat="62.63340241572" lon="17.969453753285">
        <ele>191.8</ele>
        <time>2018-01-01T18:38:50Z</time>
      </trkpt>
      <trkpt lat="62.633401996625" lon="17.969401617867">
        <ele>191.6</ele>
        <time>2018-01-01T18:38:51Z</time>
      </trkpt>
      <trkpt lat="62.633403589186" lon="17.969352835209">
        <ele>191.4</ele>
        <time>2018-01-01T18:38:52Z</time>
      </trkpt>
      <trkpt lat="62.633406941946" lon="17.969287121113">
        <ele>191.2</ele>
        <time>2018-01-01T18:38:53Z</time>
      </trkpt>
      <trkpt lat="62.633410294706" lon="17.969236745894">
        <ele>191.2</ele>
        <time>2018-01-01T18:38:54Z</time>
      </trkpt>
      <trkpt lat="62.633415156208" lon="17.9691842752">
        <ele>191.2</ele>
        <time>2018-01-01T18:38:55Z</time>
      </trkpt>
      <trkpt lat="62.63342337047" lon="17.969131050135">
        <ele>191</ele>
        <time>2018-01-01T18:38:56Z</time>
      </trkpt>
      <trkpt lat="62.633429656895" lon="17.969100623838">
        <ele>191</ele>
        <time>2018-01-01T18:38:57Z</time>
      </trkpt>
      <trkpt lat="62.63343678151" lon="17.969042201995">
        <ele>191</ele>
        <time>2018-01-01T18:38:58Z</time>
      </trkpt>
      <trkpt lat="62.633442816478" lon="17.968984450704">
        <ele>190.8</ele>
        <time>2018-01-01T18:38:59Z</time>
      </trkpt>
      <trkpt lat="62.63344683979" lon="17.968939775177">
        <ele>190.6</ele>
        <time>2018-01-01T18:39:00Z</time>
      </trkpt>
      <trkpt lat="62.633451114559" lon="17.968884119361">
        <ele>190.4</ele>
        <time>2018-01-01T18:39:01Z</time>
      </trkpt>
      <trkpt lat="62.633458155355" lon="17.96883391178">
        <ele>190.2</ele>
        <time>2018-01-01T18:39:02Z</time>
      </trkpt>
      <trkpt lat="62.63346360359" lon="17.968785632036">
        <ele>190</ele>
        <time>2018-01-01T18:39:03Z</time>
      </trkpt>
      <trkpt lat="62.633469387101" lon="17.968738944853">
        <ele>189.8</ele>
        <time>2018-01-01T18:39:04Z</time>
      </trkpt>
      <trkpt lat="62.633476344078" lon="17.968681277381">
        <ele>189.8</ele>
        <time>2018-01-01T18:39:05Z</time>
      </trkpt>
      <trkpt lat="62.633482127589" lon="17.968633332913">
        <ele>189.6</ele>
        <time>2018-01-01T18:39:06Z</time>
      </trkpt>
      <trkpt lat="62.633486989091" lon="17.968587651558">
        <ele>189.4</ele>
        <time>2018-01-01T18:39:07Z</time>
      </trkpt>
      <trkpt lat="62.633495203353" lon="17.968533336846">
        <ele>189.4</ele>
        <time>2018-01-01T18:39:08Z</time>
      </trkpt>
      <trkpt lat="62.633502495606" lon="17.968485057102">
        <ele>189.2</ele>
        <time>2018-01-01T18:39:09Z</time>
      </trkpt>
      <trkpt lat="62.633509452583" lon="17.968436693539">
        <ele>189</ele>
        <time>2018-01-01T18:39:10Z</time>
      </trkpt>
      <trkpt lat="62.633516577198" lon="17.968384893397">
        <ele>188.8</ele>
        <time>2018-01-01T18:39:11Z</time>
      </trkpt>
      <trkpt lat="62.633523701813" lon="17.968340972241">
        <ele>188.6</ele>
        <time>2018-01-01T18:39:12Z</time>
      </trkpt>
      <trkpt lat="62.633529401505" lon="17.96828992647">
        <ele>188.4</ele>
        <time>2018-01-01T18:39:13Z</time>
      </trkpt>
      <trkpt lat="62.63353736431" lon="17.968233851559">
        <ele>188.2</ele>
        <time>2018-01-01T18:39:14Z</time>
      </trkpt>
      <trkpt lat="62.633545830029" lon="17.968184398349">
        <ele>188.2</ele>
        <time>2018-01-01T18:39:15Z</time>
      </trkpt>
      <trkpt lat="62.633550942988" lon="17.968134358406">
        <ele>188</ele>
        <time>2018-01-01T18:39:16Z</time>
      </trkpt>
      <trkpt lat="62.633557732327" lon="17.968083312635">
        <ele>187.8</ele>
        <time>2018-01-01T18:39:17Z</time>
      </trkpt>
      <trkpt lat="62.633565946589" lon="17.968029417018">
        <ele>187.6</ele>
        <time>2018-01-01T18:39:18Z</time>
      </trkpt>
      <trkpt lat="62.633572065376" lon="17.967981137274">
        <ele>187.4</ele>
        <time>2018-01-01T18:39:19Z</time>
      </trkpt>
      <trkpt lat="62.63357843562" lon="17.967930845874">
        <ele>187.2</ele>
        <time>2018-01-01T18:39:20Z</time>
      </trkpt>
      <trkpt lat="62.633585308778" lon="17.967881141207">
        <ele>187</ele>
        <time>2018-01-01T18:39:21Z</time>
      </trkpt>
      <trkpt lat="62.633589751185" lon="17.967839986078">
        <ele>186.8</ele>
        <time>2018-01-01T18:39:22Z</time>
      </trkpt>
      <trkpt lat="62.633594277411" lon="17.967787096289">
        <ele>186.6</ele>
        <time>2018-01-01T18:39:23Z</time>
      </trkpt>
      <trkpt lat="62.633600647655" lon="17.967736553432">
        <ele>186.6</ele>
        <time>2018-01-01T18:39:24Z</time>
      </trkpt>
      <trkpt lat="62.633607688451" lon="17.967694308656">
        <ele>186.4</ele>
        <time>2018-01-01T18:39:25Z</time>
      </trkpt>
      <trkpt lat="62.633612214677" lon="17.967644771627">
        <ele>186.2</ele>
        <time>2018-01-01T18:39:26Z</time>
      </trkpt>
      <trkpt lat="62.63361615417" lon="17.96759339058">
        <ele>186</ele>
        <time>2018-01-01T18:39:27Z</time>
      </trkpt>
      <trkpt lat="62.633623949337" lon="17.967545362293">
        <ele>185.8</ele>
        <time>2018-01-01T18:39:28Z</time>
      </trkpt>
      <trkpt lat="62.633634426712" lon="17.967494316522">
        <ele>185.6</ele>
        <time>2018-01-01T18:39:29Z</time>
      </trkpt>
      <trkpt lat="62.633636857463" lon="17.967440169448">
        <ele>185.4</ele>
        <time>2018-01-01T18:39:30Z</time>
      </trkpt>
      <trkpt lat="62.633639455852" lon="17.967384094537">
        <ele>185</ele>
        <time>2018-01-01T18:39:31Z</time>
      </trkpt>
      <trkpt lat="62.633643730621" lon="17.967340341019">
        <ele>184.8</ele>
        <time>2018-01-01T18:39:32Z</time>
      </trkpt>
      <trkpt lat="62.633649346494" lon="17.967288373239">
        <ele>184.6</ele>
        <time>2018-01-01T18:39:33Z</time>
      </trkpt>
      <trkpt lat="62.63365890186" lon="17.967246966653">
        <ele>184.4</ele>
        <time>2018-01-01T18:39:34Z</time>
      </trkpt>
      <trkpt lat="62.633666697027" lon="17.967202374945">
        <ele>184.2</ele>
        <time>2018-01-01T18:39:35Z</time>
      </trkpt>
      <trkpt lat="62.633672564357" lon="17.967157364142">
        <ele>184.2</ele>
        <time>2018-01-01T18:39:36Z</time>
      </trkpt>
      <trkpt lat="62.633677090583" lon="17.967108665303">
        <ele>184</ele>
        <time>2018-01-01T18:39:37Z</time>
      </trkpt>
      <trkpt lat="62.63368320937" lon="17.96705694898">
        <ele>183.8</ele>
        <time>2018-01-01T18:39:38Z</time>
      </trkpt>
      <trkpt lat="62.63368823851" lon="17.967010680892">
        <ele>183.8</ele>
        <time>2018-01-01T18:39:39Z</time>
      </trkpt>
      <trkpt lat="62.633694189659" lon="17.966962652605">
        <ele>183.6</ele>
        <time>2018-01-01T18:39:40Z</time>
      </trkpt>
      <trkpt lat="62.633701733369" lon="17.966910601006">
        <ele>183.4</ele>
        <time>2018-01-01T18:39:41Z</time>
      </trkpt>
      <trkpt lat="62.633711037278" lon="17.966869529696">
        <ele>183.2</ele>
        <time>2018-01-01T18:39:42Z</time>
      </trkpt>
      <trkpt lat="62.633719502997" lon="17.966819908848">
        <ele>183</ele>
        <time>2018-01-01T18:39:43Z</time>
      </trkpt>
      <trkpt lat="62.633729728915" lon="17.966763750118">
        <ele>182.8</ele>
        <time>2018-01-01T18:39:44Z</time>
      </trkpt>
      <trkpt lat="62.633735763883" lon="17.966723014084">
        <ele>182.4</ele>
        <time>2018-01-01T18:39:45Z</time>
      </trkpt>
      <trkpt lat="62.633739116643" lon="17.966672638865">
        <ele>182.4</ele>
        <time>2018-01-01T18:39:46Z</time>
      </trkpt>
      <trkpt lat="62.633746325077" lon="17.966616563954">
        <ele>182.2</ele>
        <time>2018-01-01T18:39:47Z</time>
      </trkpt>
      <trkpt lat="62.633752527683" lon="17.966564596174">
        <ele>182</ele>
        <time>2018-01-01T18:39:48Z</time>
      </trkpt>
      <trkpt lat="62.633755545167" lon="17.966510281462">
        <ele>181.8</ele>
        <time>2018-01-01T18:39:49Z</time>
      </trkpt>
      <trkpt lat="62.633760239031" lon="17.966453703637">
        <ele>181.6</ele>
        <time>2018-01-01T18:39:50Z</time>
      </trkpt>
      <trkpt lat="62.633767279827" lon="17.966407687006">
        <ele>181.4</ele>
        <time>2018-01-01T18:39:51Z</time>
      </trkpt>
      <trkpt lat="62.633773314795" lon="17.966367370067">
        <ele>181.2</ele>
        <time>2018-01-01T18:39:52Z</time>
      </trkpt>
      <trkpt lat="62.633781612876" lon="17.96631682721">
        <ele>181</ele>
        <time>2018-01-01T18:39:53Z</time>
      </trkpt>
      <trkpt lat="62.633788653672" lon="17.966267374">
        <ele>181</ele>
        <time>2018-01-01T18:39:54Z</time>
      </trkpt>
      <trkpt lat="62.633794437183" lon="17.966220016265">
        <ele>180.6</ele>
        <time>2018-01-01T18:39:55Z</time>
      </trkpt>
      <trkpt lat="62.633798628133" lon="17.966172155616">
        <ele>180.6</ele>
        <time>2018-01-01T18:39:56Z</time>
      </trkpt>
      <trkpt lat="62.633803238178" lon="17.966125384614">
        <ele>180.4</ele>
        <time>2018-01-01T18:39:57Z</time>
      </trkpt>
      <trkpt lat="62.633806926214" lon="17.966079367983">
        <ele>180.2</ele>
        <time>2018-01-01T18:39:58Z</time>
      </trkpt>
      <trkpt lat="62.633808434956" lon="17.966023376891">
        <ele>180</ele>
        <time>2018-01-01T18:39:59Z</time>
      </trkpt>
      <trkpt lat="62.633811200983" lon="17.965968894541">
        <ele>179.8</ele>
        <time>2018-01-01T18:40:00Z</time>
      </trkpt>
      <trkpt lat="62.633813464096" lon="17.965920028064">
        <ele>179.8</ele>
        <time>2018-01-01T18:40:01Z</time>
      </trkpt>
      <trkpt lat="62.633815475752" lon="17.965873927614">
        <ele>179.6</ele>
        <time>2018-01-01T18:40:02Z</time>
      </trkpt>
      <trkpt lat="62.633818577055" lon="17.965825061137">
        <ele>179.4</ele>
        <time>2018-01-01T18:40:03Z</time>
      </trkpt>
      <trkpt lat="62.633818577055" lon="17.96579714941">
        <ele>179.2</ele>
        <time>2018-01-01T18:40:04Z</time>
      </trkpt>
      <trkpt lat="62.633820337254" lon="17.965739984852">
        <ele>179</ele>
        <time>2018-01-01T18:40:05Z</time>
      </trkpt>
      <trkpt lat="62.633820756349" lon="17.965690866918">
        <ele>178.8</ele>
        <time>2018-01-01T18:40:06Z</time>
      </trkpt>
      <trkpt lat="62.633821426901" lon="17.965642587174">
        <ele>178.6</ele>
        <time>2018-01-01T18:40:07Z</time>
      </trkpt>
      <trkpt lat="62.633819582883" lon="17.965592547231">
        <ele>178.4</ele>
        <time>2018-01-01T18:40:08Z</time>
      </trkpt>
      <trkpt lat="62.633817990322" lon="17.965546949695">
        <ele>178.4</ele>
        <time>2018-01-01T18:40:09Z</time>
      </trkpt>
      <trkpt lat="62.633816062485" lon="17.965495317191">
        <ele>178.2</ele>
        <time>2018-01-01T18:40:10Z</time>
      </trkpt>
      <trkpt lat="62.633813380277" lon="17.965444522877">
        <ele>178</ele>
        <time>2018-01-01T18:40:11Z</time>
      </trkpt>
      <trkpt lat="62.633808434956" lon="17.965396075495">
        <ele>177.8</ele>
        <time>2018-01-01T18:40:12Z</time>
      </trkpt>
      <trkpt lat="62.633803992549" lon="17.96534117405">
        <ele>177.8</ele>
        <time>2018-01-01T18:40:13Z</time>
      </trkpt>
      <trkpt lat="62.633799466323" lon="17.965291134107">
        <ele>177.6</ele>
        <time>2018-01-01T18:40:14Z</time>
      </trkpt>
      <trkpt lat="62.63379468864" lon="17.965246374761">
        <ele>177.6</ele>
        <time>2018-01-01T18:40:15Z</time>
      </trkpt>
      <trkpt lat="62.633791587337" lon="17.965201950691">
        <ele>177.4</ele>
        <time>2018-01-01T18:40:16Z</time>
      </trkpt>
      <trkpt lat="62.633790581509" lon="17.9651525813">
        <ele>177.4</ele>
        <time>2018-01-01T18:40:17Z</time>
      </trkpt>
      <trkpt lat="62.633789910957" lon="17.965105307384">
        <ele>177.2</ele>
        <time>2018-01-01T18:40:18Z</time>
      </trkpt>
      <trkpt lat="62.633788234577" lon="17.965062475875">
        <ele>177.2</ele>
        <time>2018-01-01T18:40:19Z</time>
      </trkpt>
      <trkpt lat="62.633787899301" lon="17.965015704873">
        <ele>177</ele>
        <time>2018-01-01T18:40:20Z</time>
      </trkpt>
      <trkpt lat="62.633789156586" lon="17.96497069407">
        <ele>176.8</ele>
        <time>2018-01-01T18:40:21Z</time>
      </trkpt>
      <trkpt lat="62.633789910957" lon="17.964935406271">
        <ele>176.6</ele>
        <time>2018-01-01T18:40:22Z</time>
      </trkpt>
      <trkpt lat="62.633789156586" lon="17.964885869242">
        <ele>176.4</ele>
        <time>2018-01-01T18:40:23Z</time>
      </trkpt>
      <trkpt lat="62.633792257889" lon="17.96484077462">
        <ele>176</ele>
        <time>2018-01-01T18:40:24Z</time>
      </trkpt>
      <trkpt lat="62.63380139416" lon="17.964785873175">
        <ele>175.8</ele>
        <time>2018-01-01T18:40:25Z</time>
      </trkpt>
      <trkpt lat="62.633812122992" lon="17.964745388598">
        <ele>175.6</ele>
        <time>2018-01-01T18:40:26Z</time>
      </trkpt>
      <trkpt lat="62.633826288403" lon="17.964706999496">
        <ele>175.4</ele>
        <time>2018-01-01T18:40:27Z</time>
      </trkpt>
      <trkpt lat="62.633845399135" lon="17.96467397481">
        <ele>175.2</ele>
        <time>2018-01-01T18:40:28Z</time>
      </trkpt>
      <trkpt lat="62.63386761117" lon="17.964657043372">
        <ele>175</ele>
        <time>2018-01-01T18:40:29Z</time>
      </trkpt>
      <trkpt lat="62.633890661395" lon="17.964653942069">
        <ele>174.8</ele>
        <time>2018-01-01T18:40:30Z</time>
      </trkpt>
      <trkpt lat="62.633914465991" lon="17.964655618449">
        <ele>174.8</ele>
        <time>2018-01-01T18:40:31Z</time>
      </trkpt>
      <trkpt lat="62.633936761845" lon="17.964659306485">
        <ele>174.8</ele>
        <time>2018-01-01T18:40:32Z</time>
      </trkpt>
      <trkpt lat="62.633960398803" lon="17.964658384476">
        <ele>174.8</ele>
        <time>2018-01-01T18:40:33Z</time>
      </trkpt>
      <trkpt lat="62.633982694657" lon="17.964656121363">
        <ele>174.8</ele>
        <time>2018-01-01T18:40:34Z</time>
      </trkpt>
      <trkpt lat="62.634008259452" lon="17.964659893218">
        <ele>174.8</ele>
        <time>2018-01-01T18:40:35Z</time>
      </trkpt>
      <trkpt lat="62.634030136211" lon="17.964658971209">
        <ele>174.8</ele>
        <time>2018-01-01T18:40:36Z</time>
      </trkpt>
      <trkpt lat="62.634048911667" lon="17.964658384476">
        <ele>174.8</ele>
        <time>2018-01-01T18:40:37Z</time>
      </trkpt>
      <trkpt lat="62.634072548625" lon="17.964658552114">
        <ele>174.6</ele>
        <time>2018-01-01T18:40:38Z</time>
      </trkpt>
      <trkpt lat="62.634095179755" lon="17.964660144675">
        <ele>174.8</ele>
        <time>2018-01-01T18:40:39Z</time>
      </trkpt>
      <trkpt lat="62.6341165536" lon="17.964661150503">
        <ele>174.6</ele>
        <time>2018-01-01T18:40:40Z</time>
      </trkpt>
      <trkpt lat="62.634141028748" lon="17.964660815227">
        <ele>174.6</ele>
        <time>2018-01-01T18:40:41Z</time>
      </trkpt>
      <trkpt lat="62.634165839172" lon="17.964661988693">
        <ele>174.6</ele>
        <time>2018-01-01T18:40:42Z</time>
      </trkpt>
      <trkpt lat="62.634189140854" lon="17.96466475472">
        <ele>174.6</ele>
        <time>2018-01-01T18:40:43Z</time>
      </trkpt>
      <trkpt lat="62.634212526355" lon="17.964665844367">
        <ele>174.4</ele>
        <time>2018-01-01T18:40:44Z</time>
      </trkpt>
      <trkpt lat="62.634236750046" lon="17.96466559291">
        <ele>174.4</ele>
        <time>2018-01-01T18:40:45Z</time>
      </trkpt>
      <trkpt lat="62.634258794443" lon="17.96466475472">
        <ele>174.4</ele>
        <time>2018-01-01T18:40:46Z</time>
      </trkpt>
      <trkpt lat="62.634282179944" lon="17.96466307834">
        <ele>174.4</ele>
        <time>2018-01-01T18:40:47Z</time>
      </trkpt>
      <trkpt lat="62.634306152178" lon="17.964664000349">
        <ele>174.4</ele>
        <time>2018-01-01T18:40:48Z</time>
      </trkpt>
      <trkpt lat="62.634328699489" lon="17.964663748892">
        <ele>174.2</ele>
        <time>2018-01-01T18:40:49Z</time>
      </trkpt>
      <trkpt lat="62.634350492429" lon="17.964660396132">
        <ele>174.2</ele>
        <time>2018-01-01T18:40:50Z</time>
      </trkpt>
      <trkpt lat="62.634373710292" lon="17.96466307834">
        <ele>174.2</ele>
        <time>2018-01-01T18:40:51Z</time>
      </trkpt>
      <trkpt lat="62.63439399449" lon="17.964665089996">
        <ele>174.2</ele>
        <time>2018-01-01T18:40:52Z</time>
      </trkpt>
      <trkpt lat="62.634418553457" lon="17.964665341453">
        <ele>174</ele>
        <time>2018-01-01T18:40:53Z</time>
      </trkpt>
      <trkpt lat="62.634440430216" lon="17.964667017833">
        <ele>174</ele>
        <time>2018-01-01T18:40:54Z</time>
      </trkpt>
      <trkpt lat="62.634464905364" lon="17.964671627878">
        <ele>174</ele>
        <time>2018-01-01T18:40:55Z</time>
      </trkpt>
      <trkpt lat="62.634487704132" lon="17.964672801344">
        <ele>173.8</ele>
        <time>2018-01-01T18:40:56Z</time>
      </trkpt>
      <trkpt lat="62.634509999986" lon="17.964676237923">
        <ele>173.8</ele>
        <time>2018-01-01T18:40:57Z</time>
      </trkpt>
      <trkpt lat="62.63453313403" lon="17.964677998122">
        <ele>173.8</ele>
        <time>2018-01-01T18:40:58Z</time>
      </trkpt>
      <trkpt lat="62.634558615006" lon="17.964677411389">
        <ele>173.8</ele>
        <time>2018-01-01T18:40:59Z</time>
      </trkpt>
      <trkpt lat="62.634581916688" lon="17.964675735009">
        <ele>173.8</ele>
        <time>2018-01-01T18:41:00Z</time>
      </trkpt>
      <trkpt lat="62.634607900578" lon="17.964673304258">
        <ele>173.8</ele>
        <time>2018-01-01T18:41:01Z</time>
      </trkpt>
      <trkpt lat="62.634631286079" lon="17.964675399733">
        <ele>173.8</ele>
        <time>2018-01-01T18:41:02Z</time>
      </trkpt>
      <trkpt lat="62.634655342132" lon="17.964677411389">
        <ele>173.8</ele>
        <time>2018-01-01T18:41:03Z</time>
      </trkpt>
      <trkpt lat="62.634675961606" lon="17.964678501036">
        <ele>173.8</ele>
        <time>2018-01-01T18:41:04Z</time>
      </trkpt>
      <trkpt lat="62.634703454238" lon="17.96468068033">
        <ele>173.6</ele>
        <time>2018-01-01T18:41:05Z</time>
      </trkpt>
      <trkpt lat="62.634726588282" lon="17.964686882936">
        <ele>173.6</ele>
        <time>2018-01-01T18:41:06Z</time>
      </trkpt>
      <trkpt lat="62.63474687248" lon="17.964687972583">
        <ele>173.4</ele>
        <time>2018-01-01T18:41:07Z</time>
      </trkpt>
      <trkpt lat="62.634772185818" lon="17.964687134393">
        <ele>173.4</ele>
        <time>2018-01-01T18:41:08Z</time>
      </trkpt>
      <trkpt lat="62.6347954875" lon="17.964685793289">
        <ele>173.4</ele>
        <time>2018-01-01T18:41:09Z</time>
      </trkpt>
      <trkpt lat="62.634816106974" lon="17.964684200728">
        <ele>173.2</ele>
        <time>2018-01-01T18:41:10Z</time>
      </trkpt>
      <trkpt lat="62.634839324837" lon="17.96468654766">
        <ele>173.2</ele>
        <time>2018-01-01T18:41:11Z</time>
      </trkpt>
      <trkpt lat="62.634862207424" lon="17.964684116909">
        <ele>173.2</ele>
        <time>2018-01-01T18:41:12Z</time>
      </trkpt>
      <trkpt lat="62.634882575441" lon="17.964683949271">
        <ele>173</ele>
        <time>2018-01-01T18:41:13Z</time>
      </trkpt>
      <trkpt lat="62.634902272906" lon="17.964678417217">
        <ele>173</ele>
        <time>2018-01-01T18:41:14Z</time>
      </trkpt>
      <trkpt lat="62.634924065846" lon="17.964675735009">
        <ele>173</ele>
        <time>2018-01-01T18:41:15Z</time>
      </trkpt>
      <trkpt lat="62.634943763311" lon="17.964668191299">
        <ele>173</ele>
        <time>2018-01-01T18:41:16Z</time>
      </trkpt>
      <trkpt lat="62.634964466604" lon="17.964654528802">
        <ele>173</ele>
        <time>2018-01-01T18:41:17Z</time>
      </trkpt>
      <trkpt lat="62.634989360847" lon="17.964643129418">
        <ele>173</ele>
        <time>2018-01-01T18:41:18Z</time>
      </trkpt>
      <trkpt lat="62.635013752176" lon="17.964632987319">
        <ele>173</ele>
        <time>2018-01-01T18:41:19Z</time>
      </trkpt>
      <trkpt lat="62.635034204012" lon="17.964626533256">
        <ele>173</ele>
        <time>2018-01-01T18:41:20Z</time>
      </trkpt>
      <trkpt lat="62.63505867916" lon="17.964618738089">
        <ele>173</ele>
        <time>2018-01-01T18:41:21Z</time>
      </trkpt>
      <trkpt lat="62.635078879539" lon="17.964608260714">
        <ele>173</ele>
        <time>2018-01-01T18:41:22Z</time>
      </trkpt>
      <trkpt lat="62.635103522325" lon="17.964597783339">
        <ele>173</ele>
        <time>2018-01-01T18:41:23Z</time>
      </trkpt>
      <trkpt lat="62.635128835663" lon="17.964591664552">
        <ele>172.8</ele>
        <time>2018-01-01T18:41:24Z</time>
      </trkpt>
      <trkpt lat="62.6351559092" lon="17.964580432806">
        <ele>172.8</ele>
        <time>2018-01-01T18:41:25Z</time>
      </trkpt>
      <trkpt lat="62.635177953597" lon="17.964570793621">
        <ele>172.8</ele>
        <time>2018-01-01T18:41:26Z</time>
      </trkpt>
      <trkpt lat="62.6351978187" lon="17.964560232427">
        <ele>172.6</ele>
        <time>2018-01-01T18:41:27Z</time>
      </trkpt>
      <trkpt lat="62.635221036563" lon="17.964549838871">
        <ele>172.6</ele>
        <time>2018-01-01T18:41:28Z</time>
      </trkpt>
      <trkpt lat="62.63524475734" lon="17.964543300989">
        <ele>172.6</ele>
        <time>2018-01-01T18:41:29Z</time>
      </trkpt>
      <trkpt lat="62.635265209176" lon="17.964533494166">
        <ele>172.4</ele>
        <time>2018-01-01T18:41:30Z</time>
      </trkpt>
      <trkpt lat="62.635287924125" lon="17.964519915488">
        <ele>172.4</ele>
        <time>2018-01-01T18:41:31Z</time>
      </trkpt>
      <trkpt lat="62.635312566911" lon="17.964510360122">
        <ele>172.4</ele>
        <time>2018-01-01T18:41:32Z</time>
      </trkpt>
      <trkpt lat="62.635335617136" lon="17.964498709281">
        <ele>172.4</ele>
        <time>2018-01-01T18:41:33Z</time>
      </trkpt>
      <trkpt lat="62.635359086456" lon="17.964487561354">
        <ele>172.4</ele>
        <time>2018-01-01T18:41:34Z</time>
      </trkpt>
      <trkpt lat="62.635382052862" lon="17.964472390115">
        <ele>172.4</ele>
        <time>2018-01-01T18:41:35Z</time>
      </trkpt>
      <trkpt lat="62.635413652625" lon="17.964452525012">
        <ele>172.4</ele>
        <time>2018-01-01T18:41:36Z</time>
      </trkpt>
      <trkpt lat="62.635439301239" lon="17.964444226931">
        <ele>172.4</ele>
        <time>2018-01-01T18:41:37Z</time>
      </trkpt>
      <trkpt lat="62.63546687769" lon="17.964437772868">
        <ele>172.2</ele>
        <time>2018-01-01T18:41:38Z</time>
      </trkpt>
      <trkpt lat="62.635488838268" lon="17.964428301321">
        <ele>172.2</ele>
        <time>2018-01-01T18:41:39Z</time>
      </trkpt>
      <trkpt lat="62.635513648692" lon="17.9644149741">
        <ele>172.2</ele>
        <time>2018-01-01T18:41:40Z</time>
      </trkpt>
      <trkpt lat="62.635542230971" lon="17.964401982155">
        <ele>172</ele>
        <time>2018-01-01T18:41:41Z</time>
      </trkpt>
      <trkpt lat="62.635561844617" lon="17.964389241667">
        <ele>172</ele>
        <time>2018-01-01T18:41:42Z</time>
      </trkpt>
      <trkpt lat="62.635586822679" lon="17.964369460383">
        <ele>172</ele>
        <time>2018-01-01T18:41:43Z</time>
      </trkpt>
      <trkpt lat="62.635610040542" lon="17.964355127334">
        <ele>171.8</ele>
        <time>2018-01-01T18:41:44Z</time>
      </trkpt>
      <trkpt lat="62.635629570369" lon="17.964344482321">
        <ele>171.8</ele>
        <time>2018-01-01T18:41:45Z</time>
      </trkpt>
      <trkpt lat="62.635650273662" lon="17.964337357706">
        <ele>171.6</ele>
        <time>2018-01-01T18:41:46Z</time>
      </trkpt>
      <trkpt lat="62.635676928104" lon="17.964324784856">
        <ele>171.6</ele>
        <time>2018-01-01T18:41:47Z</time>
      </trkpt>
      <trkpt lat="62.635698553406" lon="17.964309865074">
        <ele>171.6</ele>
        <time>2018-01-01T18:41:48Z</time>
      </trkpt>
      <trkpt lat="62.635714730473" lon="17.964298214233">
        <ele>171.6</ele>
        <time>2018-01-01T18:41:49Z</time>
      </trkpt>
      <trkpt lat="62.635735014671" lon="17.964286144297">
        <ele>171.4</ele>
        <time>2018-01-01T18:41:50Z</time>
      </trkpt>
      <trkpt lat="62.635759908914" lon="17.964267787936">
        <ele>171.4</ele>
        <time>2018-01-01T18:41:51Z</time>
      </trkpt>
      <trkpt lat="62.635777762361" lon="17.964254209258">
        <ele>171.4</ele>
        <time>2018-01-01T18:41:52Z</time>
      </trkpt>
      <trkpt lat="62.63580466826" lon="17.964242726055">
        <ele>171.4</ele>
        <time>2018-01-01T18:41:53Z</time>
      </trkpt>
      <trkpt lat="62.635829394865" lon="17.964222525676">
        <ele>171.4</ele>
        <time>2018-01-01T18:41:54Z</time>
      </trkpt>
      <trkpt lat="62.635848086502" lon="17.964210036645">
        <ele>171.4</ele>
        <time>2018-01-01T18:41:55Z</time>
      </trkpt>
      <trkpt lat="62.635869292709" lon="17.964207438256">
        <ele>171.4</ele>
        <time>2018-01-01T18:41:56Z</time>
      </trkpt>
      <trkpt lat="62.635890918011" lon="17.964192769931">
        <ele>171.2</ele>
        <time>2018-01-01T18:41:57Z</time>
      </trkpt>
      <trkpt lat="62.63590441287" lon="17.964179610348">
        <ele>171.2</ele>
        <time>2018-01-01T18:41:58Z</time>
      </trkpt>
      <trkpt lat="62.635930312941" lon="17.964154799924">
        <ele>171.2</ele>
        <time>2018-01-01T18:41:59Z</time>
      </trkpt>
      <trkpt lat="62.635949591311" lon="17.964138539038">
        <ele>171</ele>
        <time>2018-01-01T18:42:00Z</time>
      </trkpt>
      <trkpt lat="62.635969288776" lon="17.964120350315">
        <ele>171</ele>
        <time>2018-01-01T18:42:01Z</time>
      </trkpt>
      <trkpt lat="62.635988734784" lon="17.964101574859">
        <ele>171</ele>
        <time>2018-01-01T18:42:02Z</time>
      </trkpt>
      <trkpt lat="62.636013545208" lon="17.964083972869">
        <ele>171</ele>
        <time>2018-01-01T18:42:03Z</time>
      </trkpt>
      <trkpt lat="62.636030728103" lon="17.964064945956">
        <ele>171</ele>
        <time>2018-01-01T18:42:04Z</time>
      </trkpt>
      <trkpt lat="62.636049168283" lon="17.964049271803">
        <ele>170.8</ele>
        <time>2018-01-01T18:42:05Z</time>
      </trkpt>
      <trkpt lat="62.636077415286" lon="17.964033513831">
        <ele>170.8</ele>
        <time>2018-01-01T18:42:06Z</time>
      </trkpt>
      <trkpt lat="62.636094430543" lon="17.964003758086">
        <ele>170.8</ele>
        <time>2018-01-01T18:42:07Z</time>
      </trkpt>
      <trkpt lat="62.636116894035" lon="17.963993951263">
        <ele>170.8</ele>
        <time>2018-01-01T18:42:08Z</time>
      </trkpt>
      <trkpt lat="62.636139189889" lon="17.963968973201">
        <ele>170.8</ele>
        <time>2018-01-01T18:42:09Z</time>
      </trkpt>
      <trkpt lat="62.636159725544" lon="17.963942570216">
        <ele>170.8</ele>
        <time>2018-01-01T18:42:10Z</time>
      </trkpt>
      <trkpt lat="62.636178668638" lon="17.963915580498">
        <ele>170.6</ele>
        <time>2018-01-01T18:42:11Z</time>
      </trkpt>
      <trkpt lat="62.63619777937" lon="17.963895128662">
        <ele>170.6</ele>
        <time>2018-01-01T18:42:12Z</time>
      </trkpt>
      <trkpt lat="62.636216890102" lon="17.963857745388">
        <ele>170.6</ele>
        <time>2018-01-01T18:42:13Z</time>
      </trkpt>
      <trkpt lat="62.636236000834" lon="17.963832599688">
        <ele>170.4</ele>
        <time>2018-01-01T18:42:14Z</time>
      </trkpt>
      <trkpt lat="62.636253770462" lon="17.963802843943">
        <ele>170.4</ele>
        <time>2018-01-01T18:42:15Z</time>
      </trkpt>
      <trkpt lat="62.636271791547" lon="17.963779374623">
        <ele>170.4</ele>
        <time>2018-01-01T18:42:16Z</time>
      </trkpt>
      <trkpt lat="62.6362874657" lon="17.963752636362">
        <ele>170.4</ele>
        <time>2018-01-01T18:42:17Z</time>
      </trkpt>
      <trkpt lat="62.636307666079" lon="17.963730927241">
        <ele>170.2</ele>
        <time>2018-01-01T18:42:18Z</time>
      </trkpt>
      <trkpt lat="62.636327531182" lon="17.963702261143">
        <ele>170.2</ele>
        <time>2018-01-01T18:42:19Z</time>
      </trkpt>
      <trkpt lat="62.636343372973" lon="17.963683820963">
        <ele>170.2</ele>
        <time>2018-01-01T18:42:20Z</time>
      </trkpt>
      <trkpt lat="62.636363573352" lon="17.963658004711">
        <ele>170.2</ele>
        <time>2018-01-01T18:42:21Z</time>
      </trkpt>
      <trkpt lat="62.636384360464" lon="17.963651047734">
        <ele>170.2</ele>
        <time>2018-01-01T18:42:22Z</time>
      </trkpt>
      <trkpt lat="62.63641403239" lon="17.963654316675">
        <ele>170</ele>
        <time>2018-01-01T18:42:23Z</time>
      </trkpt>
      <trkpt lat="62.636436412063" lon="17.963643084929">
        <ele>170</ele>
        <time>2018-01-01T18:42:24Z</time>
      </trkpt>
      <trkpt lat="62.636457785908" lon="17.963638642522">
        <ele>170</ele>
        <time>2018-01-01T18:42:25Z</time>
      </trkpt>
      <trkpt lat="62.636484524169" lon="17.963629170975">
        <ele>170</ele>
        <time>2018-01-01T18:42:26Z</time>
      </trkpt>
      <trkpt lat="62.636506987661" lon="17.963622297817">
        <ele>170</ele>
        <time>2018-01-01T18:42:27Z</time>
      </trkpt>
      <trkpt lat="62.63652970261" lon="17.96361366446">
        <ele>170</ele>
        <time>2018-01-01T18:42:28Z</time>
      </trkpt>
      <trkpt lat="62.636558871622" lon="17.96361366446">
        <ele>169.8</ele>
        <time>2018-01-01T18:42:29Z</time>
      </trkpt>
      <trkpt lat="62.636582340942" lon="17.963621459627">
        <ele>169.8</ele>
        <time>2018-01-01T18:42:30Z</time>
      </trkpt>
      <trkpt lat="62.636605558805" lon="17.963634032477">
        <ele>169.8</ele>
        <time>2018-01-01T18:42:31Z</time>
      </trkpt>
      <trkpt lat="62.636622574062" lon="17.9636606031">
        <ele>169.6</ele>
        <time>2018-01-01T18:42:32Z</time>
      </trkpt>
      <trkpt lat="62.636640511328" lon="17.963706955007">
        <ele>169.6</ele>
        <time>2018-01-01T18:42:33Z</time>
      </trkpt>
      <trkpt lat="62.636652162169" lon="17.963737632761">
        <ele>169.4</ele>
        <time>2018-01-01T18:42:34Z</time>
      </trkpt>
      <trkpt lat="62.636667920141" lon="17.963774261664">
        <ele>169.6</ele>
        <time>2018-01-01T18:42:35Z</time>
      </trkpt>
      <trkpt lat="62.636683761932" lon="17.963815752069">
        <ele>169.6</ele>
        <time>2018-01-01T18:42:36Z</time>
      </trkpt>
      <trkpt lat="62.636695915687" lon="17.963849531126">
        <ele>169.6</ele>
        <time>2018-01-01T18:42:37Z</time>
      </trkpt>
      <trkpt lat="62.636707985623" lon="17.963889177513">
        <ele>169.8</ele>
        <time>2018-01-01T18:42:38Z</time>
      </trkpt>
      <trkpt lat="62.636718546817" lon="17.963931757565">
        <ele>169.8</ele>
        <time>2018-01-01T18:42:39Z</time>
      </trkpt>
      <trkpt lat="62.63672667726" lon="17.96396570426">
        <ele>169.8</ele>
        <time>2018-01-01T18:42:40Z</time>
      </trkpt>
      <trkpt lat="62.636736819359" lon="17.964005769742">
        <ele>170</ele>
        <time>2018-01-01T18:42:41Z</time>
      </trkpt>
      <trkpt lat="62.63674427925" lon="17.964043572111">
        <ele>170</ele>
        <time>2018-01-01T18:42:42Z</time>
      </trkpt>
      <trkpt lat="62.636755008082" lon="17.964085146335">
        <ele>170</ele>
        <time>2018-01-01T18:42:43Z</time>
      </trkpt>
      <trkpt lat="62.636765234" lon="17.964119176849">
        <ele>170</ele>
        <time>2018-01-01T18:42:44Z</time>
      </trkpt>
      <trkpt lat="62.636778225945" lon="17.964162259815">
        <ele>170</ele>
        <time>2018-01-01T18:42:45Z</time>
      </trkpt>
      <trkpt lat="62.636790882614" lon="17.964196877062">
        <ele>169.8</ele>
        <time>2018-01-01T18:42:46Z</time>
      </trkpt>
      <trkpt lat="62.636804880387" lon="17.964230907576">
        <ele>169.8</ele>
        <time>2018-01-01T18:42:47Z</time>
      </trkpt>
      <trkpt lat="62.636818375246" lon="17.964279354958">
        <ele>169.8</ele>
        <time>2018-01-01T18:42:48Z</time>
      </trkpt>
      <trkpt lat="62.636830696639" lon="17.964320426268">
        <ele>170</ele>
        <time>2018-01-01T18:42:49Z</time>
      </trkpt>
      <trkpt lat="62.636843940041" lon="17.964351523117">
        <ele>170</ele>
        <time>2018-01-01T18:42:50Z</time>
      </trkpt>
      <trkpt lat="62.636861709669" lon="17.964387565287">
        <ele>170</ele>
        <time>2018-01-01T18:42:51Z</time>
      </trkpt>
      <trkpt lat="62.636878222012" lon="17.964415979928">
        <ele>170</ele>
        <time>2018-01-01T18:42:52Z</time>
      </trkpt>
      <trkpt lat="62.636898422391" lon="17.964448669338">
        <ele>170</ele>
        <time>2018-01-01T18:42:53Z</time>
      </trkpt>
      <trkpt lat="62.636919041865" lon="17.96447113283">
        <ele>170</ele>
        <time>2018-01-01T18:42:54Z</time>
      </trkpt>
      <trkpt lat="62.636943181737" lon="17.964495272702">
        <ele>170</ele>
        <time>2018-01-01T18:42:55Z</time>
      </trkpt>
      <trkpt lat="62.6369663996" lon="17.964517820013">
        <ele>170</ele>
        <time>2018-01-01T18:42:56Z</time>
      </trkpt>
      <trkpt lat="62.636984253047" lon="17.964542630437">
        <ele>170</ele>
        <time>2018-01-01T18:42:57Z</time>
      </trkpt>
      <trkpt lat="62.637006800358" lon="17.964574397838">
        <ele>169.8</ele>
        <time>2018-01-01T18:42:58Z</time>
      </trkpt>
      <trkpt lat="62.63702758747" lon="17.964596609873">
        <ele>169.8</ele>
        <time>2018-01-01T18:42:59Z</time>
      </trkpt>
      <trkpt lat="62.637043010166" lon="17.964614128044">
        <ele>169.8</ele>
        <time>2018-01-01T18:43:00Z</time>
      </trkpt>
      <trkpt lat="62.637058851957" lon="17.964621671754">
        <ele>169.6</ele>
        <time>2018-01-01T18:43:01Z</time>
      </trkpt>
      <trkpt lat="62.637069077875" lon="17.964632149129">
        <ele>169.6</ele>
        <time>2018-01-01T18:43:02Z</time>
      </trkpt>
      <trkpt lat="62.637080058164" lon="17.964644470522">
        <ele>169.6</ele>
        <time>2018-01-01T18:43:03Z</time>
      </trkpt>
    </trkseg>
  </trk>
</gpx>